<?xml version="1.0" encoding="UTF-8" standalone="no" ?><gpx xmlns="http://www.topografix.com/GPX/1/1" xmlns:gpxx="http://www.garmin.com/xmlschemas/GpxExtensions/v3" xmlns:gpxtrkx="http://www.garmin.com/xmlschemas/TrackStatsExtension/v1" xmlns:wptx1="http://www.garmin.com/xmlschemas/WaypointExtension/v1" xmlns:gpxtpx="http://www.garmin.com/xmlschemas/TrackPointExtension/v1" creator="eTrex 20" version="1.1" xmlns:xsi="http://www.w3.org/2001/XMLSchema-instance" xsi:schemaLocation="http://www.topografix.com/GPX/1/1 http://www.topografix.com/GPX/1/1/gpx.xsd http://www.garmin.com/xmlschemas/GpxExtensions/v3 http://www8.garmin.com/xmlschemas/GpxExtensionsv3.xsd http://www.garmin.com/xmlschemas/TrackStatsExtension/v1 http://www8.garmin.com/xmlschemas/TrackStatsExtension.xsd http://www.garmin.com/xmlschemas/WaypointExtension/v1 http://www8.garmin.com/xmlschemas/WaypointExtensionv1.xsd http://www.garmin.com/xmlschemas/TrackPointExtension/v1 http://www.garmin.com/xmlschemas/TrackPointExtensionv1.xsd"><metadata><link href="http://www.garmin.com"><text>Garmin International</text></link><time>2016-12-25T17:36:30Z</time></metadata><trk><name>Текущий трек: 25 ДЕК 2016 09:03</name><extensions><gpxx:TrackExtension><gpxx:DisplayColor>DarkBlue</gpxx:DisplayColor></gpxx:TrackExtension></extensions><trkseg><trkpt lat="51.6952702962" lon="39.2661123723"><ele>113.57</ele><time>2016-12-25T06:03:03Z</time></trkpt><trkpt lat="51.6950531211" lon="39.2661086004"><ele>109.73</ele><time>2016-12-25T06:03:28Z</time></trkpt><trkpt lat="51.6950528696" lon="39.2661139648"><ele>109.73</ele><time>2016-12-25T06:03:30Z</time></trkpt><trkpt lat="51.6950464994" lon="39.2661965266"><ele>109.25</ele><time>2016-12-25T06:03:34Z</time></trkpt><trkpt lat="51.6950480081" lon="39.2662631627"><ele>108.77</ele><time>2016-12-25T06:03:36Z</time></trkpt><trkpt lat="51.6950523667" lon="39.2662961036"><ele>108.77</ele><time>2016-12-25T06:03:37Z</time></trkpt><trkpt lat="51.6950617544" lon="39.2663240153"><ele>108.77</ele><time>2016-12-25T06:03:38Z</time></trkpt><trkpt lat="51.6950780991" lon="39.2663501669"><ele>108.77</ele><time>2016-12-25T06:03:39Z</time></trkpt><trkpt lat="51.6950936057" lon="39.2663708702"><ele>108.29</ele><time>2016-12-25T06:03:40Z</time></trkpt><trkpt lat="51.6951163206" lon="39.2663946748"><ele>108.77</ele><time>2016-12-25T06:03:41Z</time></trkpt><trkpt lat="51.6951419692" lon="39.2664116900"><ele>108.77</ele><time>2016-12-25T06:03:42Z</time></trkpt><trkpt lat="51.6952864733" lon="39.2664990295"><ele>109.73</ele><time>2016-12-25T06:03:53Z</time></trkpt><trkpt lat="51.6956667602" lon="39.2667910550"><ele>110.69</ele><time>2016-12-25T06:04:09Z</time></trkpt><trkpt lat="51.6960234940" lon="39.2669955734"><ele>111.65</ele><time>2016-12-25T06:04:22Z</time></trkpt><trkpt lat="51.6964062955" lon="39.2673087213"><ele>111.65</ele><time>2016-12-25T06:04:35Z</time></trkpt><trkpt lat="51.6968418192" lon="39.2675964721"><ele>111.17</ele><time>2016-12-25T06:04:51Z</time></trkpt><trkpt lat="51.6968492791" lon="39.2676203605"><ele>111.65</ele><time>2016-12-25T06:04:52Z</time></trkpt><trkpt lat="51.6968563199" lon="39.2676463444"><ele>112.13</ele><time>2016-12-25T06:04:53Z</time></trkpt><trkpt lat="51.6968577448" lon="39.2676793691"><ele>112.13</ele><time>2016-12-25T06:04:54Z</time></trkpt><trkpt lat="51.6968527995" lon="39.2677139025"><ele>112.61</ele><time>2016-12-25T06:04:55Z</time></trkpt><trkpt lat="51.6968439147" lon="39.2677563149"><ele>112.61</ele><time>2016-12-25T06:04:56Z</time></trkpt><trkpt lat="51.6968305036" lon="39.2678040080"><ele>112.61</ele><time>2016-12-25T06:04:57Z</time></trkpt><trkpt lat="51.6968171764" lon="39.2678534612"><ele>112.61</ele><time>2016-12-25T06:04:58Z</time></trkpt><trkpt lat="51.6966994945" lon="39.2685468122"><ele>116.94</ele><time>2016-12-25T06:05:10Z</time></trkpt><trkpt lat="51.6966845747" lon="39.2690066434"><ele>118.38</ele><time>2016-12-25T06:05:17Z</time></trkpt><trkpt lat="51.6966737621" lon="39.2690710165"><ele>118.38</ele><time>2016-12-25T06:05:18Z</time></trkpt><trkpt lat="51.6964706685" lon="39.2699139845"><ele>116.94</ele><time>2016-12-25T06:05:33Z</time></trkpt><trkpt lat="51.6962438542" lon="39.2706401087"><ele>118.38</ele><time>2016-12-25T06:05:49Z</time></trkpt><trkpt lat="51.6962446086" lon="39.2706717085"><ele>118.38</ele><time>2016-12-25T06:05:50Z</time></trkpt><trkpt lat="51.6962490510" lon="39.2706956808"><ele>118.38</ele><time>2016-12-25T06:05:51Z</time></trkpt><trkpt lat="51.6962577682" lon="39.2707182281"><ele>118.86</ele><time>2016-12-25T06:05:52Z</time></trkpt><trkpt lat="51.6962748673" lon="39.2707347404"><ele>118.86</ele><time>2016-12-25T06:05:53Z</time></trkpt><trkpt lat="51.6967357043" lon="39.2710846011"><ele>115.50</ele><time>2016-12-25T06:06:07Z</time></trkpt><trkpt lat="51.6973035783" lon="39.2716026027"><ele>119.34</ele><time>2016-12-25T06:06:23Z</time></trkpt><trkpt lat="51.6976520140" lon="39.2717471067"><ele>120.30</ele><time>2016-12-25T06:06:37Z</time></trkpt><trkpt lat="51.6979379207" lon="39.2718881741"><ele>117.90</ele><time>2016-12-25T06:06:49Z</time></trkpt><trkpt lat="51.6986886878" lon="39.2723639309"><ele>115.01</ele><time>2016-12-25T06:07:07Z</time></trkpt><trkpt lat="51.6991449986" lon="39.2726662662"><ele>113.57</ele><time>2016-12-25T06:07:17Z</time></trkpt><trkpt lat="51.6991909314" lon="39.2726923339"><ele>113.57</ele><time>2016-12-25T06:07:18Z</time></trkpt><trkpt lat="51.6992391273" lon="39.2727246042"><ele>113.09</ele><time>2016-12-25T06:07:19Z</time></trkpt><trkpt lat="51.6996114515" lon="39.2729748879"><ele>111.65</ele><time>2016-12-25T06:07:28Z</time></trkpt><trkpt lat="51.6996546183" lon="39.2730014585"><ele>111.65</ele><time>2016-12-25T06:07:29Z</time></trkpt><trkpt lat="51.7002340592" lon="39.2733725253"><ele>111.17</ele><time>2016-12-25T06:07:42Z</time></trkpt><trkpt lat="51.7002567742" lon="39.2733950727"><ele>111.17</ele><time>2016-12-25T06:07:43Z</time></trkpt><trkpt lat="51.7002970073" lon="39.2734312825"><ele>110.69</ele><time>2016-12-25T06:07:44Z</time></trkpt><trkpt lat="51.7003350612" lon="39.2734633852"><ele>110.69</ele><time>2016-12-25T06:07:45Z</time></trkpt><trkpt lat="51.7003722768" lon="39.2734907102"><ele>110.69</ele><time>2016-12-25T06:07:46Z</time></trkpt><trkpt lat="51.7006868497" lon="39.2737315223"><ele>111.17</ele><time>2016-12-25T06:07:57Z</time></trkpt><trkpt lat="51.7007036973" lon="39.2738456000"><ele>111.17</ele><time>2016-12-25T06:08:07Z</time></trkpt><trkpt lat="51.7007181142" lon="39.2738425825"><ele>112.13</ele><time>2016-12-25T06:08:45Z</time></trkpt><trkpt lat="51.7006571777" lon="39.2740627751"><ele>111.65</ele><time>2016-12-25T06:09:01Z</time></trkpt><trkpt lat="51.7006465327" lon="39.2741335183"><ele>111.17</ele><time>2016-12-25T06:09:04Z</time></trkpt><trkpt lat="51.7006715108" lon="39.2741983943"><ele>111.65</ele><time>2016-12-25T06:09:08Z</time></trkpt><trkpt lat="51.7010899354" lon="39.2744336743"><ele>112.61</ele><time>2016-12-25T06:09:20Z</time></trkpt><trkpt lat="51.7019437999" lon="39.2749889754"><ele>112.61</ele><time>2016-12-25T06:09:39Z</time></trkpt><trkpt lat="51.7026897892" lon="39.2752994411"><ele>112.13</ele><time>2016-12-25T06:09:55Z</time></trkpt><trkpt lat="51.7027646396" lon="39.2753664125"><ele>111.65</ele><time>2016-12-25T06:09:57Z</time></trkpt><trkpt lat="51.7028024420" lon="39.2754172906"><ele>111.65</ele><time>2016-12-25T06:09:58Z</time></trkpt><trkpt lat="51.7028736044" lon="39.2755384929"><ele>111.17</ele><time>2016-12-25T06:10:00Z</time></trkpt><trkpt lat="51.7029583454" lon="39.2757407483"><ele>110.69</ele><time>2016-12-25T06:10:03Z</time></trkpt><trkpt lat="51.7029785458" lon="39.2758140899"><ele>110.69</ele><time>2016-12-25T06:10:04Z</time></trkpt><trkpt lat="51.7029936332" lon="39.2758904491"><ele>110.69</ele><time>2016-12-25T06:10:05Z</time></trkpt><trkpt lat="51.7030051164" lon="39.2759686522"><ele>110.69</ele><time>2016-12-25T06:10:06Z</time></trkpt><trkpt lat="51.7030108999" lon="39.2760493699"><ele>110.21</ele><time>2016-12-25T06:10:07Z</time></trkpt><trkpt lat="51.7030109838" lon="39.2761317641"><ele>109.73</ele><time>2016-12-25T06:10:08Z</time></trkpt><trkpt lat="51.7030063737" lon="39.2762175947"><ele>109.73</ele><time>2016-12-25T06:10:09Z</time></trkpt><trkpt lat="51.7028828245" lon="39.2775722779"><ele>107.32</ele><time>2016-12-25T06:10:24Z</time></trkpt><trkpt lat="51.7027871870" lon="39.2789059225"><ele>109.25</ele><time>2016-12-25T06:10:41Z</time></trkpt><trkpt lat="51.7026924714" lon="39.2801997531"><ele>111.17</ele><time>2016-12-25T06:10:59Z</time></trkpt><trkpt lat="51.7025804054" lon="39.2815343197"><ele>114.53</ele><time>2016-12-25T06:11:18Z</time></trkpt><trkpt lat="51.7024742905" lon="39.2828228697"><ele>114.53</ele><time>2016-12-25T06:11:35Z</time></trkpt><trkpt lat="51.7023672536" lon="39.2841278482"><ele>114.53</ele><time>2016-12-25T06:11:51Z</time></trkpt><trkpt lat="51.7022357415" lon="39.2857510876"><ele>114.53</ele><time>2016-12-25T06:12:11Z</time></trkpt><trkpt lat="51.7021238431" lon="39.2871206906"><ele>115.01</ele><time>2016-12-25T06:12:28Z</time></trkpt><trkpt lat="51.7020823527" lon="39.2886611167"><ele>115.01</ele><time>2016-12-25T06:12:47Z</time></trkpt><trkpt lat="51.7022737954" lon="39.2895200104"><ele>115.98</ele><time>2016-12-25T06:12:58Z</time></trkpt><trkpt lat="51.7029073834" lon="39.2903772276"><ele>115.98</ele><time>2016-12-25T06:13:14Z</time></trkpt><trkpt lat="51.7037832923" lon="39.2907112464"><ele>116.46</ele><time>2016-12-25T06:13:31Z</time></trkpt><trkpt lat="51.7048534099" lon="39.2909782100"><ele>115.98</ele><time>2016-12-25T06:13:50Z</time></trkpt><trkpt lat="51.7059539538" lon="39.2912461795"><ele>115.50</ele><time>2016-12-25T06:14:09Z</time></trkpt><trkpt lat="51.7073432542" lon="39.2915989738"><ele>115.01</ele><time>2016-12-25T06:14:30Z</time></trkpt><trkpt lat="51.7088368256" lon="39.2919806018"><ele>114.53</ele><time>2016-12-25T06:14:52Z</time></trkpt><trkpt lat="51.7102982942" lon="39.2923471425"><ele>112.61</ele><time>2016-12-25T06:15:14Z</time></trkpt><trkpt lat="51.7114707548" lon="39.2926468793"><ele>112.13</ele><time>2016-12-25T06:15:32Z</time></trkpt><trkpt lat="51.7125849612" lon="39.2929257452"><ele>110.69</ele><time>2016-12-25T06:15:49Z</time></trkpt><trkpt lat="51.7138057016" lon="39.2932350375"><ele>111.65</ele><time>2016-12-25T06:16:08Z</time></trkpt><trkpt lat="51.7147142999" lon="39.2934715748"><ele>112.13</ele><time>2016-12-25T06:16:23Z</time></trkpt><trkpt lat="51.7159089725" lon="39.2937704735"><ele>113.57</ele><time>2016-12-25T06:16:43Z</time></trkpt><trkpt lat="51.7165655270" lon="39.2939270474"><ele>113.09</ele><time>2016-12-25T06:16:54Z</time></trkpt><trkpt lat="51.7177330423" lon="39.2942309752"><ele>112.61</ele><time>2016-12-25T06:17:13Z</time></trkpt><trkpt lat="51.7188185826" lon="39.2945069075"><ele>113.09</ele><time>2016-12-25T06:17:31Z</time></trkpt><trkpt lat="51.7197695933" lon="39.2947954964"><ele>112.13</ele><time>2016-12-25T06:17:48Z</time></trkpt><trkpt lat="51.7209036648" lon="39.2950742785"><ele>111.65</ele><time>2016-12-25T06:18:09Z</time></trkpt><trkpt lat="51.7220442742" lon="39.2953762785"><ele>111.17</ele><time>2016-12-25T06:18:30Z</time></trkpt><trkpt lat="51.7230652738" lon="39.2956500314"><ele>111.65</ele><time>2016-12-25T06:18:49Z</time></trkpt><trkpt lat="51.7240971699" lon="39.2959139775"><ele>112.61</ele><time>2016-12-25T06:19:08Z</time></trkpt><trkpt lat="51.7251060158" lon="39.2961715534"><ele>113.57</ele><time>2016-12-25T06:19:26Z</time></trkpt><trkpt lat="51.7262048833" lon="39.2964625731"><ele>114.53</ele><time>2016-12-25T06:19:46Z</time></trkpt><trkpt lat="51.7273228616" lon="39.2967544310"><ele>115.50</ele><time>2016-12-25T06:20:07Z</time></trkpt><trkpt lat="51.7276848760" lon="39.2968886252"><ele>115.50</ele><time>2016-12-25T06:20:14Z</time></trkpt><trkpt lat="51.7277292162" lon="39.2969216499"><ele>115.01</ele><time>2016-12-25T06:20:15Z</time></trkpt><trkpt lat="51.7277677730" lon="39.2969695106"><ele>115.01</ele><time>2016-12-25T06:20:16Z</time></trkpt><trkpt lat="51.7277938407" lon="39.2970357276"><ele>114.53</ele><time>2016-12-25T06:20:17Z</time></trkpt><trkpt lat="51.7278106883" lon="39.2971962411"><ele>114.53</ele><time>2016-12-25T06:20:19Z</time></trkpt><trkpt lat="51.7278704513" lon="39.2991012800"><ele>113.09</ele><time>2016-12-25T06:20:41Z</time></trkpt><trkpt lat="51.7277591396" lon="39.3010578677"><ele>113.57</ele><time>2016-12-25T06:21:02Z</time></trkpt><trkpt lat="51.7275501788" lon="39.3032508250"><ele>113.09</ele><time>2016-12-25T06:21:26Z</time></trkpt><trkpt lat="51.7273895815" lon="39.3049327377"><ele>115.01</ele><time>2016-12-25T06:21:45Z</time></trkpt><trkpt lat="51.7271973845" lon="39.3069517706"><ele>118.86</ele><time>2016-12-25T06:22:10Z</time></trkpt><trkpt lat="51.7270178441" lon="39.3088219408"><ele>120.30</ele><time>2016-12-25T06:22:33Z</time></trkpt><trkpt lat="51.7267972324" lon="39.3110865634"><ele>119.82</ele><time>2016-12-25T06:22:59Z</time></trkpt><trkpt lat="51.7266307678" lon="39.3128114752"><ele>118.38</ele><time>2016-12-25T06:23:17Z</time></trkpt><trkpt lat="51.7264319491" lon="39.3149199430"><ele>113.57</ele><time>2016-12-25T06:23:38Z</time></trkpt><trkpt lat="51.7262167856" lon="39.3171164207"><ele>107.81</ele><time>2016-12-25T06:24:00Z</time></trkpt><trkpt lat="51.7261327151" lon="39.3181051500"><ele>107.32</ele><time>2016-12-25T06:24:12Z</time></trkpt><trkpt lat="51.7261389177" lon="39.3181776535"><ele>107.32</ele><time>2016-12-25T06:24:13Z</time></trkpt><trkpt lat="51.7261557654" lon="39.3182529230"><ele>107.32</ele><time>2016-12-25T06:24:14Z</time></trkpt><trkpt lat="51.7261802405" lon="39.3183085788"><ele>106.84</ele><time>2016-12-25T06:24:15Z</time></trkpt><trkpt lat="51.7262273468" lon="39.3183690123"><ele>106.84</ele><time>2016-12-25T06:24:16Z</time></trkpt><trkpt lat="51.7262879480" lon="39.3184058089"><ele>107.32</ele><time>2016-12-25T06:24:17Z</time></trkpt><trkpt lat="51.7263327073" lon="39.3184213992"><ele>107.32</ele><time>2016-12-25T06:24:18Z</time></trkpt><trkpt lat="51.7263925541" lon="39.3184364866"><ele>107.32</ele><time>2016-12-25T06:24:19Z</time></trkpt><trkpt lat="51.7275003064" lon="39.3186560925"><ele>107.81</ele><time>2016-12-25T06:24:37Z</time></trkpt><trkpt lat="51.7290223762" lon="39.3189807236"><ele>106.84</ele><time>2016-12-25T06:25:01Z</time></trkpt><trkpt lat="51.7303487286" lon="39.3192679714"><ele>105.40</ele><time>2016-12-25T06:25:21Z</time></trkpt><trkpt lat="51.7313555628" lon="39.3197862245"><ele>105.40</ele><time>2016-12-25T06:25:37Z</time></trkpt><trkpt lat="51.7318500113" lon="39.3207845092"><ele>105.40</ele><time>2016-12-25T06:25:49Z</time></trkpt><trkpt lat="51.7318996321" lon="39.3212051131"><ele>105.40</ele><time>2016-12-25T06:25:53Z</time></trkpt><trkpt lat="51.7319000512" lon="39.3213008344"><ele>105.40</ele><time>2016-12-25T06:25:54Z</time></trkpt><trkpt lat="51.7318961117" lon="39.3214125652"><ele>105.40</ele><time>2016-12-25T06:25:55Z</time></trkpt><trkpt lat="51.7318883166" lon="39.3215118069"><ele>105.40</ele><time>2016-12-25T06:25:56Z</time></trkpt><trkpt lat="51.7318780068" lon="39.3216082826"><ele>105.40</ele><time>2016-12-25T06:25:57Z</time></trkpt><trkpt lat="51.7317226902" lon="39.3234563246"><ele>104.44</ele><time>2016-12-25T06:26:16Z</time></trkpt><trkpt lat="51.7316045053" lon="39.3249994330"><ele>103.96</ele><time>2016-12-25T06:26:33Z</time></trkpt><trkpt lat="51.7314512841" lon="39.3269353174"><ele>103.96</ele><time>2016-12-25T06:26:54Z</time></trkpt><trkpt lat="51.7312000785" lon="39.3285256997"><ele>103.00</ele><time>2016-12-25T06:27:11Z</time></trkpt><trkpt lat="51.7305766325" lon="39.3295731023"><ele>101.56</ele><time>2016-12-25T06:27:26Z</time></trkpt><trkpt lat="51.7304022051" lon="39.3298211228"><ele>101.56</ele><time>2016-12-25T06:27:30Z</time></trkpt><trkpt lat="51.7303640675" lon="39.3298942968"><ele>101.56</ele><time>2016-12-25T06:27:31Z</time></trkpt><trkpt lat="51.7299261969" lon="39.3312729523"><ele>102.52</ele><time>2016-12-25T06:27:47Z</time></trkpt><trkpt lat="51.7296949401" lon="39.3327715527"><ele>103.96</ele><time>2016-12-25T06:28:04Z</time></trkpt><trkpt lat="51.7297903262" lon="39.3342826422"><ele>104.44</ele><time>2016-12-25T06:28:21Z</time></trkpt><trkpt lat="51.7296646815" lon="39.3357979227"><ele>103.48</ele><time>2016-12-25T06:28:37Z</time></trkpt><trkpt lat="51.7291242164" lon="39.3372631632"><ele>102.52</ele><time>2016-12-25T06:28:55Z</time></trkpt><trkpt lat="51.7290352006" lon="39.3377056438"><ele>101.56</ele><time>2016-12-25T06:29:00Z</time></trkpt><trkpt lat="51.7290301714" lon="39.3378007784"><ele>101.56</ele><time>2016-12-25T06:29:01Z</time></trkpt><trkpt lat="51.7290937901" lon="39.3391754106"><ele>103.00</ele><time>2016-12-25T06:29:16Z</time></trkpt><trkpt lat="51.7291867454" lon="39.3408144917"><ele>106.36</ele><time>2016-12-25T06:29:34Z</time></trkpt><trkpt lat="51.7292734142" lon="39.3423903733"><ele>107.81</ele><time>2016-12-25T06:29:52Z</time></trkpt><trkpt lat="51.7293895036" lon="39.3439623993"><ele>108.29</ele><time>2016-12-25T06:30:10Z</time></trkpt><trkpt lat="51.7295180820" lon="39.3452817947"><ele>110.21</ele><time>2016-12-25T06:30:25Z</time></trkpt><trkpt lat="51.7295906693" lon="39.3460874632"><ele>110.21</ele><time>2016-12-25T06:30:34Z</time></trkpt><trkpt lat="51.7295956146" lon="39.3461778201"><ele>110.21</ele><time>2016-12-25T06:30:35Z</time></trkpt><trkpt lat="51.7297002207" lon="39.3476561364"><ele>110.21</ele><time>2016-12-25T06:30:51Z</time></trkpt><trkpt lat="51.7297604028" lon="39.3480981141"><ele>109.73</ele><time>2016-12-25T06:30:56Z</time></trkpt><trkpt lat="51.7297834530" lon="39.3481829390"><ele>109.73</ele><time>2016-12-25T06:30:57Z</time></trkpt><trkpt lat="51.7298083473" lon="39.3482598849"><ele>109.73</ele><time>2016-12-25T06:30:58Z</time></trkpt><trkpt lat="51.7298705410" lon="39.3484201469"><ele>110.21</ele><time>2016-12-25T06:31:00Z</time></trkpt><trkpt lat="51.7299078405" lon="39.3484956678"><ele>110.21</ele><time>2016-12-25T06:31:01Z</time></trkpt><trkpt lat="51.7299425416" lon="39.3485659920"><ele>110.21</ele><time>2016-12-25T06:31:02Z</time></trkpt><trkpt lat="51.7305890378" lon="39.3495723233"><ele>113.57</ele><time>2016-12-25T06:31:18Z</time></trkpt><trkpt lat="51.7310462706" lon="39.3499283865"><ele>113.09</ele><time>2016-12-25T06:31:27Z</time></trkpt><trkpt lat="51.7318711337" lon="39.3501419574"><ele>109.73</ele><time>2016-12-25T06:31:42Z</time></trkpt><trkpt lat="51.7319248617" lon="39.3501619902"><ele>109.73</ele><time>2016-12-25T06:31:43Z</time></trkpt><trkpt lat="51.7319719680" lon="39.3501950148"><ele>109.73</ele><time>2016-12-25T06:31:44Z</time></trkpt><trkpt lat="51.7320177332" lon="39.3502480723"><ele>110.21</ele><time>2016-12-25T06:31:45Z</time></trkpt><trkpt lat="51.7320586368" lon="39.3503137026"><ele>110.21</ele><time>2016-12-25T06:31:46Z</time></trkpt><trkpt lat="51.7320975289" lon="39.3503943365"><ele>110.21</ele><time>2016-12-25T06:31:47Z</time></trkpt><trkpt lat="51.7321211658" lon="39.3504581228"><ele>109.73</ele><time>2016-12-25T06:31:48Z</time></trkpt><trkpt lat="51.7321461439" lon="39.3505394273"><ele>109.73</ele><time>2016-12-25T06:31:49Z</time></trkpt><trkpt lat="51.7321683560" lon="39.3506266829"><ele>109.25</ele><time>2016-12-25T06:31:50Z</time></trkpt><trkpt lat="51.7321856227" lon="39.3507102504"><ele>109.25</ele><time>2016-12-25T06:31:51Z</time></trkpt><trkpt lat="51.7324245069" lon="39.3521650974"><ele>105.88</ele><time>2016-12-25T06:32:08Z</time></trkpt><trkpt lat="51.7326730303" lon="39.3537444994"><ele>105.40</ele><time>2016-12-25T06:32:26Z</time></trkpt><trkpt lat="51.7329620384" lon="39.3556929566"><ele>107.32</ele><time>2016-12-25T06:32:48Z</time></trkpt><trkpt lat="51.7330923770" lon="39.3565581366"><ele>107.32</ele><time>2016-12-25T06:32:58Z</time></trkpt><trkpt lat="51.7331030220" lon="39.3566516787"><ele>107.32</ele><time>2016-12-25T06:32:59Z</time></trkpt><trkpt lat="51.7331144214" lon="39.3567405269"><ele>107.32</ele><time>2016-12-25T06:33:00Z</time></trkpt><trkpt lat="51.7333103903" lon="39.3582612555"><ele>106.84</ele><time>2016-12-25T06:33:17Z</time></trkpt><trkpt lat="51.7334495299" lon="39.3587973621"><ele>106.36</ele><time>2016-12-25T06:33:24Z</time></trkpt><trkpt lat="51.7334825546" lon="39.3588679377"><ele>106.36</ele><time>2016-12-25T06:33:25Z</time></trkpt><trkpt lat="51.7335183453" lon="39.3589266948"><ele>106.36</ele><time>2016-12-25T06:33:26Z</time></trkpt><trkpt lat="51.7335579917" lon="39.3589705322"><ele>106.36</ele><time>2016-12-25T06:33:27Z</time></trkpt><trkpt lat="51.7336047627" lon="39.3590016291"><ele>106.36</ele><time>2016-12-25T06:33:28Z</time></trkpt><trkpt lat="51.7336570658" lon="39.3590122741"><ele>106.36</ele><time>2016-12-25T06:33:29Z</time></trkpt><trkpt lat="51.7337161582" lon="39.3589991145"><ele>106.36</ele><time>2016-12-25T06:33:30Z</time></trkpt><trkpt lat="51.7337722331" lon="39.3589621503"><ele>105.88</ele><time>2016-12-25T06:33:31Z</time></trkpt><trkpt lat="51.7338242009" lon="39.3589173071"><ele>105.88</ele><time>2016-12-25T06:33:32Z</time></trkpt><trkpt lat="51.7338755820" lon="39.3588639144"><ele>105.88</ele><time>2016-12-25T06:33:33Z</time></trkpt><trkpt lat="51.7348002736" lon="39.3579379655"><ele>105.40</ele><time>2016-12-25T06:33:51Z</time></trkpt><trkpt lat="51.7357649468" lon="39.3571448699"><ele>105.88</ele><time>2016-12-25T06:34:10Z</time></trkpt><trkpt lat="51.7368728667" lon="39.3562249560"><ele>104.92</ele><time>2016-12-25T06:34:32Z</time></trkpt><trkpt lat="51.7379510310" lon="39.3553181179"><ele>106.36</ele><time>2016-12-25T06:34:54Z</time></trkpt><trkpt lat="51.7383047473" lon="39.3550488073"><ele>105.88</ele><time>2016-12-25T06:35:02Z</time></trkpt><trkpt lat="51.7383536138" lon="39.3550350610"><ele>105.88</ele><time>2016-12-25T06:35:03Z</time></trkpt><trkpt lat="51.7384005524" lon="39.3550380785"><ele>105.40</ele><time>2016-12-25T06:35:04Z</time></trkpt><trkpt lat="51.7384469043" lon="39.3550651520"><ele>105.40</ele><time>2016-12-25T06:35:05Z</time></trkpt><trkpt lat="51.7384858802" lon="39.3551201373"><ele>104.92</ele><time>2016-12-25T06:35:06Z</time></trkpt><trkpt lat="51.7385099363" lon="39.3551766314"><ele>104.92</ele><time>2016-12-25T06:35:07Z</time></trkpt><trkpt lat="51.7385324836" lon="39.3552437704"><ele>104.44</ele><time>2016-12-25T06:35:08Z</time></trkpt><trkpt lat="51.7385551985" lon="39.3553204648"><ele>104.44</ele><time>2016-12-25T06:35:09Z</time></trkpt><trkpt lat="51.7389221583" lon="39.3566534389"><ele>102.52</ele><time>2016-12-25T06:35:26Z</time></trkpt><trkpt lat="51.7394100688" lon="39.3584480044"><ele>103.96</ele><time>2016-12-25T06:35:49Z</time></trkpt><trkpt lat="51.7396780383" lon="39.3594120070"><ele>103.48</ele><time>2016-12-25T06:36:03Z</time></trkpt><trkpt lat="51.7396959756" lon="39.3594823312"><ele>103.48</ele><time>2016-12-25T06:36:04Z</time></trkpt><trkpt lat="51.7397779506" lon="39.3597359676"><ele>103.00</ele><time>2016-12-25T06:36:08Z</time></trkpt><trkpt lat="51.7398323491" lon="39.3598708324"><ele>103.48</ele><time>2016-12-25T06:36:10Z</time></trkpt><trkpt lat="51.7398533039" lon="39.3599565793"><ele>103.96</ele><time>2016-12-25T06:36:11Z</time></trkpt><trkpt lat="51.7402060144" lon="39.3612480629"><ele>105.88</ele><time>2016-12-25T06:36:27Z</time></trkpt><trkpt lat="51.7405317351" lon="39.3623960484"><ele>108.29</ele><time>2016-12-25T06:36:43Z</time></trkpt><trkpt lat="51.7408929113" lon="39.3636832573"><ele>109.73</ele><time>2016-12-25T06:37:01Z</time></trkpt><trkpt lat="51.7413283512" lon="39.3652486615"><ele>110.21</ele><time>2016-12-25T06:37:23Z</time></trkpt><trkpt lat="51.7416056246" lon="39.3668240402"><ele>110.21</ele><time>2016-12-25T06:37:44Z</time></trkpt><trkpt lat="51.7418557405" lon="39.3681405019"><ele>114.05</ele><time>2016-12-25T06:38:02Z</time></trkpt><trkpt lat="51.7421750911" lon="39.3690958712"><ele>117.42</ele><time>2016-12-25T06:38:16Z</time></trkpt><trkpt lat="51.7425719742" lon="39.3703448586"><ele>116.46</ele><time>2016-12-25T06:38:33Z</time></trkpt><trkpt lat="51.7429623194" lon="39.3715077639"><ele>115.50</ele><time>2016-12-25T06:38:49Z</time></trkpt><trkpt lat="51.7433630582" lon="39.3727435078"><ele>116.46</ele><time>2016-12-25T06:39:06Z</time></trkpt><trkpt lat="51.7438236438" lon="39.3741083331"><ele>115.98</ele><time>2016-12-25T06:39:25Z</time></trkpt><trkpt lat="51.7442880850" lon="39.3755055126"><ele>115.50</ele><time>2016-12-25T06:39:45Z</time></trkpt><trkpt lat="51.7447284702" lon="39.3768347986"><ele>115.98</ele><time>2016-12-25T06:40:04Z</time></trkpt><trkpt lat="51.7451287899" lon="39.3780093547"><ele>117.42</ele><time>2016-12-25T06:40:21Z</time></trkpt><trkpt lat="51.7455069814" lon="39.3791537359"><ele>119.34</ele><time>2016-12-25T06:40:39Z</time></trkpt><trkpt lat="51.7458689958" lon="39.3802326545"><ele>120.30</ele><time>2016-12-25T06:40:56Z</time></trkpt><trkpt lat="51.7460344546" lon="39.3807182182"><ele>119.82</ele><time>2016-12-25T06:41:04Z</time></trkpt><trkpt lat="51.7460559960" lon="39.3807799090"><ele>119.82</ele><time>2016-12-25T06:41:05Z</time></trkpt><trkpt lat="51.7461182736" lon="39.3809558451"><ele>118.86</ele><time>2016-12-25T06:41:08Z</time></trkpt><trkpt lat="51.7461374681" lon="39.3810218945"><ele>118.86</ele><time>2016-12-25T06:41:09Z</time></trkpt><trkpt lat="51.7461596802" lon="39.3810784724"><ele>118.38</ele><time>2016-12-25T06:41:10Z</time></trkpt><trkpt lat="51.7461894359" lon="39.3811235670"><ele>118.38</ele><time>2016-12-25T06:41:11Z</time></trkpt><trkpt lat="51.7462251429" lon="39.3811491318"><ele>118.38</ele><time>2016-12-25T06:41:12Z</time></trkpt><trkpt lat="51.7462581675" lon="39.3811619561"><ele>118.38</ele><time>2016-12-25T06:41:13Z</time></trkpt><trkpt lat="51.7462917790" lon="39.3811746128"><ele>118.38</ele><time>2016-12-25T06:41:14Z</time></trkpt><trkpt lat="51.7466349341" lon="39.3811652251"><ele>118.38</ele><time>2016-12-25T06:41:27Z</time></trkpt><trkpt lat="51.7467668653" lon="39.3810789753"><ele>117.42</ele><time>2016-12-25T06:41:34Z</time></trkpt><trkpt lat="51.7470168136" lon="39.3809012789"><ele>116.46</ele><time>2016-12-25T06:41:47Z</time></trkpt><trkpt lat="51.7472390179" lon="39.3808214832"><ele>115.50</ele><time>2016-12-25T06:41:59Z</time></trkpt><trkpt lat="51.7474826798" lon="39.3814552389"><ele>115.01</ele><time>2016-12-25T06:42:11Z</time></trkpt><trkpt lat="51.7477990128" lon="39.3825340737"><ele>115.50</ele><time>2016-12-25T06:42:29Z</time></trkpt><trkpt lat="51.7480963189" lon="39.3833969906"><ele>115.98</ele><time>2016-12-25T06:42:44Z</time></trkpt><trkpt lat="51.7483188584" lon="39.3839033414"><ele>119.34</ele><time>2016-12-25T06:42:55Z</time></trkpt><trkpt lat="51.7485176772" lon="39.3843954429"><ele>120.30</ele><time>2016-12-25T06:43:05Z</time></trkpt><trkpt lat="51.7486081179" lon="39.3847169727"><ele>120.30</ele><time>2016-12-25T06:43:10Z</time></trkpt><trkpt lat="51.7489578947" lon="39.3857017625"><ele>118.38</ele><time>2016-12-25T06:43:25Z</time></trkpt><trkpt lat="51.7490588129" lon="39.3862268887"><ele>117.42</ele><time>2016-12-25T06:43:33Z</time></trkpt><trkpt lat="51.7490521073" lon="39.3866592273"><ele>116.94</ele><time>2016-12-25T06:43:40Z</time></trkpt><trkpt lat="51.7490632553" lon="39.3867206667"><ele>116.94</ele><time>2016-12-25T06:43:41Z</time></trkpt><trkpt lat="51.7490795162" lon="39.3867805135"><ele>116.94</ele><time>2016-12-25T06:43:42Z</time></trkpt><trkpt lat="51.7492099386" lon="39.3871822581"><ele>116.46</ele><time>2016-12-25T06:43:49Z</time></trkpt><trkpt lat="51.7493074201" lon="39.3875542469"><ele>116.46</ele><time>2016-12-25T06:43:55Z</time></trkpt><trkpt lat="51.7495131120" lon="39.3882092088"><ele>117.90</ele><time>2016-12-25T06:44:06Z</time></trkpt><trkpt lat="51.7495413590" lon="39.3882615119"><ele>118.38</ele><time>2016-12-25T06:44:07Z</time></trkpt><trkpt lat="51.7496362422" lon="39.3884097878"><ele>118.86</ele><time>2016-12-25T06:44:10Z</time></trkpt><trkpt lat="51.7499850132" lon="39.3892468046"><ele>120.30</ele><time>2016-12-25T06:44:24Z</time></trkpt><trkpt lat="51.7500137631" lon="39.3893017061"><ele>120.30</ele><time>2016-12-25T06:44:25Z</time></trkpt><trkpt lat="51.7501145974" lon="39.3894561846"><ele>120.78</ele><time>2016-12-25T06:44:28Z</time></trkpt><trkpt lat="51.7506381311" lon="39.3902191892"><ele>122.22</ele><time>2016-12-25T06:44:43Z</time></trkpt><trkpt lat="51.7507507000" lon="39.3904693052"><ele>121.74</ele><time>2016-12-25T06:44:47Z</time></trkpt><trkpt lat="51.7510674521" lon="39.3911007140"><ele>120.78</ele><time>2016-12-25T06:44:58Z</time></trkpt><trkpt lat="51.7512360122" lon="39.3915595394"><ele>119.82</ele><time>2016-12-25T06:45:06Z</time></trkpt><trkpt lat="51.7512510996" lon="39.3916246668"><ele>119.82</ele><time>2016-12-25T06:45:07Z</time></trkpt><trkpt lat="51.7512568831" lon="39.3916915543"><ele>119.82</ele><time>2016-12-25T06:45:08Z</time></trkpt><trkpt lat="51.7512573861" lon="39.3917593639"><ele>120.30</ele><time>2016-12-25T06:45:09Z</time></trkpt><trkpt lat="51.7512547877" lon="39.3918296043"><ele>119.82</ele><time>2016-12-25T06:45:10Z</time></trkpt><trkpt lat="51.7512954399" lon="39.3920808937"><ele>119.82</ele><time>2016-12-25T06:45:14Z</time></trkpt><trkpt lat="51.7515217513" lon="39.3926728237"><ele>119.82</ele><time>2016-12-25T06:45:24Z</time></trkpt><trkpt lat="51.7515365873" lon="39.3927361909"><ele>120.30</ele><time>2016-12-25T06:45:25Z</time></trkpt><trkpt lat="51.7515481543" lon="39.3928020727"><ele>120.30</ele><time>2016-12-25T06:45:26Z</time></trkpt><trkpt lat="51.7517217435" lon="39.3936838489"><ele>119.82</ele><time>2016-12-25T06:45:39Z</time></trkpt><trkpt lat="51.7521039583" lon="39.3947463389"><ele>121.26</ele><time>2016-12-25T06:45:56Z</time></trkpt><trkpt lat="51.7523307726" lon="39.3953611515"><ele>120.78</ele><time>2016-12-25T06:46:06Z</time></trkpt><trkpt lat="51.7523413338" lon="39.3954301346"><ele>120.78</ele><time>2016-12-25T06:46:07Z</time></trkpt><trkpt lat="51.7523467820" lon="39.3955002073"><ele>120.78</ele><time>2016-12-25T06:46:08Z</time></trkpt><trkpt lat="51.7523471173" lon="39.3955724593"><ele>120.78</ele><time>2016-12-25T06:46:09Z</time></trkpt><trkpt lat="51.7523452733" lon="39.3956371676"><ele>121.26</ele><time>2016-12-25T06:46:10Z</time></trkpt><trkpt lat="51.7523909546" lon="39.3962275051"><ele>123.19</ele><time>2016-12-25T06:46:19Z</time></trkpt><trkpt lat="51.7524132505" lon="39.3963026069"><ele>122.71</ele><time>2016-12-25T06:46:20Z</time></trkpt><trkpt lat="51.7524399050" lon="39.3963725120"><ele>122.71</ele><time>2016-12-25T06:46:21Z</time></trkpt><trkpt lat="51.7527451739" lon="39.3971358519"><ele>122.22</ele><time>2016-12-25T06:46:32Z</time></trkpt><trkpt lat="51.7527561542" lon="39.3972062599"><ele>122.22</ele><time>2016-12-25T06:46:33Z</time></trkpt><trkpt lat="51.7528148275" lon="39.3979754671"><ele>124.63</ele><time>2016-12-25T06:46:45Z</time></trkpt><trkpt lat="51.7530343495" lon="39.3989194371"><ele>126.07</ele><time>2016-12-25T06:47:00Z</time></trkpt><trkpt lat="51.7531539593" lon="39.3998126965"><ele>124.15</ele><time>2016-12-25T06:47:13Z</time></trkpt><trkpt lat="51.7531960364" lon="39.4000011217"><ele>123.19</ele><time>2016-12-25T06:47:16Z</time></trkpt><trkpt lat="51.7534357589" lon="39.4007466920"><ele>121.74</ele><time>2016-12-25T06:47:28Z</time></trkpt><trkpt lat="51.7535256967" lon="39.4010723289"><ele>121.26</ele><time>2016-12-25T06:47:33Z</time></trkpt><trkpt lat="51.7535384372" lon="39.4011376239"><ele>121.26</ele><time>2016-12-25T06:47:34Z</time></trkpt><trkpt lat="51.7536272854" lon="39.4015353452"><ele>120.78</ele><time>2016-12-25T06:47:40Z</time></trkpt><trkpt lat="51.7536487430" lon="39.4015974551"><ele>120.30</ele><time>2016-12-25T06:47:41Z</time></trkpt><trkpt lat="51.7539058160" lon="39.4024809916"><ele>119.82</ele><time>2016-12-25T06:47:55Z</time></trkpt><trkpt lat="51.7539109290" lon="39.4026083127"><ele>119.82</ele><time>2016-12-25T06:47:57Z</time></trkpt><trkpt lat="51.7541001923" lon="39.4031298347"><ele>119.82</ele><time>2016-12-25T06:48:07Z</time></trkpt><trkpt lat="51.7542910483" lon="39.4038287178"><ele>119.82</ele><time>2016-12-25T06:48:19Z</time></trkpt><trkpt lat="51.7545015179" lon="39.4046225678"><ele>116.94</ele><time>2016-12-25T06:48:32Z</time></trkpt><trkpt lat="51.7545833252" lon="39.4048765395"><ele>115.98</ele><time>2016-12-25T06:48:36Z</time></trkpt><trkpt lat="51.7546980735" lon="39.4053293299"><ele>114.05</ele><time>2016-12-25T06:48:43Z</time></trkpt><trkpt lat="51.7547132447" lon="39.4053962175"><ele>113.57</ele><time>2016-12-25T06:48:44Z</time></trkpt><trkpt lat="51.7550314218" lon="39.4063040614"><ele>113.57</ele><time>2016-12-25T06:48:59Z</time></trkpt><trkpt lat="51.7551923543" lon="39.4067169540"><ele>114.53</ele><time>2016-12-25T06:49:06Z</time></trkpt><trkpt lat="51.7552076094" lon="39.4067856856"><ele>114.53</ele><time>2016-12-25T06:49:07Z</time></trkpt><trkpt lat="51.7553413846" lon="39.4077193458"><ele>116.46</ele><time>2016-12-25T06:49:21Z</time></trkpt><trkpt lat="51.7555975355" lon="39.4085013773"><ele>117.42</ele><time>2016-12-25T06:49:34Z</time></trkpt><trkpt lat="51.7556369305" lon="39.4086213224"><ele>117.90</ele><time>2016-12-25T06:49:36Z</time></trkpt><trkpt lat="51.7556523532" lon="39.4086846896"><ele>118.38</ele><time>2016-12-25T06:49:37Z</time></trkpt><trkpt lat="51.7556635011" lon="39.4087450393"><ele>118.86</ele><time>2016-12-25T06:49:38Z</time></trkpt><trkpt lat="51.7557820212" lon="39.4091701694"><ele>119.82</ele><time>2016-12-25T06:49:45Z</time></trkpt><trkpt lat="51.7560302094" lon="39.4103200827"><ele>118.38</ele><time>2016-12-25T06:50:03Z</time></trkpt><trkpt lat="51.7563545052" lon="39.4112236518"><ele>117.90</ele><time>2016-12-25T06:50:18Z</time></trkpt><trkpt lat="51.7563645635" lon="39.4112922158"><ele>118.38</ele><time>2016-12-25T06:50:19Z</time></trkpt><trkpt lat="51.7564543337" lon="39.4118093792"><ele>118.38</ele><time>2016-12-25T06:50:27Z</time></trkpt><trkpt lat="51.7564756237" lon="39.4118698966"><ele>118.38</ele><time>2016-12-25T06:50:28Z</time></trkpt><trkpt lat="51.7565616220" lon="39.4121113792"><ele>118.38</ele><time>2016-12-25T06:50:32Z</time></trkpt><trkpt lat="51.7565752845" lon="39.4121755846"><ele>118.38</ele><time>2016-12-25T06:50:33Z</time></trkpt><trkpt lat="51.7565850075" lon="39.4122424722"><ele>118.86</ele><time>2016-12-25T06:50:34Z</time></trkpt><trkpt lat="51.7565993406" lon="39.4125900697"><ele>117.90</ele><time>2016-12-25T06:50:39Z</time></trkpt><trkpt lat="51.7565899529" lon="39.4132761285"><ele>118.38</ele><time>2016-12-25T06:50:49Z</time></trkpt><trkpt lat="51.7565989215" lon="39.4133399986"><ele>118.38</ele><time>2016-12-25T06:50:50Z</time></trkpt><trkpt lat="51.7566118296" lon="39.4133979175"><ele>118.86</ele><time>2016-12-25T06:50:51Z</time></trkpt><trkpt lat="51.7566271685" lon="39.4134541601"><ele>118.86</ele><time>2016-12-25T06:50:52Z</time></trkpt><trkpt lat="51.7566451058" lon="39.4135095645"><ele>118.86</ele><time>2016-12-25T06:50:53Z</time></trkpt><trkpt lat="51.7566803098" lon="39.4136342034"><ele>118.38</ele><time>2016-12-25T06:50:55Z</time></trkpt><trkpt lat="51.7566904519" lon="39.4137008395"><ele>118.38</ele><time>2016-12-25T06:50:56Z</time></trkpt><trkpt lat="51.7567051202" lon="39.4138419069"><ele>118.38</ele><time>2016-12-25T06:50:58Z</time></trkpt><trkpt lat="51.7567180283" lon="39.4139059447"><ele>118.38</ele><time>2016-12-25T06:50:59Z</time></trkpt><trkpt lat="51.7567360494" lon="39.4139621034"><ele>118.38</ele><time>2016-12-25T06:51:00Z</time></trkpt><trkpt lat="51.7568761948" lon="39.4146186579"><ele>118.38</ele><time>2016-12-25T06:51:12Z</time></trkpt><trkpt lat="51.7569344491" lon="39.4155259151"><ele>118.38</ele><time>2016-12-25T06:51:27Z</time></trkpt><trkpt lat="51.7568203714" lon="39.4161449187"><ele>117.42</ele><time>2016-12-25T06:51:38Z</time></trkpt><trkpt lat="51.7568010930" lon="39.4162066095"><ele>116.94</ele><time>2016-12-25T06:51:39Z</time></trkpt><trkpt lat="51.7567852512" lon="39.4162708148"><ele>116.46</ele><time>2016-12-25T06:51:40Z</time></trkpt><trkpt lat="51.7567757796" lon="39.4169494137"><ele>116.46</ele><time>2016-12-25T06:51:52Z</time></trkpt><trkpt lat="51.7568716686" lon="39.4177822396"><ele>116.46</ele><time>2016-12-25T06:52:07Z</time></trkpt><trkpt lat="51.7570251413" lon="39.4188265409"><ele>116.94</ele><time>2016-12-25T06:52:25Z</time></trkpt><trkpt lat="51.7570819706" lon="39.4191510044"><ele>116.46</ele><time>2016-12-25T06:52:30Z</time></trkpt><trkpt lat="51.7571708187" lon="39.4203140773"><ele>116.94</ele><time>2016-12-25T06:52:47Z</time></trkpt><trkpt lat="51.7572248820" lon="39.4208511896"><ele>116.94</ele><time>2016-12-25T06:52:55Z</time></trkpt><trkpt lat="51.7571612634" lon="39.4214954227"><ele>115.01</ele><time>2016-12-25T06:53:05Z</time></trkpt><trkpt lat="51.7571621016" lon="39.4215577003"><ele>115.01</ele><time>2016-12-25T06:53:06Z</time></trkpt><trkpt lat="51.7571621016" lon="39.4216231629"><ele>115.01</ele><time>2016-12-25T06:53:07Z</time></trkpt><trkpt lat="51.7571378779" lon="39.4226022530"><ele>115.01</ele><time>2016-12-25T06:53:21Z</time></trkpt><trkpt lat="51.7571817152" lon="39.4233603124"><ele>113.57</ele><time>2016-12-25T06:53:32Z</time></trkpt><trkpt lat="51.7571802065" lon="39.4234279543"><ele>113.57</ele><time>2016-12-25T06:53:33Z</time></trkpt><trkpt lat="51.7571394704" lon="39.4245850760"><ele>113.09</ele><time>2016-12-25T06:53:50Z</time></trkpt><trkpt lat="51.7571088765" lon="39.4256143738"><ele>113.09</ele><time>2016-12-25T06:54:05Z</time></trkpt><trkpt lat="51.7570706550" lon="39.4261918869"><ele>112.13</ele><time>2016-12-25T06:54:13Z</time></trkpt><trkpt lat="51.7570655420" lon="39.4262601156"><ele>112.13</ele><time>2016-12-25T06:54:14Z</time></trkpt><trkpt lat="51.7570602614" lon="39.4263255782"><ele>111.65</ele><time>2016-12-25T06:54:15Z</time></trkpt><trkpt lat="51.7569874227" lon="39.4271181710"><ele>110.69</ele><time>2016-12-25T06:54:28Z</time></trkpt><trkpt lat="51.7568611912" lon="39.4282806572"><ele>108.77</ele><time>2016-12-25T06:54:47Z</time></trkpt><trkpt lat="51.7567225546" lon="39.4293689635"><ele>109.25</ele><time>2016-12-25T06:55:05Z</time></trkpt><trkpt lat="51.7568002548" lon="39.4299609773"><ele>109.25</ele><time>2016-12-25T06:55:16Z</time></trkpt><trkpt lat="51.7567247339" lon="39.4305024482"><ele>109.73</ele><time>2016-12-25T06:55:26Z</time></trkpt><trkpt lat="51.7565313634" lon="39.4316638447"><ele>110.69</ele><time>2016-12-25T06:55:43Z</time></trkpt><trkpt lat="51.7564158607" lon="39.4321302976"><ele>115.01</ele><time>2016-12-25T06:55:55Z</time></trkpt><trkpt lat="51.7564198002" lon="39.4321533479"><ele>115.50</ele><time>2016-12-25T06:55:56Z</time></trkpt><trkpt lat="51.7564255837" lon="39.4321715366"><ele>115.50</ele><time>2016-12-25T06:55:57Z</time></trkpt><trkpt lat="51.7564346362" lon="39.4321880490"><ele>115.50</ele><time>2016-12-25T06:55:58Z</time></trkpt><trkpt lat="51.7564482149" lon="39.4322057348"><ele>115.50</ele><time>2016-12-25T06:55:59Z</time></trkpt><trkpt lat="51.7564635538" lon="39.4322199002"><ele>115.50</ele><time>2016-12-25T06:56:00Z</time></trkpt><trkpt lat="51.7564830836" lon="39.4322338980"><ele>115.50</ele><time>2016-12-25T06:56:01Z</time></trkpt><trkpt lat="51.7568940483" lon="39.4324929826"><ele>117.42</ele><time>2016-12-25T06:56:15Z</time></trkpt><trkpt lat="51.7575211823" lon="39.4330114871"><ele>123.67</ele><time>2016-12-25T06:56:37Z</time></trkpt><trkpt lat="51.7578867171" lon="39.4333019201"><ele>127.03</ele><time>2016-12-25T06:56:52Z</time></trkpt><trkpt lat="51.7581608053" lon="39.4334211107"><ele>129.92</ele><time>2016-12-25T06:57:05Z</time></trkpt><trkpt lat="51.7581704445" lon="39.4334035087"><ele>130.40</ele><time>2016-12-25T06:57:18Z</time></trkpt><trkpt lat="51.7581670918" lon="39.4334176742"><ele>130.88</ele><time>2016-12-25T06:57:48Z</time></trkpt><trkpt lat="51.7581371684" lon="39.4333894271"><ele>130.88</ele><time>2016-12-25T06:58:07Z</time></trkpt><trkpt lat="51.7581448797" lon="39.4334480166"><ele>131.84</ele><time>2016-12-25T06:58:20Z</time></trkpt><trkpt lat="51.7581616435" lon="39.4334528781"><ele>131.84</ele><time>2016-12-25T06:58:57Z</time></trkpt><trkpt lat="51.7581938300" lon="39.4334579073"><ele>130.88</ele><time>2016-12-25T06:59:35Z</time></trkpt><trkpt lat="51.7581660021" lon="39.4334308337"><ele>128.47</ele><time>2016-12-25T07:00:13Z</time></trkpt><trkpt lat="51.7581581231" lon="39.4334110525"><ele>125.11</ele><time>2016-12-25T07:00:52Z</time></trkpt><trkpt lat="51.7581584584" lon="39.4334005751"><ele>125.59</ele><time>2016-12-25T07:00:54Z</time></trkpt><trkpt lat="51.7581279483" lon="39.4334073644"><ele>125.11</ele><time>2016-12-25T07:01:04Z</time></trkpt><trkpt lat="51.7581156269" lon="39.4334053528"><ele>125.11</ele><time>2016-12-25T07:01:05Z</time></trkpt><trkpt lat="51.7581013776" lon="39.4333995692"><ele>125.11</ele><time>2016-12-25T07:01:06Z</time></trkpt><trkpt lat="51.7578116991" lon="39.4332794566"><ele>126.55</ele><time>2016-12-25T07:01:19Z</time></trkpt><trkpt lat="51.7575441487" lon="39.4330130797"><ele>128.47</ele><time>2016-12-25T07:01:32Z</time></trkpt><trkpt lat="51.7571163364" lon="39.4326495565"><ele>126.55</ele><time>2016-12-25T07:01:47Z</time></trkpt><trkpt lat="51.7565580178" lon="39.4322458841"><ele>122.71</ele><time>2016-12-25T07:02:05Z</time></trkpt><trkpt lat="51.7561284453" lon="39.4320660923"><ele>121.74</ele><time>2016-12-25T07:02:22Z</time></trkpt><trkpt lat="51.7557710409" lon="39.4319251087"><ele>118.86</ele><time>2016-12-25T07:02:35Z</time></trkpt><trkpt lat="51.7557023093" lon="39.4319438841"><ele>118.86</ele><time>2016-12-25T07:02:38Z</time></trkpt><trkpt lat="51.7556789238" lon="39.4319785014"><ele>118.86</ele><time>2016-12-25T07:02:39Z</time></trkpt><trkpt lat="51.7556571309" lon="39.4320271164"><ele>118.86</ele><time>2016-12-25T07:02:40Z</time></trkpt><trkpt lat="51.7552967090" lon="39.4330252334"><ele>118.86</ele><time>2016-12-25T07:02:55Z</time></trkpt><trkpt lat="51.7548548151" lon="39.4342852011"><ele>118.38</ele><time>2016-12-25T07:03:13Z</time></trkpt><trkpt lat="51.7542831693" lon="39.4356480986"><ele>117.90</ele><time>2016-12-25T07:03:33Z</time></trkpt><trkpt lat="51.7535432987" lon="39.4370800629"><ele>117.42</ele><time>2016-12-25T07:03:56Z</time></trkpt><trkpt lat="51.7528780270" lon="39.4382722210"><ele>118.38</ele><time>2016-12-25T07:04:16Z</time></trkpt><trkpt lat="51.7522840016" lon="39.4396223780"><ele>120.30</ele><time>2016-12-25T07:04:36Z</time></trkpt><trkpt lat="51.7518782336" lon="39.4411757123"><ele>119.82</ele><time>2016-12-25T07:04:56Z</time></trkpt><trkpt lat="51.7515155487" lon="39.4428124465"><ele>119.82</ele><time>2016-12-25T07:05:17Z</time></trkpt><trkpt lat="51.7511551268" lon="39.4446789287"><ele>118.86</ele><time>2016-12-25T07:05:40Z</time></trkpt><trkpt lat="51.7509542126" lon="39.4460678101"><ele>118.86</ele><time>2016-12-25T07:05:56Z</time></trkpt><trkpt lat="51.7507458385" lon="39.4475964177"><ele>117.90</ele><time>2016-12-25T07:06:14Z</time></trkpt><trkpt lat="51.7505870853" lon="39.4485946186"><ele>116.94</ele><time>2016-12-25T07:06:26Z</time></trkpt><trkpt lat="51.7505526356" lon="39.4486560579"><ele>116.94</ele><time>2016-12-25T07:06:27Z</time></trkpt><trkpt lat="51.7505077925" lon="39.4486914296"><ele>116.94</ele><time>2016-12-25T07:06:28Z</time></trkpt><trkpt lat="51.7504575010" lon="39.4487014879"><ele>116.46</ele><time>2016-12-25T07:06:29Z</time></trkpt><trkpt lat="51.7504044436" lon="39.4486921001"><ele>116.46</ele><time>2016-12-25T07:06:30Z</time></trkpt><trkpt lat="51.7503514700" lon="39.4486691337"><ele>116.46</ele><time>2016-12-25T07:06:31Z</time></trkpt><trkpt lat="51.7502996698" lon="39.4486421440"><ele>116.46</ele><time>2016-12-25T07:06:32Z</time></trkpt><trkpt lat="51.7495397665" lon="39.4483396411"><ele>118.86</ele><time>2016-12-25T07:06:46Z</time></trkpt><trkpt lat="51.7494873796" lon="39.4483346120"><ele>119.34</ele><time>2016-12-25T07:06:47Z</time></trkpt><trkpt lat="51.7494343221" lon="39.4483389705"><ele>119.34</ele><time>2016-12-25T07:06:48Z</time></trkpt><trkpt lat="51.7493844498" lon="39.4483548962"><ele>119.34</ele><time>2016-12-25T07:06:49Z</time></trkpt><trkpt lat="51.7493350804" lon="39.4483832270"><ele>119.34</ele><time>2016-12-25T07:06:50Z</time></trkpt><trkpt lat="51.7492905725" lon="39.4484239630"><ele>119.34</ele><time>2016-12-25T07:06:51Z</time></trkpt><trkpt lat="51.7492515966" lon="39.4484772719"><ele>119.34</ele><time>2016-12-25T07:06:52Z</time></trkpt><trkpt lat="51.7492210027" lon="39.4485434890"><ele>119.34</ele><time>2016-12-25T07:06:53Z</time></trkpt><trkpt lat="51.7491966952" lon="39.4486164115"><ele>119.34</ele><time>2016-12-25T07:06:54Z</time></trkpt><trkpt lat="51.7491759080" lon="39.4486911781"><ele>118.86</ele><time>2016-12-25T07:06:55Z</time></trkpt><trkpt lat="51.7491563782" lon="39.4487681240"><ele>118.86</ele><time>2016-12-25T07:06:56Z</time></trkpt><trkpt lat="51.7488967068" lon="39.4501318596"><ele>116.46</ele><time>2016-12-25T07:07:13Z</time></trkpt><trkpt lat="51.7486138176" lon="39.4515730441"><ele>114.53</ele><time>2016-12-25T07:07:31Z</time></trkpt><trkpt lat="51.7483931221" lon="39.4526933692"><ele>113.57</ele><time>2016-12-25T07:07:45Z</time></trkpt><trkpt lat="51.7483154219" lon="39.4530743267"><ele>112.61</ele><time>2016-12-25T07:07:50Z</time></trkpt><trkpt lat="51.7482709978" lon="39.4533104450"><ele>112.13</ele><time>2016-12-25T07:07:53Z</time></trkpt><trkpt lat="51.7480381485" lon="39.4544541556"><ele>112.13</ele><time>2016-12-25T07:08:08Z</time></trkpt><trkpt lat="51.7477490567" lon="39.4559530076"><ele>112.61</ele><time>2016-12-25T07:08:27Z</time></trkpt><trkpt lat="51.7477355618" lon="39.4560319651"><ele>112.61</ele><time>2016-12-25T07:08:28Z</time></trkpt><trkpt lat="51.7474563606" lon="39.4575141370"><ele>113.57</ele><time>2016-12-25T07:08:47Z</time></trkpt><trkpt lat="51.7471825238" lon="39.4589528069"><ele>116.94</ele><time>2016-12-25T07:09:06Z</time></trkpt><trkpt lat="51.7469430529" lon="39.4602583721"><ele>121.26</ele><time>2016-12-25T07:09:23Z</time></trkpt><trkpt lat="51.7467139754" lon="39.4614635222"><ele>123.67</ele><time>2016-12-25T07:09:39Z</time></trkpt><trkpt lat="51.7464351095" lon="39.4629387371"><ele>123.67</ele><time>2016-12-25T07:09:57Z</time></trkpt><trkpt lat="51.7461915314" lon="39.4641862996"><ele>121.74</ele><time>2016-12-25T07:10:10Z</time></trkpt><trkpt lat="51.7461341992" lon="39.4644153770"><ele>121.74</ele><time>2016-12-25T07:10:13Z</time></trkpt><trkpt lat="51.7461066227" lon="39.4644821808"><ele>121.74</ele><time>2016-12-25T07:10:14Z</time></trkpt><trkpt lat="51.7460777052" lon="39.4645419437"><ele>121.74</ele><time>2016-12-25T07:10:15Z</time></trkpt><trkpt lat="51.7460455187" lon="39.4646007009"><ele>122.22</ele><time>2016-12-25T07:10:16Z</time></trkpt><trkpt lat="51.7460115720" lon="39.4646514952"><ele>122.22</ele><time>2016-12-25T07:10:17Z</time></trkpt><trkpt lat="51.7459746916" lon="39.4646967575"><ele>122.71</ele><time>2016-12-25T07:10:18Z</time></trkpt><trkpt lat="51.7459399905" lon="39.4647374935"><ele>122.71</ele><time>2016-12-25T07:10:19Z</time></trkpt><trkpt lat="51.7457197141" lon="39.4649358094"><ele>125.59</ele><time>2016-12-25T07:10:29Z</time></trkpt><trkpt lat="51.7456927244" lon="39.4649400003"><ele>127.51</ele><time>2016-12-25T07:10:52Z</time></trkpt><trkpt lat="51.7456897069" lon="39.4649410062"><ele>129.43</ele><time>2016-12-25T07:11:29Z</time></trkpt><trkpt lat="51.7457009386" lon="39.4649627153"><ele>132.80</ele><time>2016-12-25T07:12:07Z</time></trkpt><trkpt lat="51.7456933949" lon="39.4649720192"><ele>132.80</ele><time>2016-12-25T07:12:31Z</time></trkpt><trkpt lat="51.7456954066" lon="39.4649745338"><ele>133.28</ele><time>2016-12-25T07:13:01Z</time></trkpt><trkpt lat="51.7456854321" lon="39.4649727736"><ele>129.43</ele><time>2016-12-25T07:13:33Z</time></trkpt><trkpt lat="51.7456899583" lon="39.4649762101"><ele>130.40</ele><time>2016-12-25T07:14:05Z</time></trkpt><trkpt lat="51.7456892878" lon="39.4649317022"><ele>134.72</ele><time>2016-12-25T07:14:33Z</time></trkpt><trkpt lat="51.7456951551" lon="39.4649236556"><ele>138.09</ele><time>2016-12-25T07:14:54Z</time></trkpt><trkpt lat="51.7457070574" lon="39.4649287686"><ele>137.61</ele><time>2016-12-25T07:15:24Z</time></trkpt><trkpt lat="51.7456691712" lon="39.4649395812"><ele>140.01</ele><time>2016-12-25T07:15:48Z</time></trkpt><trkpt lat="51.7454618029" lon="39.4651960675"><ele>140.97</ele><time>2016-12-25T07:15:58Z</time></trkpt><trkpt lat="51.7449508421" lon="39.4657657016"><ele>141.45</ele><time>2016-12-25T07:16:14Z</time></trkpt><trkpt lat="51.7441856582" lon="39.4664594717"><ele>134.72</ele><time>2016-12-25T07:16:34Z</time></trkpt><trkpt lat="51.7438495439" lon="39.4668073207"><ele>132.32</ele><time>2016-12-25T07:16:43Z</time></trkpt><trkpt lat="51.7431509122" lon="39.4675854128"><ele>132.80</ele><time>2016-12-25T07:17:03Z</time></trkpt><trkpt lat="51.7431185581" lon="39.4676288310"><ele>132.80</ele><time>2016-12-25T07:17:04Z</time></trkpt><trkpt lat="51.7430876289" lon="39.4676805474"><ele>132.80</ele><time>2016-12-25T07:17:05Z</time></trkpt><trkpt lat="51.7430631537" lon="39.4677347783"><ele>133.28</ele><time>2016-12-25T07:17:06Z</time></trkpt><trkpt lat="51.7430423666" lon="39.4677957147"><ele>133.28</ele><time>2016-12-25T07:17:07Z</time></trkpt><trkpt lat="51.7430282012" lon="39.4678598363"><ele>133.28</ele><time>2016-12-25T07:17:08Z</time></trkpt><trkpt lat="51.7430207413" lon="39.4679215271"><ele>133.28</ele><time>2016-12-25T07:17:09Z</time></trkpt><trkpt lat="51.7430177238" lon="39.4679847267"><ele>133.28</ele><time>2016-12-25T07:17:10Z</time></trkpt><trkpt lat="51.7430183105" lon="39.4680507760"><ele>133.28</ele><time>2016-12-25T07:17:11Z</time></trkpt><trkpt lat="51.7430282012" lon="39.4681868143"><ele>133.28</ele><time>2016-12-25T07:17:13Z</time></trkpt><trkpt lat="51.7431771476" lon="39.4696321897"><ele>133.28</ele><time>2016-12-25T07:17:32Z</time></trkpt><trkpt lat="51.7433856055" lon="39.4714342151"><ele>133.76</ele><time>2016-12-25T07:17:55Z</time></trkpt><trkpt lat="51.7434623837" lon="39.4728397764"><ele>132.32</ele><time>2016-12-25T07:18:12Z</time></trkpt><trkpt lat="51.7433444504" lon="39.4731848594"><ele>131.84</ele><time>2016-12-25T07:18:17Z</time></trkpt><trkpt lat="51.7433128506" lon="39.4732400123"><ele>131.84</ele><time>2016-12-25T07:18:18Z</time></trkpt><trkpt lat="51.7432783172" lon="39.4732891303"><ele>131.84</ele><time>2016-12-25T07:18:19Z</time></trkpt><trkpt lat="51.7432393413" lon="39.4733338896"><ele>131.84</ele><time>2016-12-25T07:18:20Z</time></trkpt><trkpt lat="51.7432009522" lon="39.4733710214"><ele>131.84</ele><time>2016-12-25T07:18:21Z</time></trkpt><trkpt lat="51.7431599647" lon="39.4734058063"><ele>131.84</ele><time>2016-12-25T07:18:22Z</time></trkpt><trkpt lat="51.7424837966" lon="39.4737407472"><ele>131.84</ele><time>2016-12-25T07:18:39Z</time></trkpt><trkpt lat="51.7424427252" lon="39.4737430103"><ele>131.84</ele><time>2016-12-25T07:18:40Z</time></trkpt><trkpt lat="51.7424019892" lon="39.4737404957"><ele>132.32</ele><time>2016-12-25T07:18:41Z</time></trkpt><trkpt lat="51.7418830656" lon="39.4734027050"><ele>133.28</ele><time>2016-12-25T07:18:55Z</time></trkpt><trkpt lat="51.7412668280" lon="39.4732267689"><ele>133.76</ele><time>2016-12-25T07:19:12Z</time></trkpt><trkpt lat="51.7408318911" lon="39.4740697369"><ele>133.28</ele><time>2016-12-25T07:19:29Z</time></trkpt><trkpt lat="51.7408138700" lon="39.4744502753"><ele>132.80</ele><time>2016-12-25T07:19:36Z</time></trkpt><trkpt lat="51.7412104178" lon="39.4754778966"><ele>132.32</ele><time>2016-12-25T07:19:50Z</time></trkpt><trkpt lat="51.7417258210" lon="39.4772648346"><ele>133.28</ele><time>2016-12-25T07:20:11Z</time></trkpt><trkpt lat="51.7422216944" lon="39.4792712107"><ele>132.80</ele><time>2016-12-25T07:20:35Z</time></trkpt><trkpt lat="51.7427749839" lon="39.4805029314"><ele>132.32</ele><time>2016-12-25T07:20:53Z</time></trkpt><trkpt lat="51.7434033751" lon="39.4816219155"><ele>131.84</ele><time>2016-12-25T07:21:12Z</time></trkpt><trkpt lat="51.7440049443" lon="39.4830756728"><ele>133.76</ele><time>2016-12-25T07:21:35Z</time></trkpt><trkpt lat="51.7445148155" lon="39.4843263365"><ele>135.68</ele><time>2016-12-25T07:21:54Z</time></trkpt><trkpt lat="51.7451436259" lon="39.4858815987"><ele>138.09</ele><time>2016-12-25T07:22:18Z</time></trkpt><trkpt lat="51.7456736136" lon="39.4872677140"><ele>139.53</ele><time>2016-12-25T07:22:40Z</time></trkpt><trkpt lat="51.7462550662" lon="39.4886852615"><ele>140.97</ele><time>2016-12-25T07:23:03Z</time></trkpt><trkpt lat="51.7468197551" lon="39.4900661800"><ele>142.89</ele><time>2016-12-25T07:23:25Z</time></trkpt><trkpt lat="51.7474855296" lon="39.4916520361"><ele>143.37</ele><time>2016-12-25T07:23:50Z</time></trkpt><trkpt lat="51.7480075546" lon="39.4929387420"><ele>143.85</ele><time>2016-12-25T07:24:10Z</time></trkpt><trkpt lat="51.7485466786" lon="39.4942764100"><ele>143.37</ele><time>2016-12-25T07:24:30Z</time></trkpt><trkpt lat="51.7490505986" lon="39.4955229666"><ele>141.93</ele><time>2016-12-25T07:24:48Z</time></trkpt><trkpt lat="51.7496944964" lon="39.4971023686"><ele>140.49</ele><time>2016-12-25T07:25:09Z</time></trkpt><trkpt lat="51.7504395638" lon="39.4989232533"><ele>139.05</ele><time>2016-12-25T07:25:32Z</time></trkpt><trkpt lat="51.7511169054" lon="39.5005992148"><ele>140.49</ele><time>2016-12-25T07:25:54Z</time></trkpt><trkpt lat="51.7516927421" lon="39.5020336099"><ele>139.05</ele><time>2016-12-25T07:26:12Z</time></trkpt><trkpt lat="51.7522948980" lon="39.5035381615"><ele>137.61</ele><time>2016-12-25T07:26:31Z</time></trkpt><trkpt lat="51.7528695613" lon="39.5050119516"><ele>138.09</ele><time>2016-12-25T07:26:49Z</time></trkpt><trkpt lat="51.7535719648" lon="39.5065599214"><ele>136.64</ele><time>2016-12-25T07:27:09Z</time></trkpt><trkpt lat="51.7543068901" lon="39.5080452785"><ele>134.72</ele><time>2016-12-25T07:27:29Z</time></trkpt><trkpt lat="51.7550197709" lon="39.5095201582"><ele>134.24</ele><time>2016-12-25T07:27:49Z</time></trkpt><trkpt lat="51.7557300534" lon="39.5109878294"><ele>135.20</ele><time>2016-12-25T07:28:10Z</time></trkpt><trkpt lat="51.7565736081" lon="39.5127150882"><ele>136.16</ele><time>2016-12-25T07:28:35Z</time></trkpt><trkpt lat="51.7572315037" lon="39.5140383393"><ele>138.09</ele><time>2016-12-25T07:28:55Z</time></trkpt><trkpt lat="51.7580745555" lon="39.5157146361"><ele>138.09</ele><time>2016-12-25T07:29:20Z</time></trkpt><trkpt lat="51.7589301802" lon="39.5174473431"><ele>138.57</ele><time>2016-12-25T07:29:46Z</time></trkpt><trkpt lat="51.7596444860" lon="39.5188464504"><ele>139.53</ele><time>2016-12-25T07:30:07Z</time></trkpt><trkpt lat="51.7604516633" lon="39.5204376709"><ele>140.49</ele><time>2016-12-25T07:30:31Z</time></trkpt><trkpt lat="51.7612725869" lon="39.5220649336"><ele>141.93</ele><time>2016-12-25T07:30:55Z</time></trkpt><trkpt lat="51.7620427161" lon="39.5236061141"><ele>142.41</ele><time>2016-12-25T07:31:17Z</time></trkpt><trkpt lat="51.7627274338" lon="39.5248851087"><ele>142.89</ele><time>2016-12-25T07:31:38Z</time></trkpt><trkpt lat="51.7633749358" lon="39.5262154005"><ele>143.37</ele><time>2016-12-25T07:32:00Z</time></trkpt><trkpt lat="51.7641622480" lon="39.5277352910"><ele>142.41</ele><time>2016-12-25T07:32:24Z</time></trkpt><trkpt lat="51.7649358977" lon="39.5291126054"><ele>142.89</ele><time>2016-12-25T07:32:46Z</time></trkpt><trkpt lat="51.7655408196" lon="39.5301180147"><ele>143.85</ele><time>2016-12-25T07:33:03Z</time></trkpt><trkpt lat="51.7662575562" lon="39.5311872102"><ele>143.85</ele><time>2016-12-25T07:33:22Z</time></trkpt><trkpt lat="51.7668381706" lon="39.5321108960"><ele>144.34</ele><time>2016-12-25T07:33:40Z</time></trkpt><trkpt lat="51.7671716027" lon="39.5321380533"><ele>145.30</ele><time>2016-12-25T07:33:51Z</time></trkpt><trkpt lat="51.7674215510" lon="39.5321203675"><ele>144.82</ele><time>2016-12-25T07:33:59Z</time></trkpt><trkpt lat="51.7674568389" lon="39.5321534760"><ele>144.34</ele><time>2016-12-25T07:34:00Z</time></trkpt><trkpt lat="51.7674873490" lon="39.5322057791"><ele>144.34</ele><time>2016-12-25T07:34:01Z</time></trkpt><trkpt lat="51.7675039452" lon="39.5322571602"><ele>144.34</ele><time>2016-12-25T07:34:02Z</time></trkpt><trkpt lat="51.7675157636" lon="39.5323190186"><ele>143.85</ele><time>2016-12-25T07:34:03Z</time></trkpt><trkpt lat="51.7675241455" lon="39.5323894266"><ele>143.85</ele><time>2016-12-25T07:34:04Z</time></trkpt><trkpt lat="51.7675332818" lon="39.5324523747"><ele>143.85</ele><time>2016-12-25T07:34:05Z</time></trkpt><trkpt lat="51.7675497942" lon="39.5325119700"><ele>143.85</ele><time>2016-12-25T07:34:06Z</time></trkpt><trkpt lat="51.7675734311" lon="39.5325705595"><ele>143.85</ele><time>2016-12-25T07:34:07Z</time></trkpt><trkpt lat="51.7675963975" lon="39.5326174144"><ele>143.85</ele><time>2016-12-25T07:34:08Z</time></trkpt><trkpt lat="51.7676237226" lon="39.5326729026"><ele>143.85</ele><time>2016-12-25T07:34:09Z</time></trkpt><trkpt lat="51.7680459190" lon="39.5336410124"><ele>143.37</ele><time>2016-12-25T07:34:27Z</time></trkpt><trkpt lat="51.7680734117" lon="39.5336962491"><ele>143.37</ele><time>2016-12-25T07:34:28Z</time></trkpt><trkpt lat="51.7680976354" lon="39.5337452833"><ele>143.37</ele><time>2016-12-25T07:34:29Z</time></trkpt><trkpt lat="51.7684112024" lon="39.5344547275"><ele>143.37</ele><time>2016-12-25T07:34:42Z</time></trkpt><trkpt lat="51.7685977835" lon="39.5349014830"><ele>143.37</ele><time>2016-12-25T07:34:50Z</time></trkpt><trkpt lat="51.7691097502" lon="39.5360461157"><ele>144.82</ele><time>2016-12-25T07:35:10Z</time></trkpt><trkpt lat="51.7692596186" lon="39.5362849161"><ele>144.82</ele><time>2016-12-25T07:35:15Z</time></trkpt><trkpt lat="51.7692925595" lon="39.5363183599"><ele>145.30</ele><time>2016-12-25T07:35:16Z</time></trkpt><trkpt lat="51.7693273444" lon="39.5363556594"><ele>145.30</ele><time>2016-12-25T07:35:17Z</time></trkpt><trkpt lat="51.7694559228" lon="39.5365299191"><ele>146.26</ele><time>2016-12-25T07:35:21Z</time></trkpt><trkpt lat="51.7698862497" lon="39.5374626573"><ele>145.78</ele><time>2016-12-25T07:35:38Z</time></trkpt><trkpt lat="51.7702224478" lon="39.5379752107"><ele>146.74</ele><time>2016-12-25T07:35:51Z</time></trkpt><trkpt lat="51.7706011422" lon="39.5386728365"><ele>147.22</ele><time>2016-12-25T07:36:06Z</time></trkpt><trkpt lat="51.7711449601" lon="39.5396638289"><ele>147.70</ele><time>2016-12-25T07:36:26Z</time></trkpt><trkpt lat="51.7715658154" lon="39.5403784700"><ele>148.18</ele><time>2016-12-25T07:36:43Z</time></trkpt><trkpt lat="51.7718712520" lon="39.5408990700"><ele>148.18</ele><time>2016-12-25T07:36:56Z</time></trkpt><trkpt lat="51.7724928539" lon="39.5418564510"><ele>148.66</ele><time>2016-12-25T07:37:16Z</time></trkpt><trkpt lat="51.7732681800" lon="39.5429070387"><ele>148.66</ele><time>2016-12-25T07:37:38Z</time></trkpt><trkpt lat="51.7741640378" lon="39.5439928304"><ele>148.66</ele><time>2016-12-25T07:38:01Z</time></trkpt><trkpt lat="51.7748848815" lon="39.5447944757"><ele>149.14</ele><time>2016-12-25T07:38:19Z</time></trkpt><trkpt lat="51.7756085750" lon="39.5454897545"><ele>148.66</ele><time>2016-12-25T07:38:36Z</time></trkpt><trkpt lat="51.7762487847" lon="39.5461289585"><ele>149.14</ele><time>2016-12-25T07:38:52Z</time></trkpt><trkpt lat="51.7771441396" lon="39.5470243134"><ele>148.18</ele><time>2016-12-25T07:39:14Z</time></trkpt><trkpt lat="51.7779637221" lon="39.5478692092"><ele>148.18</ele><time>2016-12-25T07:39:34Z</time></trkpt><trkpt lat="51.7788396310" lon="39.5487119257"><ele>148.18</ele><time>2016-12-25T07:39:56Z</time></trkpt><trkpt lat="51.7794448882" lon="39.5493238047"><ele>148.66</ele><time>2016-12-25T07:40:12Z</time></trkpt><trkpt lat="51.7797079124" lon="39.5495855715"><ele>149.14</ele><time>2016-12-25T07:40:22Z</time></trkpt><trkpt lat="51.7801847588" lon="39.5500712190"><ele>150.58</ele><time>2016-12-25T07:40:37Z</time></trkpt><trkpt lat="51.7808367033" lon="39.5507155359"><ele>150.10</ele><time>2016-12-25T07:40:55Z</time></trkpt><trkpt lat="51.7810205184" lon="39.5509135164"><ele>150.10</ele><time>2016-12-25T07:41:00Z</time></trkpt><trkpt lat="51.7816818506" lon="39.5515645389"><ele>150.58</ele><time>2016-12-25T07:41:17Z</time></trkpt><trkpt lat="51.7825878505" lon="39.5524369273"><ele>150.10</ele><time>2016-12-25T07:41:40Z</time></trkpt><trkpt lat="51.7831533775" lon="39.5529995207"><ele>149.62</ele><time>2016-12-25T07:41:55Z</time></trkpt><trkpt lat="51.7834091093" lon="39.5532468706"><ele>149.14</ele><time>2016-12-25T07:42:02Z</time></trkpt><trkpt lat="51.7836479936" lon="39.5534863416"><ele>149.14</ele><time>2016-12-25T07:42:13Z</time></trkpt><trkpt lat="51.7839543521" lon="39.5537838992"><ele>150.10</ele><time>2016-12-25T07:42:24Z</time></trkpt><trkpt lat="51.7843483854" lon="39.5541891642"><ele>150.58</ele><time>2016-12-25T07:42:36Z</time></trkpt><trkpt lat="51.7848074622" lon="39.5546307229"><ele>150.10</ele><time>2016-12-25T07:42:52Z</time></trkpt><trkpt lat="51.7848254833" lon="39.5546698663"><ele>149.62</ele><time>2016-12-25T07:42:55Z</time></trkpt><trkpt lat="51.7851271480" lon="39.5549736265"><ele>149.62</ele><time>2016-12-25T07:43:07Z</time></trkpt><trkpt lat="51.7854749970" lon="39.5552863553"><ele>150.10</ele><time>2016-12-25T07:43:20Z</time></trkpt><trkpt lat="51.7857879773" lon="39.5556062926"><ele>150.58</ele><time>2016-12-25T07:43:33Z</time></trkpt><trkpt lat="51.7861870397" lon="39.5559782814"><ele>151.06</ele><time>2016-12-25T07:43:50Z</time></trkpt><trkpt lat="51.7866274249" lon="39.5564267971"><ele>151.06</ele><time>2016-12-25T07:44:08Z</time></trkpt><trkpt lat="51.7869201209" lon="39.5567154698"><ele>152.03</ele><time>2016-12-25T07:44:22Z</time></trkpt><trkpt lat="51.7871209513" lon="39.5569053199"><ele>151.54</ele><time>2016-12-25T07:44:35Z</time></trkpt><trkpt lat="51.7872244678" lon="39.5570038073"><ele>151.54</ele><time>2016-12-25T07:44:47Z</time></trkpt><trkpt lat="51.7873977218" lon="39.5571597945"><ele>151.06</ele><time>2016-12-25T07:44:59Z</time></trkpt><trkpt lat="51.7877948564" lon="39.5575425122"><ele>151.06</ele><time>2016-12-25T07:45:15Z</time></trkpt><trkpt lat="51.7881716229" lon="39.5579067059"><ele>151.54</ele><time>2016-12-25T07:45:28Z</time></trkpt><trkpt lat="51.7885516584" lon="39.5582703967"><ele>151.06</ele><time>2016-12-25T07:45:40Z</time></trkpt><trkpt lat="51.7891395651" lon="39.5588782523"><ele>152.03</ele><time>2016-12-25T07:45:58Z</time></trkpt><trkpt lat="51.7896361090" lon="39.5593807474"><ele>152.51</ele><time>2016-12-25T07:46:15Z</time></trkpt><trkpt lat="51.7898789328" lon="39.5598312747"><ele>152.99</ele><time>2016-12-25T07:46:27Z</time></trkpt><trkpt lat="51.7897376977" lon="39.5603107195"><ele>151.06</ele><time>2016-12-25T07:46:41Z</time></trkpt><trkpt lat="51.7895543855" lon="39.5607943553"><ele>150.58</ele><time>2016-12-25T07:46:57Z</time></trkpt><trkpt lat="51.7895619292" lon="39.5608038269"><ele>150.58</ele><time>2016-12-25T07:47:02Z</time></trkpt><trkpt lat="51.7897546291" lon="39.5610924996"><ele>150.58</ele><time>2016-12-25T07:47:12Z</time></trkpt><trkpt lat="51.7904245108" lon="39.5617639739"><ele>152.51</ele><time>2016-12-25T07:47:29Z</time></trkpt><trkpt lat="51.7912764475" lon="39.5625978895"><ele>152.51</ele><time>2016-12-25T07:47:48Z</time></trkpt><trkpt lat="51.7922025640" lon="39.5635127742"><ele>152.99</ele><time>2016-12-25T07:48:08Z</time></trkpt><trkpt lat="51.7932791356" lon="39.5645688940"><ele>152.51</ele><time>2016-12-25T07:48:31Z</time></trkpt><trkpt lat="51.7941859737" lon="39.5654410310"><ele>152.03</ele><time>2016-12-25T07:48:50Z</time></trkpt><trkpt lat="51.7950400058" lon="39.5662813168"><ele>152.51</ele><time>2016-12-25T07:49:08Z</time></trkpt><trkpt lat="51.7960045952" lon="39.5672283880"><ele>152.03</ele><time>2016-12-25T07:49:27Z</time></trkpt><trkpt lat="51.7971267644" lon="39.5683417562"><ele>152.03</ele><time>2016-12-25T07:49:49Z</time></trkpt><trkpt lat="51.7983871512" lon="39.5695584733"><ele>153.95</ele><time>2016-12-25T07:50:14Z</time></trkpt><trkpt lat="51.7995367292" lon="39.5705907885"><ele>152.99</ele><time>2016-12-25T07:50:36Z</time></trkpt><trkpt lat="51.8008740619" lon="39.5714086946"><ele>152.03</ele><time>2016-12-25T07:51:00Z</time></trkpt><trkpt lat="51.8019844964" lon="39.5719828550"><ele>150.10</ele><time>2016-12-25T07:51:20Z</time></trkpt><trkpt lat="51.8032702804" lon="39.5725636370"><ele>149.62</ele><time>2016-12-25T07:51:43Z</time></trkpt><trkpt lat="51.8045015819" lon="39.5730367117"><ele>149.62</ele><time>2016-12-25T07:52:05Z</time></trkpt><trkpt lat="51.8057751283" lon="39.5733178407"><ele>149.14</ele><time>2016-12-25T07:52:27Z</time></trkpt><trkpt lat="51.8067413103" lon="39.5734848920"><ele>150.10</ele><time>2016-12-25T07:52:44Z</time></trkpt><trkpt lat="51.8077892158" lon="39.5736816991"><ele>150.10</ele><time>2016-12-25T07:53:02Z</time></trkpt><trkpt lat="51.8089938629" lon="39.5738884807"><ele>149.14</ele><time>2016-12-25T07:53:24Z</time></trkpt><trkpt lat="51.8099360727" lon="39.5740565378"><ele>148.66</ele><time>2016-12-25T07:53:42Z</time></trkpt><trkpt lat="51.8109119777" lon="39.5742210746"><ele>148.66</ele><time>2016-12-25T07:54:00Z</time></trkpt><trkpt lat="51.8118765671" lon="39.5743949153"><ele>149.14</ele><time>2016-12-25T07:54:18Z</time></trkpt><trkpt lat="51.8131144065" lon="39.5747430157"><ele>149.62</ele><time>2016-12-25T07:54:41Z</time></trkpt><trkpt lat="51.8143683393" lon="39.5751477778"><ele>150.10</ele><time>2016-12-25T07:55:06Z</time></trkpt><trkpt lat="51.8153550569" lon="39.5753813814"><ele>150.58</ele><time>2016-12-25T07:55:26Z</time></trkpt><trkpt lat="51.8161264434" lon="39.5754658710"><ele>151.06</ele><time>2016-12-25T07:55:43Z</time></trkpt><trkpt lat="51.8164777290" lon="39.5752701536"><ele>151.06</ele><time>2016-12-25T07:55:54Z</time></trkpt><trkpt lat="51.8163540959" lon="39.5747359749"><ele>150.58</ele><time>2016-12-25T07:56:03Z</time></trkpt><trkpt lat="51.8163439538" lon="39.5746747032"><ele>150.58</ele><time>2016-12-25T07:56:04Z</time></trkpt><trkpt lat="51.8163417745" lon="39.5746068098"><ele>150.10</ele><time>2016-12-25T07:56:05Z</time></trkpt><trkpt lat="51.8163445406" lon="39.5745519921"><ele>150.10</ele><time>2016-12-25T07:56:06Z</time></trkpt><trkpt lat="51.8163479771" lon="39.5745046344"><ele>150.10</ele><time>2016-12-25T07:56:07Z</time></trkpt><trkpt lat="51.8165001925" lon="39.5740618184"><ele>150.10</ele><time>2016-12-25T07:56:18Z</time></trkpt><trkpt lat="51.8167948164" lon="39.5738635864"><ele>152.03</ele><time>2016-12-25T07:56:29Z</time></trkpt><trkpt lat="51.8175959587" lon="39.5739957690"><ele>152.99</ele><time>2016-12-25T07:56:48Z</time></trkpt><trkpt lat="51.8184251804" lon="39.5741249342"><ele>154.43</ele><time>2016-12-25T07:57:08Z</time></trkpt><trkpt lat="51.8191609439" lon="39.5742049813"><ele>154.43</ele><time>2016-12-25T07:57:24Z</time></trkpt><trkpt lat="51.8195723277" lon="39.5743034687"><ele>154.43</ele><time>2016-12-25T07:57:33Z</time></trkpt><trkpt lat="51.8196179252" lon="39.5743105933"><ele>154.43</ele><time>2016-12-25T07:57:34Z</time></trkpt><trkpt lat="51.8204783276" lon="39.5744279400"><ele>153.95</ele><time>2016-12-25T07:57:52Z</time></trkpt><trkpt lat="51.8212315254" lon="39.5745568536"><ele>154.43</ele><time>2016-12-25T07:58:08Z</time></trkpt><trkpt lat="51.8215511274" lon="39.5745795686"><ele>154.43</ele><time>2016-12-25T07:58:15Z</time></trkpt><trkpt lat="51.8219148181" lon="39.5749176107"><ele>153.95</ele><time>2016-12-25T07:58:25Z</time></trkpt><trkpt lat="51.8219537102" lon="39.5749526471"><ele>154.43</ele><time>2016-12-25T07:58:26Z</time></trkpt><trkpt lat="51.8219951168" lon="39.5749817323"><ele>154.43</ele><time>2016-12-25T07:58:27Z</time></trkpt><trkpt lat="51.8220384512" lon="39.5750057045"><ele>154.43</ele><time>2016-12-25T07:58:28Z</time></trkpt><trkpt lat="51.8220826238" lon="39.5750255696"><ele>154.43</ele><time>2016-12-25T07:58:29Z</time></trkpt><trkpt lat="51.8221278023" lon="39.5750445966"><ele>154.43</ele><time>2016-12-25T07:58:30Z</time></trkpt><trkpt lat="51.8228864484" lon="39.5753617678"><ele>152.99</ele><time>2016-12-25T07:58:47Z</time></trkpt><trkpt lat="51.8231632188" lon="39.5757449046"><ele>153.95</ele><time>2016-12-25T07:58:57Z</time></trkpt><trkpt lat="51.8232742790" lon="39.5757927652"><ele>153.95</ele><time>2016-12-25T07:59:00Z</time></trkpt><trkpt lat="51.8234686553" lon="39.5758110378"><ele>154.43</ele><time>2016-12-25T07:59:05Z</time></trkpt><trkpt lat="51.8235059548" lon="39.5758185815"><ele>154.43</ele><time>2016-12-25T07:59:06Z</time></trkpt><trkpt lat="51.8235415779" lon="39.5758346748"><ele>154.43</ele><time>2016-12-25T07:59:07Z</time></trkpt><trkpt lat="51.8235768657" lon="39.5758581441"><ele>154.43</ele><time>2016-12-25T07:59:08Z</time></trkpt><trkpt lat="51.8236113153" lon="39.5758888219"><ele>154.43</ele><time>2016-12-25T07:59:09Z</time></trkpt><trkpt lat="51.8236452620" lon="39.5759241935"><ele>154.43</ele><time>2016-12-25T07:59:10Z</time></trkpt><trkpt lat="51.8236769456" lon="39.5759595651"><ele>154.43</ele><time>2016-12-25T07:59:11Z</time></trkpt><trkpt lat="51.8237796240" lon="39.5760586392"><ele>154.43</ele><time>2016-12-25T07:59:14Z</time></trkpt><trkpt lat="51.8241403811" lon="39.5762591343"><ele>153.95</ele><time>2016-12-25T07:59:23Z</time></trkpt><trkpt lat="51.8241762556" lon="39.5762894768"><ele>153.95</ele><time>2016-12-25T07:59:24Z</time></trkpt><trkpt lat="51.8242112920" lon="39.5763236750"><ele>153.95</ele><time>2016-12-25T07:59:25Z</time></trkpt><trkpt lat="51.8246748112" lon="39.5770944748"><ele>154.91</ele><time>2016-12-25T07:59:41Z</time></trkpt><trkpt lat="51.8250860274" lon="39.5780314039"><ele>154.43</ele><time>2016-12-25T07:59:57Z</time></trkpt><trkpt lat="51.8254970759" lon="39.5789898746"><ele>155.39</ele><time>2016-12-25T08:00:14Z</time></trkpt><trkpt lat="51.8257768638" lon="39.5796004124"><ele>154.43</ele><time>2016-12-25T08:00:27Z</time></trkpt><trkpt lat="51.8262630980" lon="39.5804645028"><ele>154.43</ele><time>2016-12-25T08:00:43Z</time></trkpt><trkpt lat="51.8267885596" lon="39.5814029407"><ele>153.95</ele><time>2016-12-25T08:01:00Z</time></trkpt><trkpt lat="51.8268279545" lon="39.5814459398"><ele>153.95</ele><time>2016-12-25T08:01:01Z</time></trkpt><trkpt lat="51.8268718757" lon="39.5814864244"><ele>153.95</ele><time>2016-12-25T08:01:02Z</time></trkpt><trkpt lat="51.8275338784" lon="39.5820768457"><ele>154.43</ele><time>2016-12-25T08:01:17Z</time></trkpt><trkpt lat="51.8283109646" lon="39.5827634912"><ele>153.95</ele><time>2016-12-25T08:01:35Z</time></trkpt><trkpt lat="51.8290432077" lon="39.5833847579"><ele>153.95</ele><time>2016-12-25T08:01:53Z</time></trkpt><trkpt lat="51.8297327030" lon="39.5840982255"><ele>153.47</ele><time>2016-12-25T08:02:11Z</time></trkpt><trkpt lat="51.8304282334" lon="39.5847624913"><ele>153.95</ele><time>2016-12-25T08:02:29Z</time></trkpt><trkpt lat="51.8309436366" lon="39.5853432734"><ele>153.95</ele><time>2016-12-25T08:02:44Z</time></trkpt><trkpt lat="51.8311965186" lon="39.5856415015"><ele>154.43</ele><time>2016-12-25T08:02:56Z</time></trkpt><trkpt lat="51.8314279430" lon="39.5859349519"><ele>154.43</ele><time>2016-12-25T08:03:07Z</time></trkpt><trkpt lat="51.8314229138" lon="39.5859758556"><ele>154.43</ele><time>2016-12-25T08:03:08Z</time></trkpt><trkpt lat="51.8314093351" lon="39.5860136580"><ele>154.43</ele><time>2016-12-25T08:03:09Z</time></trkpt><trkpt lat="51.8313944992" lon="39.5860435814"><ele>154.43</ele><time>2016-12-25T08:03:10Z</time></trkpt><trkpt lat="51.8313489854" lon="39.5860946272"><ele>154.43</ele><time>2016-12-25T08:03:12Z</time></trkpt><trkpt lat="51.8313271087" lon="39.5861274004"><ele>154.43</ele><time>2016-12-25T08:03:13Z</time></trkpt><trkpt lat="51.8313097581" lon="39.5861623529"><ele>154.43</ele><time>2016-12-25T08:03:14Z</time></trkpt><trkpt lat="51.8312963471" lon="39.5862011611"><ele>154.43</ele><time>2016-12-25T08:03:15Z</time></trkpt><trkpt lat="51.8312882166" lon="39.5862465072"><ele>154.43</ele><time>2016-12-25T08:03:16Z</time></trkpt><trkpt lat="51.8312834390" lon="39.5862911828"><ele>154.43</ele><time>2016-12-25T08:03:17Z</time></trkpt><trkpt lat="51.8311909027" lon="39.5865788497"><ele>153.95</ele><time>2016-12-25T08:03:29Z</time></trkpt><trkpt lat="51.8312074989" lon="39.5865822025"><ele>153.95</ele><time>2016-12-25T08:03:31Z</time></trkpt><trkpt lat="51.8312199879" lon="39.5865862258"><ele>154.43</ele><time>2016-12-25T08:03:32Z</time></trkpt><trkpt lat="51.8312350754" lon="39.5865848847"><ele>154.43</ele><time>2016-12-25T08:03:33Z</time></trkpt><trkpt lat="51.8312517554" lon="39.5865873154"><ele>154.43</ele><time>2016-12-25T08:03:34Z</time></trkpt><trkpt lat="51.8312672619" lon="39.5865908358"><ele>154.43</ele><time>2016-12-25T08:03:35Z</time></trkpt><trkpt lat="51.8315414339" lon="39.5867349207"><ele>156.35</ele><time>2016-12-25T08:03:46Z</time></trkpt><trkpt lat="51.8317007739" lon="39.5867748186"><ele>156.35</ele><time>2016-12-25T08:03:58Z</time></trkpt><trkpt lat="51.8317146879" lon="39.5867880620"><ele>156.35</ele><time>2016-12-25T08:04:20Z</time></trkpt><trkpt lat="51.8317093235" lon="39.5867872238"><ele>161.16</ele><time>2016-12-25T08:04:52Z</time></trkpt><trkpt lat="51.8316936493" lon="39.5867821109"><ele>159.24</ele><time>2016-12-25T08:05:22Z</time></trkpt><trkpt lat="51.8316730298" lon="39.5867812727"><ele>159.24</ele><time>2016-12-25T08:05:55Z</time></trkpt><trkpt lat="51.8317593634" lon="39.5867764112"><ele>158.75</ele><time>2016-12-25T08:06:18Z</time></trkpt><trkpt lat="51.8321887683" lon="39.5868717134"><ele>159.24</ele><time>2016-12-25T08:06:33Z</time></trkpt><trkpt lat="51.8327689636" lon="39.5871949196"><ele>159.24</ele><time>2016-12-25T08:06:49Z</time></trkpt><trkpt lat="51.8331165612" lon="39.5876075607"><ele>160.20</ele><time>2016-12-25T08:07:02Z</time></trkpt><trkpt lat="51.8334204052" lon="39.5877641346"><ele>159.72</ele><time>2016-12-25T08:07:12Z</time></trkpt><trkpt lat="51.8337270990" lon="39.5879775379"><ele>160.20</ele><time>2016-12-25T08:07:22Z</time></trkpt><trkpt lat="51.8339584395" lon="39.5885104593"><ele>159.24</ele><time>2016-12-25T08:07:33Z</time></trkpt><trkpt lat="51.8343221303" lon="39.5890482422"><ele>158.27</ele><time>2016-12-25T08:07:47Z</time></trkpt><trkpt lat="51.8348397966" lon="39.5892563649"><ele>157.79</ele><time>2016-12-25T08:08:02Z</time></trkpt><trkpt lat="51.8351760786" lon="39.5891587157"><ele>159.24</ele><time>2016-12-25T08:08:13Z</time></trkpt><trkpt lat="51.8355608080" lon="39.5889698714"><ele>159.72</ele><time>2016-12-25T08:08:24Z</time></trkpt><trkpt lat="51.8359878659" lon="39.5888146386"><ele>159.24</ele><time>2016-12-25T08:08:37Z</time></trkpt><trkpt lat="51.8365233019" lon="39.5890947618"><ele>161.64</ele><time>2016-12-25T08:08:52Z</time></trkpt><trkpt lat="51.8368646968" lon="39.5893740468"><ele>162.60</ele><time>2016-12-25T08:09:03Z</time></trkpt><trkpt lat="51.8372143898" lon="39.5896386635"><ele>163.56</ele><time>2016-12-25T08:09:14Z</time></trkpt><trkpt lat="51.8376877997" lon="39.5898176171"><ele>163.08</ele><time>2016-12-25T08:09:27Z</time></trkpt><trkpt lat="51.8381747045" lon="39.5899973251"><ele>163.08</ele><time>2016-12-25T08:09:40Z</time></trkpt><trkpt lat="51.8384984974" lon="39.5902924519"><ele>165.00</ele><time>2016-12-25T08:09:50Z</time></trkpt><trkpt lat="51.8385669775" lon="39.5903947111"><ele>166.45</ele><time>2016-12-25T08:09:53Z</time></trkpt><trkpt lat="51.8385995831" lon="39.5904154144"><ele>166.45</ele><time>2016-12-25T08:09:54Z</time></trkpt><trkpt lat="51.8386333622" lon="39.5904229581"><ele>166.93</ele><time>2016-12-25T08:09:55Z</time></trkpt><trkpt lat="51.8386695720" lon="39.5904186834"><ele>166.93</ele><time>2016-12-25T08:09:56Z</time></trkpt><trkpt lat="51.8387049437" lon="39.5904077869"><ele>167.89</ele><time>2016-12-25T08:09:57Z</time></trkpt><trkpt lat="51.8389413133" lon="39.5904530492"><ele>168.85</ele><time>2016-12-25T08:10:06Z</time></trkpt><trkpt lat="51.8393512722" lon="39.5906653628"><ele>171.25</ele><time>2016-12-25T08:10:17Z</time></trkpt><trkpt lat="51.8399090040" lon="39.5908408798"><ele>170.29</ele><time>2016-12-25T08:10:31Z</time></trkpt><trkpt lat="51.8403710984" lon="39.5911262836"><ele>170.29</ele><time>2016-12-25T08:10:43Z</time></trkpt><trkpt lat="51.8404097389" lon="39.5911447238"><ele>169.81</ele><time>2016-12-25T08:10:44Z</time></trkpt><trkpt lat="51.8411670439" lon="39.5914827660"><ele>171.25</ele><time>2016-12-25T08:11:03Z</time></trkpt><trkpt lat="51.8416288868" lon="39.5916932356"><ele>170.29</ele><time>2016-12-25T08:11:16Z</time></trkpt><trkpt lat="51.8421348184" lon="39.5919711795"><ele>169.33</ele><time>2016-12-25T08:11:31Z</time></trkpt><trkpt lat="51.8426944781" lon="39.5922555774"><ele>168.37</ele><time>2016-12-25T08:11:47Z</time></trkpt><trkpt lat="51.8432675488" lon="39.5926052704"><ele>165.48</ele><time>2016-12-25T08:12:03Z</time></trkpt><trkpt lat="51.8435490131" lon="39.5929708052"><ele>164.04</ele><time>2016-12-25T08:12:15Z</time></trkpt><trkpt lat="51.8439251091" lon="39.5929495152"><ele>163.08</ele><time>2016-12-25T08:12:27Z</time></trkpt><trkpt lat="51.8442961760" lon="39.5932168979"><ele>162.12</ele><time>2016-12-25T08:12:39Z</time></trkpt><trkpt lat="51.8443142809" lon="39.5937107597"><ele>163.08</ele><time>2016-12-25T08:12:49Z</time></trkpt><trkpt lat="51.8445252534" lon="39.5941346325"><ele>162.12</ele><time>2016-12-25T08:13:00Z</time></trkpt><trkpt lat="51.8448439334" lon="39.5941349678"><ele>163.08</ele><time>2016-12-25T08:13:10Z</time></trkpt><trkpt lat="51.8453316763" lon="39.5941205509"><ele>162.12</ele><time>2016-12-25T08:13:23Z</time></trkpt><trkpt lat="51.8456379510" lon="39.5942784660"><ele>163.56</ele><time>2016-12-25T08:13:31Z</time></trkpt><trkpt lat="51.8461421225" lon="39.5944999158"><ele>164.52</ele><time>2016-12-25T08:13:44Z</time></trkpt><trkpt lat="51.8464294542" lon="39.5945691504"><ele>166.45</ele><time>2016-12-25T08:13:55Z</time></trkpt><trkpt lat="51.8466602918" lon="39.5944259036"><ele>165.48</ele><time>2016-12-25T08:14:06Z</time></trkpt><trkpt lat="51.8467914686" lon="39.5944865048"><ele>163.56</ele><time>2016-12-25T08:14:18Z</time></trkpt><trkpt lat="51.8469824083" lon="39.5946056955"><ele>161.64</ele><time>2016-12-25T08:14:31Z</time></trkpt><trkpt lat="51.8471865915" lon="39.5948685519"><ele>161.64</ele><time>2016-12-25T08:14:41Z</time></trkpt><trkpt lat="51.8476196844" lon="39.5949368645"><ele>162.12</ele><time>2016-12-25T08:14:54Z</time></trkpt><trkpt lat="51.8479117937" lon="39.5949683804"><ele>163.08</ele><time>2016-12-25T08:15:03Z</time></trkpt><trkpt lat="51.8482680246" lon="39.5951374434"><ele>162.12</ele><time>2016-12-25T08:15:15Z</time></trkpt><trkpt lat="51.8486157060" lon="39.5952916704"><ele>161.16</ele><time>2016-12-25T08:15:27Z</time></trkpt><trkpt lat="51.8489986751" lon="39.5954895671"><ele>161.16</ele><time>2016-12-25T08:15:41Z</time></trkpt><trkpt lat="51.8493866734" lon="39.5956753101"><ele>161.16</ele><time>2016-12-25T08:15:54Z</time></trkpt><trkpt lat="51.8496396393" lon="39.5959478896"><ele>160.68</ele><time>2016-12-25T08:16:05Z</time></trkpt><trkpt lat="51.8500605784" lon="39.5961745363"><ele>161.64</ele><time>2016-12-25T08:16:19Z</time></trkpt><trkpt lat="51.8505520094" lon="39.5964534860"><ele>165.00</ele><time>2016-12-25T08:16:35Z</time></trkpt><trkpt lat="51.8509756308" lon="39.5967170969"><ele>166.45</ele><time>2016-12-25T08:16:49Z</time></trkpt><trkpt lat="51.8513889425" lon="39.5968750957"><ele>167.41</ele><time>2016-12-25T08:17:01Z</time></trkpt><trkpt lat="51.8518820498" lon="39.5971323363"><ele>166.45</ele><time>2016-12-25T08:17:15Z</time></trkpt><trkpt lat="51.8524505943" lon="39.5974264573"><ele>164.52</ele><time>2016-12-25T08:17:31Z</time></trkpt><trkpt lat="51.8530307058" lon="39.5977131184"><ele>165.00</ele><time>2016-12-25T08:17:47Z</time></trkpt><trkpt lat="51.8535646331" lon="39.5978703629"><ele>164.04</ele><time>2016-12-25T08:18:02Z</time></trkpt><trkpt lat="51.8538963050" lon="39.5980380010"><ele>161.64</ele><time>2016-12-25T08:18:13Z</time></trkpt><trkpt lat="51.8541357759" lon="39.5984736085"><ele>162.12</ele><time>2016-12-25T08:18:26Z</time></trkpt><trkpt lat="51.8544919230" lon="39.5988251455"><ele>163.08</ele><time>2016-12-25T08:18:40Z</time></trkpt><trkpt lat="51.8548992835" lon="39.5991157461"><ele>162.60</ele><time>2016-12-25T08:18:55Z</time></trkpt><trkpt lat="51.8552157842" lon="39.5992319193"><ele>160.68</ele><time>2016-12-25T08:19:05Z</time></trkpt><trkpt lat="51.8554158602" lon="39.5991917700"><ele>162.12</ele><time>2016-12-25T08:19:14Z</time></trkpt><trkpt lat="51.8557704147" lon="39.5990708191"><ele>166.93</ele><time>2016-12-25T08:19:26Z</time></trkpt><trkpt lat="51.8560709059" lon="39.5993293170"><ele>169.33</ele><time>2016-12-25T08:19:39Z</time></trkpt><trkpt lat="51.8562237080" lon="39.5993480925"><ele>169.33</ele><time>2016-12-25T08:19:48Z</time></trkpt><trkpt lat="51.8562838901" lon="39.5993288141"><ele>168.37</ele><time>2016-12-25T08:19:57Z</time></trkpt><trkpt lat="51.8563058507" lon="39.5993547142"><ele>166.45</ele><time>2016-12-25T08:20:10Z</time></trkpt><trkpt lat="51.8563226983" lon="39.5993759204"><ele>165.00</ele><time>2016-12-25T08:20:22Z</time></trkpt><trkpt lat="51.8563444912" lon="39.5993915107"><ele>163.08</ele><time>2016-12-25T08:20:48Z</time></trkpt><trkpt lat="51.8563072756" lon="39.5994055923"><ele>165.48</ele><time>2016-12-25T08:21:21Z</time></trkpt><trkpt lat="51.8563513644" lon="39.5994370244"><ele>165.48</ele><time>2016-12-25T08:21:59Z</time></trkpt><trkpt lat="51.8563523702" lon="39.5994494297"><ele>160.20</ele><time>2016-12-25T08:22:40Z</time></trkpt><trkpt lat="51.8562924396" lon="39.5994269662"><ele>164.04</ele><time>2016-12-25T08:23:19Z</time></trkpt><trkpt lat="51.8563476764" lon="39.5993430633"><ele>165.96</ele><time>2016-12-25T08:23:45Z</time></trkpt><trkpt lat="51.8564664479" lon="39.5993564744"><ele>163.56</ele><time>2016-12-25T08:23:58Z</time></trkpt><trkpt lat="51.8565325812" lon="39.5993903372"><ele>162.12</ele><time>2016-12-25T08:24:01Z</time></trkpt><trkpt lat="51.8565506022" lon="39.5994025748"><ele>162.12</ele><time>2016-12-25T08:24:02Z</time></trkpt><trkpt lat="51.8568572961" lon="39.5995327458"><ele>165.48</ele><time>2016-12-25T08:24:14Z</time></trkpt><trkpt lat="51.8571356591" lon="39.5996835362"><ele>164.04</ele><time>2016-12-25T08:24:27Z</time></trkpt><trkpt lat="51.8574328814" lon="39.5997900702"><ele>161.16</ele><time>2016-12-25T08:24:41Z</time></trkpt><trkpt lat="51.8578174431" lon="39.5999427885"><ele>161.16</ele><time>2016-12-25T08:24:56Z</time></trkpt><trkpt lat="51.8582470156" lon="39.6002162900"><ele>160.68</ele><time>2016-12-25T08:25:13Z</time></trkpt><trkpt lat="51.8585852254" lon="39.6003815811"><ele>158.75</ele><time>2016-12-25T08:25:26Z</time></trkpt><trkpt lat="51.8590001296" lon="39.6006236505"><ele>159.72</ele><time>2016-12-25T08:25:41Z</time></trkpt><trkpt lat="51.8593038060" lon="39.6007646341"><ele>159.72</ele><time>2016-12-25T08:25:51Z</time></trkpt><trkpt lat="51.8597128429" lon="39.6009892691"><ele>161.64</ele><time>2016-12-25T08:26:04Z</time></trkpt><trkpt lat="51.8598120846" lon="39.6010350343"><ele>162.60</ele><time>2016-12-25T08:26:08Z</time></trkpt><trkpt lat="51.8598254956" lon="39.6010462660"><ele>162.60</ele><time>2016-12-25T08:26:09Z</time></trkpt><trkpt lat="51.8598420080" lon="39.6010562405"><ele>162.60</ele><time>2016-12-25T08:26:10Z</time></trkpt><trkpt lat="51.8598630466" lon="39.6010664664"><ele>162.60</ele><time>2016-12-25T08:26:11Z</time></trkpt><trkpt lat="51.8598879408" lon="39.6010790393"><ele>163.08</ele><time>2016-12-25T08:26:12Z</time></trkpt><trkpt lat="51.8599094823" lon="39.6010918636"><ele>163.08</ele><time>2016-12-25T08:26:13Z</time></trkpt><trkpt lat="51.8600615300" lon="39.6011764370"><ele>164.52</ele><time>2016-12-25T08:26:21Z</time></trkpt><trkpt lat="51.8600723427" lon="39.6011869982"><ele>164.04</ele><time>2016-12-25T08:26:22Z</time></trkpt><trkpt lat="51.8600855023" lon="39.6011949610"><ele>164.04</ele><time>2016-12-25T08:26:23Z</time></trkpt><trkpt lat="51.8601039425" lon="39.6012035944"><ele>164.52</ele><time>2016-12-25T08:26:24Z</time></trkpt><trkpt lat="51.8601261545" lon="39.6012172569"><ele>164.04</ele><time>2016-12-25T08:26:25Z</time></trkpt><trkpt lat="51.8601492047" lon="39.6012288239"><ele>164.04</ele><time>2016-12-25T08:26:26Z</time></trkpt><trkpt lat="51.8601756915" lon="39.6012417320"><ele>164.04</ele><time>2016-12-25T08:26:27Z</time></trkpt><trkpt lat="51.8605669588" lon="39.6014825441"><ele>165.00</ele><time>2016-12-25T08:26:42Z</time></trkpt><trkpt lat="51.8606738281" lon="39.6014629304"><ele>163.56</ele><time>2016-12-25T08:26:53Z</time></trkpt><trkpt lat="51.8607287295" lon="39.6014340967"><ele>161.64</ele><time>2016-12-25T08:27:02Z</time></trkpt><trkpt lat="51.8607596587" lon="39.6013287362"><ele>162.12</ele><time>2016-12-25T08:27:15Z</time></trkpt><trkpt lat="51.8607662804" lon="39.6013123076"><ele>161.16</ele><time>2016-12-25T08:27:22Z</time></trkpt><trkpt lat="51.8607690465" lon="39.6012880839"><ele>161.16</ele><time>2016-12-25T08:27:23Z</time></trkpt><trkpt lat="51.8607751653" lon="39.6012556460"><ele>161.16</ele><time>2016-12-25T08:27:24Z</time></trkpt><trkpt lat="51.8607795238" lon="39.6012242977"><ele>160.68</ele><time>2016-12-25T08:27:25Z</time></trkpt><trkpt lat="51.8607833795" lon="39.6011804603"><ele>160.68</ele><time>2016-12-25T08:27:26Z</time></trkpt><trkpt lat="51.8608656060" lon="39.6005023643"><ele>159.72</ele><time>2016-12-25T08:27:39Z</time></trkpt><trkpt lat="51.8610151391" lon="39.5996998809"><ele>158.75</ele><time>2016-12-25T08:27:56Z</time></trkpt><trkpt lat="51.8611434661" lon="39.5991469268"><ele>158.75</ele><time>2016-12-25T08:28:12Z</time></trkpt><trkpt lat="51.8612802587" lon="39.5984615386"><ele>158.27</ele><time>2016-12-25T08:28:27Z</time></trkpt><trkpt lat="51.8614016287" lon="39.5977563690"><ele>157.79</ele><time>2016-12-25T08:28:43Z</time></trkpt><trkpt lat="51.8615747150" lon="39.5968463458"><ele>157.79</ele><time>2016-12-25T08:29:02Z</time></trkpt><trkpt lat="51.8616043031" lon="39.5965067949"><ele>157.79</ele><time>2016-12-25T08:29:14Z</time></trkpt><trkpt lat="51.8615784030" lon="39.5962814055"><ele>157.31</ele><time>2016-12-25T08:29:26Z</time></trkpt><trkpt lat="51.8616166245" lon="39.5957061555"><ele>157.79</ele><time>2016-12-25T08:29:40Z</time></trkpt><trkpt lat="51.8618039601" lon="39.5952646807"><ele>159.72</ele><time>2016-12-25T08:29:53Z</time></trkpt><trkpt lat="51.8620092329" lon="39.5945759397"><ele>158.75</ele><time>2016-12-25T08:30:07Z</time></trkpt><trkpt lat="51.8622620311" lon="39.5933552831"><ele>156.83</ele><time>2016-12-25T08:30:26Z</time></trkpt><trkpt lat="51.8624692317" lon="39.5921953954"><ele>156.35</ele><time>2016-12-25T08:30:45Z</time></trkpt><trkpt lat="51.8627211079" lon="39.5909257885"><ele>153.95</ele><time>2016-12-25T08:31:07Z</time></trkpt><trkpt lat="51.8629014026" lon="39.5898866002"><ele>153.47</ele><time>2016-12-25T08:31:25Z</time></trkpt><trkpt lat="51.8630215153" lon="39.5893793274"><ele>154.43</ele><time>2016-12-25T08:31:38Z</time></trkpt><trkpt lat="51.8630401231" lon="39.5893041417"><ele>154.43</ele><time>2016-12-25T08:31:44Z</time></trkpt><trkpt lat="51.8630417995" lon="39.5892847795"><ele>154.43</ele><time>2016-12-25T08:31:45Z</time></trkpt><trkpt lat="51.8630435597" lon="39.5892638247"><ele>154.43</ele><time>2016-12-25T08:31:46Z</time></trkpt><trkpt lat="51.8630714715" lon="39.5891166385"><ele>154.91</ele><time>2016-12-25T08:31:56Z</time></trkpt><trkpt lat="51.8631433882" lon="39.5887893252"><ele>157.31</ele><time>2016-12-25T08:32:09Z</time></trkpt><trkpt lat="51.8632358406" lon="39.5882903505"><ele>156.83</ele><time>2016-12-25T08:32:24Z</time></trkpt><trkpt lat="51.8633834459" lon="39.5877249073"><ele>155.39</ele><time>2016-12-25T08:32:38Z</time></trkpt><trkpt lat="51.8635999504" lon="39.5868398622"><ele>152.99</ele><time>2016-12-25T08:32:57Z</time></trkpt><trkpt lat="51.8636627309" lon="39.5865851361"><ele>152.03</ele><time>2016-12-25T08:33:09Z</time></trkpt><trkpt lat="51.8636805005" lon="39.5865960326"><ele>152.03</ele><time>2016-12-25T08:33:12Z</time></trkpt><trkpt lat="51.8636914808" lon="39.5865966193"><ele>152.03</ele><time>2016-12-25T08:33:13Z</time></trkpt><trkpt lat="51.8637064844" lon="39.5865980443"><ele>152.51</ele><time>2016-12-25T08:33:14Z</time></trkpt><trkpt lat="51.8640384078" lon="39.5866003912"><ele>153.47</ele><time>2016-12-25T08:33:26Z</time></trkpt><trkpt lat="51.8644157611" lon="39.5867193304"><ele>153.95</ele><time>2016-12-25T08:33:38Z</time></trkpt><trkpt lat="51.8646198604" lon="39.5870069135"><ele>153.47</ele><time>2016-12-25T08:33:51Z</time></trkpt><trkpt lat="51.8646320142" lon="39.5870112721"><ele>153.95</ele><time>2016-12-25T08:33:52Z</time></trkpt><trkpt lat="51.8649690505" lon="39.5871485677"><ele>155.39</ele><time>2016-12-25T08:34:05Z</time></trkpt><trkpt lat="51.8654598948" lon="39.5871581230"><ele>157.79</ele><time>2016-12-25T08:34:21Z</time></trkpt><trkpt lat="51.8661021162" lon="39.5871338993"><ele>157.31</ele><time>2016-12-25T08:34:40Z</time></trkpt><trkpt lat="51.8666466046" lon="39.5872115158"><ele>157.79</ele><time>2016-12-25T08:34:56Z</time></trkpt><trkpt lat="51.8670313340" lon="39.5871842746"><ele>156.35</ele><time>2016-12-25T08:35:08Z</time></trkpt><trkpt lat="51.8674409576" lon="39.5871390123"><ele>157.79</ele><time>2016-12-25T08:35:22Z</time></trkpt><trkpt lat="51.8678650819" lon="39.5872457139"><ele>157.79</ele><time>2016-12-25T08:35:36Z</time></trkpt><trkpt lat="51.8682179600" lon="39.5874996018"><ele>158.75</ele><time>2016-12-25T08:35:49Z</time></trkpt><trkpt lat="51.8685435131" lon="39.5875882823"><ele>160.68</ele><time>2016-12-25T08:36:00Z</time></trkpt><trkpt lat="51.8688951340" lon="39.5876981691"><ele>164.04</ele><time>2016-12-25T08:36:13Z</time></trkpt><trkpt lat="51.8692963757" lon="39.5877997577"><ele>166.45</ele><time>2016-12-25T08:36:27Z</time></trkpt><trkpt lat="51.8696375191" lon="39.5879157633"><ele>165.00</ele><time>2016-12-25T08:36:39Z</time></trkpt><trkpt lat="51.8699912354" lon="39.5880138315"><ele>161.16</ele><time>2016-12-25T08:36:52Z</time></trkpt><trkpt lat="51.8702368252" lon="39.5881318487"><ele>158.75</ele><time>2016-12-25T08:37:04Z</time></trkpt><trkpt lat="51.8706384022" lon="39.5886389539"><ele>157.31</ele><time>2016-12-25T08:37:20Z</time></trkpt><trkpt lat="51.8710397277" lon="39.5891645830"><ele>155.87</ele><time>2016-12-25T08:37:37Z</time></trkpt><trkpt lat="51.8713674601" lon="39.5895771403"><ele>154.91</ele><time>2016-12-25T08:37:51Z</time></trkpt><trkpt lat="51.8715454917" lon="39.5899993367"><ele>154.91</ele><time>2016-12-25T08:38:04Z</time></trkpt><trkpt lat="51.8717387784" lon="39.5904632751"><ele>155.87</ele><time>2016-12-25T08:38:19Z</time></trkpt><trkpt lat="51.8721090909" lon="39.5907530375"><ele>156.35</ele><time>2016-12-25T08:38:32Z</time></trkpt><trkpt lat="51.8729097303" lon="39.5911932550"><ele>156.35</ele><time>2016-12-25T08:38:51Z</time></trkpt><trkpt lat="51.8738733977" lon="39.5916656591"><ele>157.31</ele><time>2016-12-25T08:39:13Z</time></trkpt><trkpt lat="51.8742589653" lon="39.5918331295"><ele>157.31</ele><time>2016-12-25T08:39:26Z</time></trkpt><trkpt lat="51.8745677546" lon="39.5920446888"><ele>157.31</ele><time>2016-12-25T08:39:38Z</time></trkpt><trkpt lat="51.8750269152" lon="39.5922717545"><ele>156.35</ele><time>2016-12-25T08:39:50Z</time></trkpt><trkpt lat="51.8758990522" lon="39.5926842280"><ele>156.35</ele><time>2016-12-25T08:40:10Z</time></trkpt><trkpt lat="51.8759418000" lon="39.5927161630"><ele>156.35</ele><time>2016-12-25T08:40:11Z</time></trkpt><trkpt lat="51.8759819493" lon="39.5927488524"><ele>156.35</ele><time>2016-12-25T08:40:12Z</time></trkpt><trkpt lat="51.8760241102" lon="39.5927778538"><ele>156.35</ele><time>2016-12-25T08:40:13Z</time></trkpt><trkpt lat="51.8760649301" lon="39.5927967131"><ele>156.35</ele><time>2016-12-25T08:40:14Z</time></trkpt><trkpt lat="51.8761053309" lon="39.5928154048"><ele>156.35</ele><time>2016-12-25T08:40:15Z</time></trkpt><trkpt lat="51.8768338021" lon="39.5931842923"><ele>156.35</ele><time>2016-12-25T08:40:32Z</time></trkpt><trkpt lat="51.8773966469" lon="39.5933655091"><ele>157.31</ele><time>2016-12-25T08:40:47Z</time></trkpt><trkpt lat="51.8774538115" lon="39.5932158083"><ele>157.79</ele><time>2016-12-25T08:40:50Z</time></trkpt><trkpt lat="51.8774653785" lon="39.5931527764"><ele>157.79</ele><time>2016-12-25T08:40:51Z</time></trkpt><trkpt lat="51.8777543865" lon="39.5916030463"><ele>156.83</ele><time>2016-12-25T08:41:13Z</time></trkpt><trkpt lat="51.8779961206" lon="39.5903192740"><ele>155.87</ele><time>2016-12-25T08:41:32Z</time></trkpt><trkpt lat="51.8781878147" lon="39.5894705225"><ele>155.87</ele><time>2016-12-25T08:41:48Z</time></trkpt><trkpt lat="51.8782887328" lon="39.5890614018"><ele>156.35</ele><time>2016-12-25T08:41:59Z</time></trkpt><trkpt lat="51.8782832846" lon="39.5890267845"><ele>156.83</ele><time>2016-12-25T08:42:00Z</time></trkpt><trkpt lat="51.8782810215" lon="39.5889918320"><ele>156.83</ele><time>2016-12-25T08:42:01Z</time></trkpt><trkpt lat="51.8782834522" lon="39.5889596455"><ele>156.83</ele><time>2016-12-25T08:42:02Z</time></trkpt><trkpt lat="51.8782893196" lon="39.5889252797"><ele>156.83</ele><time>2016-12-25T08:42:03Z</time></trkpt><trkpt lat="51.8782966118" lon="39.5888913330"><ele>156.83</ele><time>2016-12-25T08:42:04Z</time></trkpt><trkpt lat="51.8783063348" lon="39.5888545364"><ele>156.83</ele><time>2016-12-25T08:42:05Z</time></trkpt><trkpt lat="51.8784544431" lon="39.5882126503"><ele>156.83</ele><time>2016-12-25T08:42:17Z</time></trkpt><trkpt lat="51.8785994500" lon="39.5876906253"><ele>156.35</ele><time>2016-12-25T08:42:28Z</time></trkpt><trkpt lat="51.8786300439" lon="39.5876850095"><ele>156.35</ele><time>2016-12-25T08:42:29Z</time></trkpt><trkpt lat="51.8786577880" lon="39.5876938943"><ele>156.35</ele><time>2016-12-25T08:42:30Z</time></trkpt><trkpt lat="51.8786913157" lon="39.5877131727"><ele>156.35</ele><time>2016-12-25T08:42:31Z</time></trkpt><trkpt lat="51.8787230831" lon="39.5877341274"><ele>156.35</ele><time>2016-12-25T08:42:32Z</time></trkpt><trkpt lat="51.8787572812" lon="39.5877584349"><ele>156.35</ele><time>2016-12-25T08:42:33Z</time></trkpt><trkpt lat="51.8789621349" lon="39.5879443455"><ele>156.83</ele><time>2016-12-25T08:42:39Z</time></trkpt><trkpt lat="51.8790008593" lon="39.5879754424"><ele>156.83</ele><time>2016-12-25T08:42:40Z</time></trkpt><trkpt lat="51.8798911851" lon="39.5886287279"><ele>154.91</ele><time>2016-12-25T08:43:01Z</time></trkpt><trkpt lat="51.8809284456" lon="39.5892950892"><ele>154.43</ele><time>2016-12-25T08:43:24Z</time></trkpt><trkpt lat="51.8818841502" lon="39.5898764580"><ele>154.91</ele><time>2016-12-25T08:43:45Z</time></trkpt><trkpt lat="51.8827118631" lon="39.5904662088"><ele>154.43</ele><time>2016-12-25T08:44:04Z</time></trkpt><trkpt lat="51.8836482055" lon="39.5911479928"><ele>153.47</ele><time>2016-12-25T08:44:25Z</time></trkpt><trkpt lat="51.8844761699" lon="39.5917218179"><ele>153.47</ele><time>2016-12-25T08:44:45Z</time></trkpt><trkpt lat="51.8848351669" lon="39.5917457901"><ele>154.43</ele><time>2016-12-25T08:44:58Z</time></trkpt><trkpt lat="51.8850140367" lon="39.5909002237"><ele>153.47</ele><time>2016-12-25T08:45:15Z</time></trkpt><trkpt lat="51.8851582892" lon="39.5904045179"><ele>153.47</ele><time>2016-12-25T08:45:28Z</time></trkpt><trkpt lat="51.8851799984" lon="39.5904092956"><ele>153.47</ele><time>2016-12-25T08:45:29Z</time></trkpt><trkpt lat="51.8856840022" lon="39.5906535443"><ele>153.47</ele><time>2016-12-25T08:45:44Z</time></trkpt><trkpt lat="51.8862065300" lon="39.5909009781"><ele>152.99</ele><time>2016-12-25T08:45:59Z</time></trkpt><trkpt lat="51.8866200093" lon="39.5908563025"><ele>152.99</ele><time>2016-12-25T08:46:11Z</time></trkpt><trkpt lat="51.8872370850" lon="39.5906853955"><ele>153.95</ele><time>2016-12-25T08:46:28Z</time></trkpt><trkpt lat="51.8877836689" lon="39.5904319268"><ele>153.95</ele><time>2016-12-25T08:46:43Z</time></trkpt><trkpt lat="51.8881465215" lon="39.5901987422"><ele>154.91</ele><time>2016-12-25T08:46:56Z</time></trkpt><trkpt lat="51.8886004854" lon="39.5898383204"><ele>154.43</ele><time>2016-12-25T08:47:10Z</time></trkpt><trkpt lat="51.8890718836" lon="39.5895633940"><ele>155.39</ele><time>2016-12-25T08:47:24Z</time></trkpt><trkpt lat="51.8894402683" lon="39.5893978514"><ele>155.87</ele><time>2016-12-25T08:47:35Z</time></trkpt><trkpt lat="51.8897802383" lon="39.5891738031"><ele>156.35</ele><time>2016-12-25T08:47:45Z</time></trkpt><trkpt lat="51.8901706673" lon="39.5889366791"><ele>155.87</ele><time>2016-12-25T08:47:58Z</time></trkpt><trkpt lat="51.8904953822" lon="39.5887954440"><ele>155.39</ele><time>2016-12-25T08:48:09Z</time></trkpt><trkpt lat="51.8906822987" lon="39.5885131415"><ele>155.87</ele><time>2016-12-25T08:48:19Z</time></trkpt><trkpt lat="51.8907513656" lon="39.5883599203"><ele>155.39</ele><time>2016-12-25T08:48:25Z</time></trkpt><trkpt lat="51.8908191752" lon="39.5882439148"><ele>153.95</ele><time>2016-12-25T08:48:36Z</time></trkpt><trkpt lat="51.8908623420" lon="39.5880539808"><ele>152.03</ele><time>2016-12-25T08:48:50Z</time></trkpt><trkpt lat="51.8909267988" lon="39.5878132526"><ele>151.54</ele><time>2016-12-25T08:49:06Z</time></trkpt><trkpt lat="51.8909760844" lon="39.5876559243"><ele>151.54</ele><time>2016-12-25T08:49:19Z</time></trkpt><trkpt lat="51.8910775054" lon="39.5875366498"><ele>151.54</ele><time>2016-12-25T08:49:32Z</time></trkpt><trkpt lat="51.8911811896" lon="39.5874127652"><ele>151.54</ele><time>2016-12-25T08:49:44Z</time></trkpt><trkpt lat="51.8913893960" lon="39.5873994380"><ele>150.58</ele><time>2016-12-25T08:49:54Z</time></trkpt><trkpt lat="51.8914757296" lon="39.5873835124"><ele>150.10</ele><time>2016-12-25T08:50:05Z</time></trkpt><trkpt lat="51.8915188126" lon="39.5873693470"><ele>150.58</ele><time>2016-12-25T08:50:15Z</time></trkpt><trkpt lat="51.8915146217" lon="39.5873609651"><ele>148.18</ele><time>2016-12-25T08:50:49Z</time></trkpt><trkpt lat="51.8914971873" lon="39.5873552654"><ele>150.58</ele><time>2016-12-25T08:51:28Z</time></trkpt><trkpt lat="51.8915080000" lon="39.5873510744"><ele>147.70</ele><time>2016-12-25T08:52:05Z</time></trkpt><trkpt lat="51.8915136997" lon="39.5873743761"><ele>146.74</ele><time>2016-12-25T08:52:43Z</time></trkpt><trkpt lat="51.8915197346" lon="39.5873307064"><ele>147.70</ele><time>2016-12-25T08:53:28Z</time></trkpt><trkpt lat="51.8915426172" lon="39.5873459615"><ele>147.22</ele><time>2016-12-25T08:54:09Z</time></trkpt><trkpt lat="51.8915038090" lon="39.5873670001"><ele>146.74</ele><time>2016-12-25T08:54:46Z</time></trkpt><trkpt lat="51.8915049825" lon="39.5873488113"><ele>150.58</ele><time>2016-12-25T08:55:21Z</time></trkpt><trkpt lat="51.8915018812" lon="39.5873431955"><ele>148.18</ele><time>2016-12-25T08:55:56Z</time></trkpt><trkpt lat="51.8915273622" lon="39.5873476379"><ele>149.14</ele><time>2016-12-25T08:56:38Z</time></trkpt><trkpt lat="51.8915160466" lon="39.5873754658"><ele>148.18</ele><time>2016-12-25T08:57:19Z</time></trkpt><trkpt lat="51.8915175553" lon="39.5873533376"><ele>146.74</ele><time>2016-12-25T08:58:02Z</time></trkpt><trkpt lat="51.8915078323" lon="39.5873686764"><ele>149.14</ele><time>2016-12-25T08:58:40Z</time></trkpt><trkpt lat="51.8915207405" lon="39.5873532537"><ele>148.18</ele><time>2016-12-25T08:59:17Z</time></trkpt><trkpt lat="51.8915353250" lon="39.5873578638"><ele>150.10</ele><time>2016-12-25T08:59:58Z</time></trkpt><trkpt lat="51.8914979417" lon="39.5873488951"><ele>145.78</ele><time>2016-12-25T09:00:40Z</time></trkpt><trkpt lat="51.8915098440" lon="39.5873803273"><ele>146.26</ele><time>2016-12-25T09:01:11Z</time></trkpt><trkpt lat="51.8915117718" lon="39.5873547625"><ele>144.82</ele><time>2016-12-25T09:01:50Z</time></trkpt><trkpt lat="51.8915251829" lon="39.5873692632"><ele>148.66</ele><time>2016-12-25T09:02:32Z</time></trkpt><trkpt lat="51.8915117718" lon="39.5873789862"><ele>150.10</ele><time>2016-12-25T09:03:13Z</time></trkpt><trkpt lat="51.8915231712" lon="39.5873587020"><ele>152.51</ele><time>2016-12-25T09:03:55Z</time></trkpt><trkpt lat="51.8915442936" lon="39.5872311294"><ele>152.03</ele><time>2016-12-25T09:04:14Z</time></trkpt><trkpt lat="51.8915506639" lon="39.5871982723"><ele>151.54</ele><time>2016-12-25T09:04:17Z</time></trkpt><trkpt lat="51.8915205728" lon="39.5871245116"><ele>150.58</ele><time>2016-12-25T09:04:27Z</time></trkpt><trkpt lat="51.8914247677" lon="39.5870288741"><ele>150.58</ele><time>2016-12-25T09:04:34Z</time></trkpt><trkpt lat="51.8911573850" lon="39.5870370045"><ele>149.62</ele><time>2016-12-25T09:04:47Z</time></trkpt><trkpt lat="51.8908311613" lon="39.5872999448"><ele>150.10</ele><time>2016-12-25T09:05:02Z</time></trkpt><trkpt lat="51.8905139901" lon="39.5874695107"><ele>150.10</ele><time>2016-12-25T09:05:15Z</time></trkpt><trkpt lat="51.8900470342" lon="39.5875389967"><ele>151.06</ele><time>2016-12-25T09:05:31Z</time></trkpt><trkpt lat="51.8895595428" lon="39.5873079915"><ele>152.51</ele><time>2016-12-25T09:05:46Z</time></trkpt><trkpt lat="51.8893146235" lon="39.5871733781"><ele>153.47</ele><time>2016-12-25T09:05:54Z</time></trkpt><trkpt lat="51.8889218476" lon="39.5869670156"><ele>155.87</ele><time>2016-12-25T09:06:07Z</time></trkpt><trkpt lat="51.8887960352" lon="39.5868422929"><ele>156.35</ele><time>2016-12-25T09:06:12Z</time></trkpt><trkpt lat="51.8888027407" lon="39.5866283868"><ele>157.31</ele><time>2016-12-25T09:06:17Z</time></trkpt><trkpt lat="51.8889536988" lon="39.5858022664"><ele>154.91</ele><time>2016-12-25T09:06:31Z</time></trkpt><trkpt lat="51.8891081773" lon="39.5849769004"><ele>152.51</ele><time>2016-12-25T09:06:44Z</time></trkpt><trkpt lat="51.8892927468" lon="39.5840359479"><ele>152.51</ele><time>2016-12-25T09:06:59Z</time></trkpt><trkpt lat="51.8894509971" lon="39.5832056366"><ele>151.54</ele><time>2016-12-25T09:07:12Z</time></trkpt><trkpt lat="51.8896017876" lon="39.5824100263"><ele>151.06</ele><time>2016-12-25T09:07:24Z</time></trkpt><trkpt lat="51.8897584453" lon="39.5816486143"><ele>152.03</ele><time>2016-12-25T09:07:35Z</time></trkpt><trkpt lat="51.8899190426" lon="39.5807597972"><ele>153.95</ele><time>2016-12-25T09:07:49Z</time></trkpt><trkpt lat="51.8901233096" lon="39.5796647854"><ele>152.99</ele><time>2016-12-25T09:08:06Z</time></trkpt><trkpt lat="51.8902272452" lon="39.5792249870"><ele>151.54</ele><time>2016-12-25T09:08:14Z</time></trkpt><trkpt lat="51.8902429193" lon="39.5792100672"><ele>151.06</ele><time>2016-12-25T09:08:15Z</time></trkpt><trkpt lat="51.8903663848" lon="39.5791643020"><ele>151.54</ele><time>2016-12-25T09:08:24Z</time></trkpt><trkpt lat="51.8903785385" lon="39.5791463647"><ele>151.54</ele><time>2016-12-25T09:08:25Z</time></trkpt><trkpt lat="51.8903936259" lon="39.5791218057"><ele>151.54</ele><time>2016-12-25T09:08:26Z</time></trkpt><trkpt lat="51.8906805385" lon="39.5786066540"><ele>150.10</ele><time>2016-12-25T09:08:40Z</time></trkpt><trkpt lat="51.8909526151" lon="39.5781156421"><ele>149.62</ele><time>2016-12-25T09:08:52Z</time></trkpt><trkpt lat="51.8912255298" lon="39.5776940323"><ele>148.66</ele><time>2016-12-25T09:09:02Z</time></trkpt><trkpt lat="51.8914010469" lon="39.5775035117"><ele>148.18</ele><time>2016-12-25T09:09:07Z</time></trkpt><trkpt lat="51.8914390169" lon="39.5774709061"><ele>147.70</ele><time>2016-12-25T09:09:08Z</time></trkpt><trkpt lat="51.8914758135" lon="39.5774434973"><ele>148.18</ele><time>2016-12-25T09:09:09Z</time></trkpt><trkpt lat="51.8915147055" lon="39.5774239674"><ele>148.18</ele><time>2016-12-25T09:09:10Z</time></trkpt><trkpt lat="51.8915552739" lon="39.5774098858"><ele>148.18</ele><time>2016-12-25T09:09:11Z</time></trkpt><trkpt lat="51.8916352373" lon="39.5773753524"><ele>148.18</ele><time>2016-12-25T09:09:13Z</time></trkpt><trkpt lat="51.8916732911" lon="39.5773470215"><ele>148.18</ele><time>2016-12-25T09:09:14Z</time></trkpt><trkpt lat="51.8917049747" lon="39.5773111470"><ele>148.18</ele><time>2016-12-25T09:09:15Z</time></trkpt><trkpt lat="51.8917333055" lon="39.5772651304"><ele>148.18</ele><time>2016-12-25T09:09:16Z</time></trkpt><trkpt lat="51.8917560205" lon="39.5772132464"><ele>148.18</ele><time>2016-12-25T09:09:17Z</time></trkpt><trkpt lat="51.8917780649" lon="39.5771578420"><ele>147.70</ele><time>2016-12-25T09:09:18Z</time></trkpt><trkpt lat="51.8917988520" lon="39.5770992525"><ele>147.70</ele><time>2016-12-25T09:09:19Z</time></trkpt><trkpt lat="51.8918172922" lon="39.5770394057"><ele>147.22</ele><time>2016-12-25T09:09:20Z</time></trkpt><trkpt lat="51.8918338045" lon="39.5769732725"><ele>147.22</ele><time>2016-12-25T09:09:21Z</time></trkpt><trkpt lat="51.8918482214" lon="39.5769043732"><ele>147.22</ele><time>2016-12-25T09:09:22Z</time></trkpt><trkpt lat="51.8918550946" lon="39.5768353902"><ele>146.74</ele><time>2016-12-25T09:09:23Z</time></trkpt><trkpt lat="51.8918561842" lon="39.5767735317"><ele>146.74</ele><time>2016-12-25T09:09:24Z</time></trkpt><trkpt lat="51.8918533344" lon="39.5767123438"><ele>147.22</ele><time>2016-12-25T09:09:25Z</time></trkpt><trkpt lat="51.8918477185" lon="39.5766509045"><ele>147.22</ele><time>2016-12-25T09:09:26Z</time></trkpt><trkpt lat="51.8918386661" lon="39.5765880402"><ele>147.22</ele><time>2016-12-25T09:09:27Z</time></trkpt><trkpt lat="51.8918261770" lon="39.5765292831"><ele>147.22</ele><time>2016-12-25T09:09:28Z</time></trkpt><trkpt lat="51.8918110058" lon="39.5764701068"><ele>147.22</ele><time>2016-12-25T09:09:29Z</time></trkpt><trkpt lat="51.8916619755" lon="39.5759705454"><ele>147.22</ele><time>2016-12-25T09:09:38Z</time></trkpt><trkpt lat="51.8916731235" lon="39.5759206731"><ele>146.74</ele><time>2016-12-25T09:09:39Z</time></trkpt><trkpt lat="51.8916917313" lon="39.5758713875"><ele>146.74</ele><time>2016-12-25T09:09:40Z</time></trkpt><trkpt lat="51.8920944817" lon="39.5751310978"><ele>145.78</ele><time>2016-12-25T09:09:53Z</time></trkpt><trkpt lat="51.8925178517" lon="39.5740996208"><ele>145.78</ele><time>2016-12-25T09:10:08Z</time></trkpt><trkpt lat="51.8928547204" lon="39.5730345324"><ele>146.74</ele><time>2016-12-25T09:10:23Z</time></trkpt><trkpt lat="51.8928786088" lon="39.5729641244"><ele>146.74</ele><time>2016-12-25T09:10:24Z</time></trkpt><trkpt lat="51.8930646032" lon="39.5724127628"><ele>147.22</ele><time>2016-12-25T09:10:32Z</time></trkpt><trkpt lat="51.8934296351" lon="39.5714908373"><ele>148.66</ele><time>2016-12-25T09:10:46Z</time></trkpt><trkpt lat="51.8939338066" lon="39.5706535690"><ele>148.66</ele><time>2016-12-25T09:11:01Z</time></trkpt><trkpt lat="51.8943607807" lon="39.5699111000"><ele>146.26</ele><time>2016-12-25T09:11:16Z</time></trkpt><trkpt lat="51.8943984155" lon="39.5694568008"><ele>144.82</ele><time>2016-12-25T09:11:26Z</time></trkpt><trkpt lat="51.8941514846" lon="39.5691844728"><ele>144.34</ele><time>2016-12-25T09:11:37Z</time></trkpt><trkpt lat="51.8934999593" lon="39.5688744262"><ele>144.82</ele><time>2016-12-25T09:11:56Z</time></trkpt><trkpt lat="51.8929885793" lon="39.5688021742"><ele>144.82</ele><time>2016-12-25T09:12:11Z</time></trkpt><trkpt lat="51.8926721625" lon="39.5684321970"><ele>144.82</ele><time>2016-12-25T09:12:24Z</time></trkpt><trkpt lat="51.8923760299" lon="39.5683021937"><ele>146.74</ele><time>2016-12-25T09:12:37Z</time></trkpt><trkpt lat="51.8923107348" lon="39.5682811551"><ele>148.18</ele><time>2016-12-25T09:12:51Z</time></trkpt><trkpt lat="51.8921917118" lon="39.5682045445"><ele>147.22</ele><time>2016-12-25T09:13:16Z</time></trkpt><trkpt lat="51.8917223252" lon="39.5679694321"><ele>146.74</ele><time>2016-12-25T09:13:31Z</time></trkpt><trkpt lat="51.8912680261" lon="39.5678209048"><ele>147.22</ele><time>2016-12-25T09:13:44Z</time></trkpt><trkpt lat="51.8908722326" lon="39.5675163902"><ele>148.18</ele><time>2016-12-25T09:13:57Z</time></trkpt><trkpt lat="51.8904535566" lon="39.5673567988"><ele>149.62</ele><time>2016-12-25T09:14:10Z</time></trkpt><trkpt lat="51.8900795560" lon="39.5671441499"><ele>149.62</ele><time>2016-12-25T09:14:21Z</time></trkpt><trkpt lat="51.8896296993" lon="39.5669791102"><ele>149.62</ele><time>2016-12-25T09:14:34Z</time></trkpt><trkpt lat="51.8891348317" lon="39.5667237975"><ele>151.06</ele><time>2016-12-25T09:14:48Z</time></trkpt><trkpt lat="51.8887112103" lon="39.5664921217"><ele>149.62</ele><time>2016-12-25T09:15:01Z</time></trkpt><trkpt lat="51.8882872537" lon="39.5662462804"><ele>148.66</ele><time>2016-12-25T09:15:14Z</time></trkpt><trkpt lat="51.8879135884" lon="39.5661026984"><ele>148.66</ele><time>2016-12-25T09:15:26Z</time></trkpt><trkpt lat="51.8876480497" lon="39.5659803227"><ele>149.62</ele><time>2016-12-25T09:15:39Z</time></trkpt><trkpt lat="51.8875105865" lon="39.5657926518"><ele>151.06</ele><time>2016-12-25T09:15:53Z</time></trkpt><trkpt lat="51.8873117678" lon="39.5655881334"><ele>149.62</ele><time>2016-12-25T09:15:59Z</time></trkpt><trkpt lat="51.8870941736" lon="39.5654666796"><ele>150.10</ele><time>2016-12-25T09:16:05Z</time></trkpt><trkpt lat="51.8868460692" lon="39.5654193219"><ele>150.10</ele><time>2016-12-25T09:16:11Z</time></trkpt><trkpt lat="51.8868008908" lon="39.5654085930"><ele>150.10</ele><time>2016-12-25T09:16:12Z</time></trkpt><trkpt lat="51.8864123058" lon="39.5652386080"><ele>151.06</ele><time>2016-12-25T09:16:22Z</time></trkpt><trkpt lat="51.8857793882" lon="39.5649203472"><ele>148.66</ele><time>2016-12-25T09:16:36Z</time></trkpt><trkpt lat="51.8852214050" lon="39.5646238793"><ele>148.18</ele><time>2016-12-25T09:16:49Z</time></trkpt><trkpt lat="51.8846301455" lon="39.5643352903"><ele>147.22</ele><time>2016-12-25T09:17:03Z</time></trkpt><trkpt lat="51.8840498663" lon="39.5640576817"><ele>145.78</ele><time>2016-12-25T09:17:16Z</time></trkpt><trkpt lat="51.8836171925" lon="39.5638299454"><ele>146.26</ele><time>2016-12-25T09:17:28Z</time></trkpt><trkpt lat="51.8831423577" lon="39.5636036340"><ele>146.26</ele><time>2016-12-25T09:17:42Z</time></trkpt><trkpt lat="51.8831360713" lon="39.5635867026"><ele>146.74</ele><time>2016-12-25T09:17:43Z</time></trkpt><trkpt lat="51.8831333052" lon="39.5635659155"><ele>146.74</ele><time>2016-12-25T09:17:44Z</time></trkpt><trkpt lat="51.8831348978" lon="39.5635469723"><ele>147.22</ele><time>2016-12-25T09:17:45Z</time></trkpt><trkpt lat="51.8832255062" lon="39.5630172361"><ele>146.26</ele><time>2016-12-25T09:17:55Z</time></trkpt><trkpt lat="51.8833101634" lon="39.5625604223"><ele>146.74</ele><time>2016-12-25T09:18:02Z</time></trkpt><trkpt lat="51.8834794778" lon="39.5617278479"><ele>145.30</ele><time>2016-12-25T09:18:15Z</time></trkpt><trkpt lat="51.8836300168" lon="39.5609844569"><ele>145.78</ele><time>2016-12-25T09:18:27Z</time></trkpt><trkpt lat="51.8837584276" lon="39.5603436604"><ele>146.74</ele><time>2016-12-25T09:18:38Z</time></trkpt><trkpt lat="51.8838916160" lon="39.5596925542"><ele>147.70</ele><time>2016-12-25T09:18:49Z</time></trkpt><trkpt lat="51.8840351980" lon="39.5589054096"><ele>150.58</ele><time>2016-12-25T09:19:02Z</time></trkpt><trkpt lat="51.8841567356" lon="39.5583299082"><ele>150.10</ele><time>2016-12-25T09:19:13Z</time></trkpt><trkpt lat="51.8842775188" lon="39.5577073842"><ele>150.58</ele><time>2016-12-25T09:19:25Z</time></trkpt><trkpt lat="51.8843974639" lon="39.5571416058"><ele>152.51</ele><time>2016-12-25T09:19:37Z</time></trkpt><trkpt lat="51.8845305685" lon="39.5563649386"><ele>150.10</ele><time>2016-12-25T09:19:50Z</time></trkpt><trkpt lat="51.8846535310" lon="39.5556070469"><ele>147.70</ele><time>2016-12-25T09:20:02Z</time></trkpt><trkpt lat="51.8847562931" lon="39.5551127661"><ele>151.06</ele><time>2016-12-25T09:20:14Z</time></trkpt><trkpt lat="51.8848847039" lon="39.5544874761"><ele>151.54</ele><time>2016-12-25T09:20:25Z</time></trkpt><trkpt lat="51.8850227538" lon="39.5538095478"><ele>152.99</ele><time>2016-12-25T09:20:36Z</time></trkpt><trkpt lat="51.8850813434" lon="39.5534697454"><ele>151.54</ele><time>2016-12-25T09:20:41Z</time></trkpt><trkpt lat="51.8852386717" lon="39.5527585410"><ele>152.99</ele><time>2016-12-25T09:20:52Z</time></trkpt><trkpt lat="51.8853864446" lon="39.5518951211"><ele>152.51</ele><time>2016-12-25T09:21:05Z</time></trkpt><trkpt lat="51.8855383247" lon="39.5511109103"><ele>151.54</ele><time>2016-12-25T09:21:18Z</time></trkpt><trkpt lat="51.8856632989" lon="39.5504243486"><ele>150.58</ele><time>2016-12-25T09:21:30Z</time></trkpt><trkpt lat="51.8857700843" lon="39.5497284830"><ele>146.74</ele><time>2016-12-25T09:21:40Z</time></trkpt><trkpt lat="51.8857832439" lon="39.5496600028"><ele>146.74</ele><time>2016-12-25T09:21:41Z</time></trkpt><trkpt lat="51.8859530613" lon="39.5488498919"><ele>146.74</ele><time>2016-12-25T09:21:54Z</time></trkpt><trkpt lat="51.8861227110" lon="39.5480323210"><ele>147.22</ele><time>2016-12-25T09:22:07Z</time></trkpt><trkpt lat="51.8862582464" lon="39.5473004133"><ele>148.66</ele><time>2016-12-25T09:22:19Z</time></trkpt><trkpt lat="51.8864215259" lon="39.5464965887"><ele>145.78</ele><time>2016-12-25T09:22:32Z</time></trkpt><trkpt lat="51.8864936940" lon="39.5461866260"><ele>146.74</ele><time>2016-12-25T09:22:42Z</time></trkpt><trkpt lat="51.8865532055" lon="39.5458519366"><ele>146.74</ele><time>2016-12-25T09:22:54Z</time></trkpt><trkpt lat="51.8866824545" lon="39.5452232100"><ele>146.26</ele><time>2016-12-25T09:23:07Z</time></trkpt><trkpt lat="51.8867991306" lon="39.5445952378"><ele>145.78</ele><time>2016-12-25T09:23:19Z</time></trkpt><trkpt lat="51.8869080115" lon="39.5440343209"><ele>144.82</ele><time>2016-12-25T09:23:31Z</time></trkpt><trkpt lat="51.8869743962" lon="39.5435999706"><ele>145.78</ele><time>2016-12-25T09:23:42Z</time></trkpt><trkpt lat="51.8870719615" lon="39.5430788677"><ele>146.74</ele><time>2016-12-25T09:23:54Z</time></trkpt><trkpt lat="51.8872192316" lon="39.5426113252"><ele>143.37</ele><time>2016-12-25T09:24:07Z</time></trkpt><trkpt lat="51.8873336446" lon="39.5421628933"><ele>144.82</ele><time>2016-12-25T09:24:19Z</time></trkpt><trkpt lat="51.8873646576" lon="39.5415417943"><ele>146.26</ele><time>2016-12-25T09:24:31Z</time></trkpt><trkpt lat="51.8875032105" lon="39.5409259759"><ele>145.78</ele><time>2016-12-25T09:24:43Z</time></trkpt><trkpt lat="51.8876069784" lon="39.5402295236"><ele>145.78</ele><time>2016-12-25T09:24:56Z</time></trkpt><trkpt lat="51.8877134286" lon="39.5395626593"><ele>144.82</ele><time>2016-12-25T09:25:07Z</time></trkpt><trkpt lat="51.8878082279" lon="39.5390117168"><ele>144.82</ele><time>2016-12-25T09:25:18Z</time></trkpt><trkpt lat="51.8879920430" lon="39.5386077929"><ele>144.34</ele><time>2016-12-25T09:25:29Z</time></trkpt><trkpt lat="51.8880731799" lon="39.5379812457"><ele>142.41</ele><time>2016-12-25T09:25:40Z</time></trkpt><trkpt lat="51.8881998304" lon="39.5372773334"><ele>143.37</ele><time>2016-12-25T09:25:52Z</time></trkpt><trkpt lat="51.8883244693" lon="39.5366007462"><ele>143.85</ele><time>2016-12-25T09:26:03Z</time></trkpt><trkpt lat="51.8884827197" lon="39.5358554274"><ele>147.22</ele><time>2016-12-25T09:26:16Z</time></trkpt><trkpt lat="51.8886402156" lon="39.5351384394"><ele>147.22</ele><time>2016-12-25T09:26:29Z</time></trkpt><trkpt lat="51.8889068440" lon="39.5342289191"><ele>142.41</ele><time>2016-12-25T09:26:44Z</time></trkpt><trkpt lat="51.8890282139" lon="39.5332194027"><ele>140.97</ele><time>2016-12-25T09:26:59Z</time></trkpt><trkpt lat="51.8890905753" lon="39.5328153111"><ele>140.97</ele><time>2016-12-25T09:27:05Z</time></trkpt><trkpt lat="51.8891019747" lon="39.5327462442"><ele>140.97</ele><time>2016-12-25T09:27:06Z</time></trkpt><trkpt lat="51.8892812636" lon="39.5317260828"><ele>140.01</ele><time>2016-12-25T09:27:20Z</time></trkpt><trkpt lat="51.8893139530" lon="39.5315775555"><ele>140.01</ele><time>2016-12-25T09:27:22Z</time></trkpt><trkpt lat="51.8895148672" lon="39.5304322522"><ele>140.01</ele><time>2016-12-25T09:27:37Z</time></trkpt><trkpt lat="51.8897233251" lon="39.5292556845"><ele>138.57</ele><time>2016-12-25T09:27:51Z</time></trkpt><trkpt lat="51.8899397459" lon="39.5281377062"><ele>137.13</ele><time>2016-12-25T09:28:06Z</time></trkpt><trkpt lat="51.8899840023" lon="39.5279266499"><ele>137.61</ele><time>2016-12-25T09:28:09Z</time></trkpt><trkpt lat="51.8899943121" lon="39.5278548170"><ele>137.61</ele><time>2016-12-25T09:28:10Z</time></trkpt><trkpt lat="51.8900583498" lon="39.5272788126"><ele>135.68</ele><time>2016-12-25T09:28:17Z</time></trkpt><trkpt lat="51.8900673185" lon="39.5272019506"><ele>135.68</ele><time>2016-12-25T09:28:18Z</time></trkpt><trkpt lat="51.8900722638" lon="39.5271476358"><ele>135.20</ele><time>2016-12-25T09:28:19Z</time></trkpt><trkpt lat="51.8901967350" lon="39.5266004652"><ele>136.16</ele><time>2016-12-25T09:28:32Z</time></trkpt><trkpt lat="51.8903942965" lon="39.5256682299"><ele>139.53</ele><time>2016-12-25T09:28:49Z</time></trkpt><trkpt lat="51.8905779440" lon="39.5246817637"><ele>138.57</ele><time>2016-12-25T09:29:05Z</time></trkpt><trkpt lat="51.8907979690" lon="39.5236025099"><ele>136.64</ele><time>2016-12-25T09:29:19Z</time></trkpt><trkpt lat="51.8908896670" lon="39.5231078099"><ele>137.13</ele><time>2016-12-25T09:29:26Z</time></trkpt><trkpt lat="51.8909456581" lon="39.5225141197"><ele>135.68</ele><time>2016-12-25T09:29:34Z</time></trkpt><trkpt lat="51.8909651879" lon="39.5224380121"><ele>135.68</ele><time>2016-12-25T09:29:35Z</time></trkpt><trkpt lat="51.8912049104" lon="39.5215506200"><ele>135.20</ele><time>2016-12-25T09:29:48Z</time></trkpt><trkpt lat="51.8913703691" lon="39.5206090808"><ele>136.16</ele><time>2016-12-25T09:30:02Z</time></trkpt><trkpt lat="51.8915779050" lon="39.5195156615"><ele>137.13</ele><time>2016-12-25T09:30:18Z</time></trkpt><trkpt lat="51.8918074854" lon="39.5183489006"><ele>136.16</ele><time>2016-12-25T09:30:34Z</time></trkpt><trkpt lat="51.8919793982" lon="39.5171385538"><ele>135.20</ele><time>2016-12-25T09:30:51Z</time></trkpt><trkpt lat="51.8921877723" lon="39.5162371639"><ele>135.20</ele><time>2016-12-25T09:31:04Z</time></trkpt><trkpt lat="51.8924657162" lon="39.5149326883"><ele>134.72</ele><time>2016-12-25T09:31:22Z</time></trkpt><trkpt lat="51.8927260581" lon="39.5135443937"><ele>131.84</ele><time>2016-12-25T09:31:37Z</time></trkpt><trkpt lat="51.8929869868" lon="39.5121675823"><ele>128.47</ele><time>2016-12-25T09:31:52Z</time></trkpt><trkpt lat="51.8932353426" lon="39.5108536351"><ele>127.03</ele><time>2016-12-25T09:32:07Z</time></trkpt><trkpt lat="51.8934980314" lon="39.5094953477"><ele>125.59</ele><time>2016-12-25T09:32:23Z</time></trkpt><trkpt lat="51.8935659248" lon="39.5091674477"><ele>126.07</ele><time>2016-12-25T09:32:27Z</time></trkpt><trkpt lat="51.8938316312" lon="39.5078077354"><ele>128.47</ele><time>2016-12-25T09:32:45Z</time></trkpt><trkpt lat="51.8940041307" lon="39.5067382883"><ele>128.47</ele><time>2016-12-25T09:32:59Z</time></trkpt><trkpt lat="51.8942581862" lon="39.5054737944"><ele>129.92</ele><time>2016-12-25T09:33:18Z</time></trkpt><trkpt lat="51.8944340385" lon="39.5045356918"><ele>129.43</ele><time>2016-12-25T09:33:30Z</time></trkpt><trkpt lat="51.8945759442" lon="39.5038042031"><ele>128.47</ele><time>2016-12-25T09:33:40Z</time></trkpt><trkpt lat="51.8945907801" lon="39.5036673266"><ele>127.99</ele><time>2016-12-25T09:33:42Z</time></trkpt><trkpt lat="51.8946049456" lon="39.5035942364"><ele>127.99</ele><time>2016-12-25T09:33:43Z</time></trkpt><trkpt lat="51.8946237210" lon="39.5035270974"><ele>127.99</ele><time>2016-12-25T09:33:44Z</time></trkpt><trkpt lat="51.8948145770" lon="39.5026495960"><ele>126.55</ele><time>2016-12-25T09:33:57Z</time></trkpt><trkpt lat="51.8949867412" lon="39.5016910415"><ele>127.03</ele><time>2016-12-25T09:34:10Z</time></trkpt><trkpt lat="51.8952265475" lon="39.5006187446"><ele>128.47</ele><time>2016-12-25T09:34:25Z</time></trkpt><trkpt lat="51.8954623304" lon="39.4994836673"><ele>127.51</ele><time>2016-12-25T09:34:40Z</time></trkpt><trkpt lat="51.8957039807" lon="39.4981641043"><ele>127.99</ele><time>2016-12-25T09:34:57Z</time></trkpt><trkpt lat="51.8959550187" lon="39.4969639834"><ele>127.03</ele><time>2016-12-25T09:35:12Z</time></trkpt><trkpt lat="51.8961638119" lon="39.4958636910"><ele>125.59</ele><time>2016-12-25T09:35:27Z</time></trkpt><trkpt lat="51.8963804003" lon="39.4947349001"><ele>125.11</ele><time>2016-12-25T09:35:42Z</time></trkpt><trkpt lat="51.8966726772" lon="39.4932668097"><ele>123.19</ele><time>2016-12-25T09:36:01Z</time></trkpt><trkpt lat="51.8968962226" lon="39.4920824468"><ele>123.19</ele><time>2016-12-25T09:36:17Z</time></trkpt><trkpt lat="51.8971225340" lon="39.4909499679"><ele>122.22</ele><time>2016-12-25T09:36:33Z</time></trkpt><trkpt lat="51.8973254599" lon="39.4896748289"><ele>120.30</ele><time>2016-12-25T09:36:51Z</time></trkpt><trkpt lat="51.8975105323" lon="39.4889326114"><ele>119.82</ele><time>2016-12-25T09:37:04Z</time></trkpt><trkpt lat="51.8977256957" lon="39.4878047425"><ele>117.90</ele><time>2016-12-25T09:37:20Z</time></trkpt><trkpt lat="51.8978332356" lon="39.4871712383"><ele>116.94</ele><time>2016-12-25T09:37:29Z</time></trkpt><trkpt lat="51.8979794160" lon="39.4864378218"><ele>117.90</ele><time>2016-12-25T09:37:40Z</time></trkpt><trkpt lat="51.8979870435" lon="39.4863695092"><ele>117.42</ele><time>2016-12-25T09:37:41Z</time></trkpt><trkpt lat="51.8981899694" lon="39.4855303969"><ele>117.42</ele><time>2016-12-25T09:37:54Z</time></trkpt><trkpt lat="51.8983876146" lon="39.4844798092"><ele>117.90</ele><time>2016-12-25T09:38:10Z</time></trkpt><trkpt lat="51.8985695019" lon="39.4835187402"><ele>117.42</ele><time>2016-12-25T09:38:25Z</time></trkpt><trkpt lat="51.8987678178" lon="39.4827642851"><ele>117.90</ele><time>2016-12-25T09:38:38Z</time></trkpt><trkpt lat="51.8987871800" lon="39.4826160092"><ele>117.90</ele><time>2016-12-25T09:38:41Z</time></trkpt><trkpt lat="51.8987818155" lon="39.4825797994"><ele>117.90</ele><time>2016-12-25T09:38:42Z</time></trkpt><trkpt lat="51.8987741880" lon="39.4825465232"><ele>117.90</ele><time>2016-12-25T09:38:43Z</time></trkpt><trkpt lat="51.8987615313" lon="39.4825122412"><ele>117.42</ele><time>2016-12-25T09:38:44Z</time></trkpt><trkpt lat="51.8987484556" lon="39.4824799709"><ele>117.42</ele><time>2016-12-25T09:38:45Z</time></trkpt><trkpt lat="51.8987136707" lon="39.4824207947"><ele>116.46</ele><time>2016-12-25T09:38:53Z</time></trkpt><trkpt lat="51.8987067975" lon="39.4824453536"><ele>115.98</ele><time>2016-12-25T09:39:22Z</time></trkpt><trkpt lat="51.8987050373" lon="39.4824125804"><ele>115.98</ele><time>2016-12-25T09:40:04Z</time></trkpt><trkpt lat="51.8986840826" lon="39.4824129995"><ele>116.46</ele><time>2016-12-25T09:40:41Z</time></trkpt><trkpt lat="51.8987145089" lon="39.4824275840"><ele>113.57</ele><time>2016-12-25T09:41:18Z</time></trkpt><trkpt lat="51.8986839987" lon="39.4824176095"><ele>113.57</ele><time>2016-12-25T09:41:35Z</time></trkpt><trkpt lat="51.8986287620" lon="39.4823835790"><ele>114.05</ele><time>2016-12-25T09:41:39Z</time></trkpt><trkpt lat="51.8984435219" lon="39.4823278394"><ele>115.50</ele><time>2016-12-25T09:41:51Z</time></trkpt><trkpt lat="51.8984480482" lon="39.4823623728"><ele>115.98</ele><time>2016-12-25T09:41:59Z</time></trkpt><trkpt lat="51.8984384928" lon="39.4823749457"><ele>115.98</ele><time>2016-12-25T09:42:00Z</time></trkpt><trkpt lat="51.8984255008" lon="39.4823813159"><ele>115.98</ele><time>2016-12-25T09:42:01Z</time></trkpt><trkpt lat="51.8984086532" lon="39.4823834114"><ele>115.98</ele><time>2016-12-25T09:42:02Z</time></trkpt><trkpt lat="51.8983852677" lon="39.4823924638"><ele>115.50</ele><time>2016-12-25T09:42:03Z</time></trkpt><trkpt lat="51.8983557634" lon="39.4824061263"><ele>115.50</ele><time>2016-12-25T09:42:04Z</time></trkpt><trkpt lat="51.8980931584" lon="39.4828056917"><ele>115.98</ele><time>2016-12-25T09:42:15Z</time></trkpt><trkpt lat="51.8977716286" lon="39.4833964482"><ele>116.46</ele><time>2016-12-25T09:42:29Z</time></trkpt><trkpt lat="51.8975435570" lon="39.4838385098"><ele>117.90</ele><time>2016-12-25T09:42:42Z</time></trkpt><trkpt lat="51.8973802775" lon="39.4842065591"><ele>119.34</ele><time>2016-12-25T09:42:54Z</time></trkpt><trkpt lat="51.8971879967" lon="39.4847202860"><ele>121.26</ele><time>2016-12-25T09:43:07Z</time></trkpt><trkpt lat="51.8969587516" lon="39.4854076859"><ele>120.78</ele><time>2016-12-25T09:43:20Z</time></trkpt><trkpt lat="51.8966913689" lon="39.4856942631"><ele>118.86</ele><time>2016-12-25T09:43:30Z</time></trkpt><trkpt lat="51.8963001017" lon="39.4857699517"><ele>119.82</ele><time>2016-12-25T09:43:41Z</time></trkpt><trkpt lat="51.8959502410" lon="39.4860142842"><ele>119.82</ele><time>2016-12-25T09:43:53Z</time></trkpt><trkpt lat="51.8955122866" lon="39.4864959083"><ele>119.34</ele><time>2016-12-25T09:44:08Z</time></trkpt><trkpt lat="51.8953024875" lon="39.4867668953"><ele>118.86</ele><time>2016-12-25T09:44:15Z</time></trkpt><trkpt lat="51.8949115556" lon="39.4871066976"><ele>118.86</ele><time>2016-12-25T09:44:25Z</time></trkpt><trkpt lat="51.8944658060" lon="39.4875178300"><ele>119.82</ele><time>2016-12-25T09:44:37Z</time></trkpt><trkpt lat="51.8940968346" lon="39.4878702052"><ele>119.82</ele><time>2016-12-25T09:44:49Z</time></trkpt><trkpt lat="51.8940738682" lon="39.4878577162"><ele>119.82</ele><time>2016-12-25T09:44:50Z</time></trkpt><trkpt lat="51.8940441124" lon="39.4878483284"><ele>120.30</ele><time>2016-12-25T09:44:51Z</time></trkpt><trkpt lat="51.8935406953" lon="39.4876184128"><ele>117.42</ele><time>2016-12-25T09:45:03Z</time></trkpt><trkpt lat="51.8930074386" lon="39.4873836357"><ele>115.01</ele><time>2016-12-25T09:45:16Z</time></trkpt><trkpt lat="51.8927896768" lon="39.4872157462"><ele>115.01</ele><time>2016-12-25T09:45:24Z</time></trkpt><trkpt lat="51.8927811272" lon="39.4871792849"><ele>115.01</ele><time>2016-12-25T09:45:25Z</time></trkpt><trkpt lat="51.8927771039" lon="39.4871258084"><ele>115.01</ele><time>2016-12-25T09:45:26Z</time></trkpt><trkpt lat="51.8927791156" lon="39.4870763551"><ele>115.01</ele><time>2016-12-25T09:45:27Z</time></trkpt><trkpt lat="51.8927812111" lon="39.4870136585"><ele>115.50</ele><time>2016-12-25T09:45:28Z</time></trkpt><trkpt lat="51.8927820493" lon="39.4869502913"><ele>115.50</ele><time>2016-12-25T09:45:29Z</time></trkpt><trkpt lat="51.8927924428" lon="39.4867918734"><ele>115.50</ele><time>2016-12-25T09:45:31Z</time></trkpt><trkpt lat="51.8928046804" lon="39.4867072161"><ele>115.50</ele><time>2016-12-25T09:45:32Z</time></trkpt><trkpt lat="51.8930325005" lon="39.4856849592"><ele>114.05</ele><time>2016-12-25T09:45:46Z</time></trkpt><trkpt lat="51.8930495996" lon="39.4856133778"><ele>114.05</ele><time>2016-12-25T09:45:47Z</time></trkpt><trkpt lat="51.8930709735" lon="39.4855399523"><ele>113.57</ele><time>2016-12-25T09:45:48Z</time></trkpt><trkpt lat="51.8930940237" lon="39.4854725618"><ele>114.05</ele><time>2016-12-25T09:45:49Z</time></trkpt><trkpt lat="51.8934744783" lon="39.4844392408"><ele>112.13</ele><time>2016-12-25T09:46:05Z</time></trkpt><trkpt lat="51.8935902324" lon="39.4839704409"><ele>112.13</ele><time>2016-12-25T09:46:12Z</time></trkpt><trkpt lat="51.8936146237" lon="39.4839111809"><ele>112.13</ele><time>2016-12-25T09:46:13Z</time></trkpt><trkpt lat="51.8940419331" lon="39.4830654468"><ele>111.65</ele><time>2016-12-25T09:46:28Z</time></trkpt><trkpt lat="51.8944531493" lon="39.4822849240"><ele>111.65</ele><time>2016-12-25T09:46:43Z</time></trkpt><trkpt lat="51.8946031854" lon="39.4821026176"><ele>111.17</ele><time>2016-12-25T09:46:50Z</time></trkpt><trkpt lat="51.8946100585" lon="39.4820772205"><ele>111.17</ele><time>2016-12-25T09:46:51Z</time></trkpt><trkpt lat="51.8946055323" lon="39.4820593670"><ele>111.17</ele><time>2016-12-25T09:46:52Z</time></trkpt><trkpt lat="51.8945894390" lon="39.4820348080"><ele>111.17</ele><time>2016-12-25T09:46:53Z</time></trkpt><trkpt lat="51.8945713341" lon="39.4820091594"><ele>111.65</ele><time>2016-12-25T09:46:54Z</time></trkpt><trkpt lat="51.8945452664" lon="39.4819717761"><ele>111.65</ele><time>2016-12-25T09:46:55Z</time></trkpt><trkpt lat="51.8945186120" lon="39.4819250051"><ele>111.65</ele><time>2016-12-25T09:46:56Z</time></trkpt><trkpt lat="51.8944910355" lon="39.4818714447"><ele>112.13</ele><time>2016-12-25T09:46:57Z</time></trkpt><trkpt lat="51.8944350444" lon="39.4817511644"><ele>112.13</ele><time>2016-12-25T09:46:59Z</time></trkpt><trkpt lat="51.8944106530" lon="39.4816857856"><ele>112.13</ele><time>2016-12-25T09:47:00Z</time></trkpt><trkpt lat="51.8943254091" lon="39.4814204145"><ele>112.13</ele><time>2016-12-25T09:47:04Z</time></trkpt><trkpt lat="51.8940480519" lon="39.4807745889"><ele>110.69</ele><time>2016-12-25T09:47:15Z</time></trkpt><trkpt lat="51.8940175418" lon="39.4807178434"><ele>110.69</ele><time>2016-12-25T09:47:16Z</time></trkpt><trkpt lat="51.8938137777" lon="39.4803653006"><ele>112.61</ele><time>2016-12-25T09:47:23Z</time></trkpt><trkpt lat="51.8935060780" lon="39.4799699262"><ele>113.09</ele><time>2016-12-25T09:47:32Z</time></trkpt><trkpt lat="51.8932018150" lon="39.4797445368"><ele>113.57</ele><time>2016-12-25T09:47:40Z</time></trkpt><trkpt lat="51.8931588996" lon="39.4797347300"><ele>113.57</ele><time>2016-12-25T09:47:41Z</time></trkpt><trkpt lat="51.8931149784" lon="39.4797319639"><ele>113.57</ele><time>2016-12-25T09:47:42Z</time></trkpt><trkpt lat="51.8930734042" lon="39.4797415193"><ele>113.57</ele><time>2016-12-25T09:47:43Z</time></trkpt><trkpt lat="51.8930356018" lon="39.4797605462"><ele>113.57</ele><time>2016-12-25T09:47:44Z</time></trkpt><trkpt lat="51.8929981347" lon="39.4797887094"><ele>113.57</ele><time>2016-12-25T09:47:45Z</time></trkpt><trkpt lat="51.8929637689" lon="39.4798251707"><ele>113.57</ele><time>2016-12-25T09:47:46Z</time></trkpt><trkpt lat="51.8929320015" lon="39.4798699301"><ele>113.57</ele><time>2016-12-25T09:47:47Z</time></trkpt><trkpt lat="51.8923761975" lon="39.4807551429"><ele>113.57</ele><time>2016-12-25T09:48:03Z</time></trkpt><trkpt lat="51.8923468608" lon="39.4808246288"><ele>113.57</ele><time>2016-12-25T09:48:04Z</time></trkpt><trkpt lat="51.8923179433" lon="39.4808922708"><ele>113.57</ele><time>2016-12-25T09:48:05Z</time></trkpt><trkpt lat="51.8917721137" lon="39.4816584606"><ele>113.57</ele><time>2016-12-25T09:48:20Z</time></trkpt><trkpt lat="51.8914474826" lon="39.4820835069"><ele>114.05</ele><time>2016-12-25T09:48:29Z</time></trkpt><trkpt lat="51.8914030585" lon="39.4821137656"><ele>114.05</ele><time>2016-12-25T09:48:30Z</time></trkpt><trkpt lat="51.8913614005" lon="39.4821359776"><ele>114.53</ele><time>2016-12-25T09:48:31Z</time></trkpt><trkpt lat="51.8909191713" lon="39.4824410789"><ele>115.50</ele><time>2016-12-25T09:48:41Z</time></trkpt><trkpt lat="51.8908802792" lon="39.4824892748"><ele>115.98</ele><time>2016-12-25T09:48:42Z</time></trkpt><trkpt lat="51.8902710825" lon="39.4832664449"><ele>116.94</ele><time>2016-12-25T09:48:58Z</time></trkpt><trkpt lat="51.8900425080" lon="39.4835594762"><ele>116.46</ele><time>2016-12-25T09:49:04Z</time></trkpt><trkpt lat="51.8896327168" lon="39.4839437865"><ele>114.05</ele><time>2016-12-25T09:49:14Z</time></trkpt><trkpt lat="51.8895974290" lon="39.4839837682"><ele>114.05</ele><time>2016-12-25T09:49:15Z</time></trkpt><trkpt lat="51.8895288650" lon="39.4840675872"><ele>114.53</ele><time>2016-12-25T09:49:17Z</time></trkpt><trkpt lat="51.8894893862" lon="39.4841030426"><ele>114.53</ele><time>2016-12-25T09:49:18Z</time></trkpt><trkpt lat="51.8894480634" lon="39.4841280207"><ele>114.53</ele><time>2016-12-25T09:49:19Z</time></trkpt><trkpt lat="51.8894021306" lon="39.4841423538"><ele>115.01</ele><time>2016-12-25T09:49:20Z</time></trkpt><trkpt lat="51.8893602211" lon="39.4841472153"><ele>115.50</ele><time>2016-12-25T09:49:21Z</time></trkpt><trkpt lat="51.8893153779" lon="39.4841485564"><ele>115.98</ele><time>2016-12-25T09:49:22Z</time></trkpt><trkpt lat="51.8892714567" lon="39.4841442816"><ele>116.46</ele><time>2016-12-25T09:49:23Z</time></trkpt><trkpt lat="51.8892312236" lon="39.4841277692"><ele>116.46</ele><time>2016-12-25T09:49:24Z</time></trkpt><trkpt lat="51.8891950138" lon="39.4840923138"><ele>116.94</ele><time>2016-12-25T09:49:25Z</time></trkpt><trkpt lat="51.8891674373" lon="39.4840480573"><ele>116.94</ele><time>2016-12-25T09:49:26Z</time></trkpt><trkpt lat="51.8891485780" lon="39.4840028789"><ele>116.94</ele><time>2016-12-25T09:49:27Z</time></trkpt><trkpt lat="51.8891343288" lon="39.4839582033"><ele>117.42</ele><time>2016-12-25T09:49:28Z</time></trkpt><trkpt lat="51.8891189899" lon="39.4839114323"><ele>117.42</ele><time>2016-12-25T09:49:29Z</time></trkpt><trkpt lat="51.8891003821" lon="39.4838613924"><ele>116.94</ele><time>2016-12-25T09:49:30Z</time></trkpt><trkpt lat="51.8890800141" lon="39.4838105980"><ele>116.94</ele><time>2016-12-25T09:49:31Z</time></trkpt><trkpt lat="51.8890569638" lon="39.4837620668"><ele>116.94</ele><time>2016-12-25T09:49:32Z</time></trkpt><trkpt lat="51.8890299741" lon="39.4837151282"><ele>116.94</ele><time>2016-12-25T09:49:33Z</time></trkpt><trkpt lat="51.8889988773" lon="39.4836762361"><ele>117.42</ele><time>2016-12-25T09:49:34Z</time></trkpt><trkpt lat="51.8889612425" lon="39.4836463965"><ele>117.42</ele><time>2016-12-25T09:49:35Z</time></trkpt><trkpt lat="51.8889229372" lon="39.4836284593"><ele>117.90</ele><time>2016-12-25T09:49:36Z</time></trkpt><trkpt lat="51.8888845481" lon="39.4836182334"><ele>117.90</ele><time>2016-12-25T09:49:37Z</time></trkpt><trkpt lat="51.8888497632" lon="39.4836121146"><ele>118.38</ele><time>2016-12-25T09:49:38Z</time></trkpt><trkpt lat="51.8888137210" lon="39.4836095162"><ele>118.38</ele><time>2016-12-25T09:49:39Z</time></trkpt><trkpt lat="51.8885481823" lon="39.4835624937"><ele>119.82</ele><time>2016-12-25T09:49:46Z</time></trkpt><trkpt lat="51.8885079492" lon="39.4835488312"><ele>119.34</ele><time>2016-12-25T09:49:47Z</time></trkpt><trkpt lat="51.8884652853" lon="39.4835324027"><ele>118.86</ele><time>2016-12-25T09:49:48Z</time></trkpt><trkpt lat="51.8877634685" lon="39.4834873918"><ele>117.42</ele><time>2016-12-25T09:50:02Z</time></trkpt><trkpt lat="51.8876218144" lon="39.4834828656"><ele>117.42</ele><time>2016-12-25T09:50:05Z</time></trkpt><trkpt lat="51.8871932477" lon="39.4836336561"><ele>117.42</ele><time>2016-12-25T09:50:14Z</time></trkpt><trkpt lat="51.8867846299" lon="39.4838572852"><ele>117.90</ele><time>2016-12-25T09:50:22Z</time></trkpt><trkpt lat="51.8861672189" lon="39.4841586147"><ele>116.46</ele><time>2016-12-25T09:50:34Z</time></trkpt><trkpt lat="51.8859092239" lon="39.4841686729"><ele>116.94</ele><time>2016-12-25T09:50:39Z</time></trkpt><trkpt lat="51.8857126683" lon="39.4841381628"><ele>117.90</ele><time>2016-12-25T09:50:43Z</time></trkpt><trkpt lat="51.8854468782" lon="39.4837252703"><ele>118.38</ele><time>2016-12-25T09:50:51Z</time></trkpt><trkpt lat="51.8853802420" lon="39.4834412076"><ele>119.82</ele><time>2016-12-25T09:50:56Z</time></trkpt><trkpt lat="51.8848638330" lon="39.4831459131"><ele>120.78</ele><time>2016-12-25T09:51:08Z</time></trkpt><trkpt lat="51.8847733084" lon="39.4831044227"><ele>121.26</ele><time>2016-12-25T09:51:10Z</time></trkpt><trkpt lat="51.8844104558" lon="39.4829131477"><ele>121.74</ele><time>2016-12-25T09:51:19Z</time></trkpt><trkpt lat="51.8840852380" lon="39.4827628601"><ele>119.82</ele><time>2016-12-25T09:51:26Z</time></trkpt><trkpt lat="51.8835673202" lon="39.4824546576"><ele>120.30</ele><time>2016-12-25T09:51:39Z</time></trkpt><trkpt lat="51.8834417593" lon="39.4823748618"><ele>120.78</ele><time>2016-12-25T09:51:42Z</time></trkpt><trkpt lat="51.8828143738" lon="39.4820716884"><ele>119.82</ele><time>2016-12-25T09:51:56Z</time></trkpt><trkpt lat="51.8823310733" lon="39.4818381686"><ele>121.74</ele><time>2016-12-25T09:52:06Z</time></trkpt><trkpt lat="51.8819362018" lon="39.4816477317"><ele>120.30</ele><time>2016-12-25T09:52:15Z</time></trkpt><trkpt lat="51.8817977328" lon="39.4815485738"><ele>120.30</ele><time>2016-12-25T09:52:18Z</time></trkpt><trkpt lat="51.8816544022" lon="39.4813626632"><ele>121.74</ele><time>2016-12-25T09:52:22Z</time></trkpt><trkpt lat="51.8814815674" lon="39.4811343402"><ele>122.22</ele><time>2016-12-25T09:52:27Z</time></trkpt><trkpt lat="51.8813581858" lon="39.4810470846"><ele>121.26</ele><time>2016-12-25T09:52:30Z</time></trkpt><trkpt lat="51.8811159488" lon="39.4810308237"><ele>120.78</ele><time>2016-12-25T09:52:35Z</time></trkpt><trkpt lat="51.8810250051" lon="39.4810615852"><ele>120.78</ele><time>2016-12-25T09:52:37Z</time></trkpt><trkpt lat="51.8808457162" lon="39.4810741581"><ele>120.78</ele><time>2016-12-25T09:52:41Z</time></trkpt><trkpt lat="51.8802459911" lon="39.4807729125"><ele>120.78</ele><time>2016-12-25T09:52:54Z</time></trkpt><trkpt lat="51.8801081926" lon="39.4807040133"><ele>121.26</ele><time>2016-12-25T09:52:57Z</time></trkpt><trkpt lat="51.8799276464" lon="39.4806250557"><ele>121.26</ele><time>2016-12-25T09:53:01Z</time></trkpt><trkpt lat="51.8793635443" lon="39.4803704973"><ele>122.22</ele><time>2016-12-25T09:53:14Z</time></trkpt><trkpt lat="51.8790135160" lon="39.4800871052"><ele>125.59</ele><time>2016-12-25T09:53:26Z</time></trkpt><trkpt lat="51.8791108299" lon="39.4794379268"><ele>123.19</ele><time>2016-12-25T09:53:38Z</time></trkpt><trkpt lat="51.8793290947" lon="39.4782567490"><ele>118.38</ele><time>2016-12-25T09:53:54Z</time></trkpt><trkpt lat="51.8795574177" lon="39.4770274591"><ele>118.86</ele><time>2016-12-25T09:54:10Z</time></trkpt><trkpt lat="51.8796133250" lon="39.4767480902"><ele>118.86</ele><time>2016-12-25T09:54:14Z</time></trkpt><trkpt lat="51.8798565678" lon="39.4755033776"><ele>118.38</ele><time>2016-12-25T09:54:31Z</time></trkpt><trkpt lat="51.8798857369" lon="39.4753549341"><ele>118.38</ele><time>2016-12-25T09:54:33Z</time></trkpt><trkpt lat="51.8799021654" lon="39.4752835203"><ele>118.38</ele><time>2016-12-25T09:54:34Z</time></trkpt><trkpt lat="51.8800651096" lon="39.4744677935"><ele>119.34</ele><time>2016-12-25T09:54:45Z</time></trkpt><trkpt lat="51.8800829630" lon="39.4743905962"><ele>118.86</ele><time>2016-12-25T09:54:46Z</time></trkpt><trkpt lat="51.8800983857" lon="39.4743187632"><ele>118.38</ele><time>2016-12-25T09:54:47Z</time></trkpt><trkpt lat="51.8801141437" lon="39.4742413145"><ele>118.38</ele><time>2016-12-25T09:54:48Z</time></trkpt><trkpt lat="51.8801288959" lon="39.4741624407"><ele>117.90</ele><time>2016-12-25T09:54:49Z</time></trkpt><trkpt lat="51.8801446538" lon="39.4740893506"><ele>117.90</ele><time>2016-12-25T09:54:50Z</time></trkpt><trkpt lat="51.8801589869" lon="39.4740142487"><ele>117.42</ele><time>2016-12-25T09:54:51Z</time></trkpt><trkpt lat="51.8801724818" lon="39.4739345368"><ele>117.42</ele><time>2016-12-25T09:54:52Z</time></trkpt><trkpt lat="51.8802045844" lon="39.4737797230"><ele>116.94</ele><time>2016-12-25T09:54:54Z</time></trkpt><trkpt lat="51.8802213483" lon="39.4737029448"><ele>116.46</ele><time>2016-12-25T09:54:55Z</time></trkpt><trkpt lat="51.8804576341" lon="39.4724121317"><ele>114.53</ele><time>2016-12-25T09:55:12Z</time></trkpt><trkpt lat="51.8805952650" lon="39.4716968201"><ele>115.50</ele><time>2016-12-25T09:55:21Z</time></trkpt><trkpt lat="51.8806124479" lon="39.4716188684"><ele>115.50</ele><time>2016-12-25T09:55:22Z</time></trkpt><trkpt lat="51.8807784095" lon="39.4707059953"><ele>116.46</ele><time>2016-12-25T09:55:33Z</time></trkpt><trkpt lat="51.8808626477" lon="39.4702631794"><ele>117.42</ele><time>2016-12-25T09:55:38Z</time></trkpt><trkpt lat="51.8810892105" lon="39.4691339694"><ele>115.98</ele><time>2016-12-25T09:55:52Z</time></trkpt><trkpt lat="51.8812720198" lon="39.4681246206"><ele>117.42</ele><time>2016-12-25T09:56:04Z</time></trkpt><trkpt lat="51.8813094031" lon="39.4679697230"><ele>117.90</ele><time>2016-12-25T09:56:06Z</time></trkpt><trkpt lat="51.8815175258" lon="39.4668470509"><ele>118.86</ele><time>2016-12-25T09:56:21Z</time></trkpt><trkpt lat="51.8816347048" lon="39.4660512730"><ele>118.86</ele><time>2016-12-25T09:56:32Z</time></trkpt><trkpt lat="51.8817367125" lon="39.4653594308"><ele>120.30</ele><time>2016-12-25T09:56:46Z</time></trkpt><trkpt lat="51.8814325333" lon="39.4651327003"><ele>121.26</ele><time>2016-12-25T09:56:56Z</time></trkpt><trkpt lat="51.8806206621" lon="39.4647071511"><ele>118.86</ele><time>2016-12-25T09:57:12Z</time></trkpt><trkpt lat="51.8798779417" lon="39.4643455558"><ele>118.38</ele><time>2016-12-25T09:57:28Z</time></trkpt><trkpt lat="51.8796056136" lon="39.4641991239"><ele>117.90</ele><time>2016-12-25T09:57:34Z</time></trkpt><trkpt lat="51.8788668327" lon="39.4638122153"><ele>119.82</ele><time>2016-12-25T09:57:51Z</time></trkpt><trkpt lat="51.8780832924" lon="39.4633999933"><ele>119.34</ele><time>2016-12-25T09:58:09Z</time></trkpt><trkpt lat="51.8772224709" lon="39.4629865140"><ele>119.82</ele><time>2016-12-25T09:58:27Z</time></trkpt><trkpt lat="51.8767246697" lon="39.4627583586"><ele>119.34</ele><time>2016-12-25T09:58:37Z</time></trkpt><trkpt lat="51.8760074303" lon="39.4623950031"><ele>118.38</ele><time>2016-12-25T09:58:51Z</time></trkpt><trkpt lat="51.8753692321" lon="39.4620711263"><ele>119.34</ele><time>2016-12-25T09:59:03Z</time></trkpt><trkpt lat="51.8745561875" lon="39.4616900850"><ele>120.30</ele><time>2016-12-25T09:59:19Z</time></trkpt><trkpt lat="51.8738693744" lon="39.4613491930"><ele>120.78</ele><time>2016-12-25T09:59:33Z</time></trkpt><trkpt lat="51.8731835671" lon="39.4610112347"><ele>120.78</ele><time>2016-12-25T09:59:46Z</time></trkpt><trkpt lat="51.8724683393" lon="39.4606451970"><ele>121.26</ele><time>2016-12-25T10:00:00Z</time></trkpt><trkpt lat="51.8718153890" lon="39.4603282772"><ele>123.19</ele><time>2016-12-25T10:00:14Z</time></trkpt><trkpt lat="51.8709339481" lon="39.4598826952"><ele>124.63</ele><time>2016-12-25T10:00:31Z</time></trkpt><trkpt lat="51.8701692671" lon="39.4595434796"><ele>125.11</ele><time>2016-12-25T10:00:47Z</time></trkpt><trkpt lat="51.8694790173" lon="39.4592328463"><ele>127.03</ele><time>2016-12-25T10:01:02Z</time></trkpt><trkpt lat="51.8690350279" lon="39.4590012543"><ele>127.03</ele><time>2016-12-25T10:01:12Z</time></trkpt><trkpt lat="51.8684500549" lon="39.4587042835"><ele>127.03</ele><time>2016-12-25T10:01:25Z</time></trkpt><trkpt lat="51.8678231724" lon="39.4583880343"><ele>127.51</ele><time>2016-12-25T10:01:40Z</time></trkpt><trkpt lat="51.8672847189" lon="39.4581068214"><ele>127.03</ele><time>2016-12-25T10:01:52Z</time></trkpt><trkpt lat="51.8666424975" lon="39.4578093477"><ele>126.55</ele><time>2016-12-25T10:02:06Z</time></trkpt><trkpt lat="51.8660413474" lon="39.4574832916"><ele>128.47</ele><time>2016-12-25T10:02:20Z</time></trkpt><trkpt lat="51.8653813563" lon="39.4571782742"><ele>128.95</ele><time>2016-12-25T10:02:35Z</time></trkpt><trkpt lat="51.8649127241" lon="39.4569274876"><ele>127.99</ele><time>2016-12-25T10:02:45Z</time></trkpt><trkpt lat="51.8648646958" lon="39.4568997435"><ele>127.51</ele><time>2016-12-25T10:02:46Z</time></trkpt><trkpt lat="51.8643293437" lon="39.4566321094"><ele>127.51</ele><time>2016-12-25T10:02:58Z</time></trkpt><trkpt lat="51.8642867636" lon="39.4566114899"><ele>127.51</ele><time>2016-12-25T10:02:59Z</time></trkpt><trkpt lat="51.8638228253" lon="39.4563906267"><ele>127.51</ele><time>2016-12-25T10:03:10Z</time></trkpt><trkpt lat="51.8633843679" lon="39.4561897125"><ele>131.84</ele><time>2016-12-25T10:03:22Z</time></trkpt><trkpt lat="51.8631033227" lon="39.4560442865"><ele>132.32</ele><time>2016-12-25T10:03:30Z</time></trkpt><trkpt lat="51.8630625866" lon="39.4560180511"><ele>132.32</ele><time>2016-12-25T10:03:31Z</time></trkpt><trkpt lat="51.8629407976" lon="39.4559510797"><ele>131.36</ele><time>2016-12-25T10:03:34Z</time></trkpt><trkpt lat="51.8629025761" lon="39.4559307117"><ele>131.36</ele><time>2016-12-25T10:03:35Z</time></trkpt><trkpt lat="51.8628628459" lon="39.4559130259"><ele>131.36</ele><time>2016-12-25T10:03:36Z</time></trkpt><trkpt lat="51.8628235348" lon="39.4558961783"><ele>131.36</ele><time>2016-12-25T10:03:37Z</time></trkpt><trkpt lat="51.8627799489" lon="39.4558761455"><ele>131.36</ele><time>2016-12-25T10:03:38Z</time></trkpt><trkpt lat="51.8627372012" lon="39.4558534306"><ele>130.88</ele><time>2016-12-25T10:03:39Z</time></trkpt><trkpt lat="51.8626900949" lon="39.4558318891"><ele>130.88</ele><time>2016-12-25T10:03:40Z</time></trkpt><trkpt lat="51.8619417585" lon="39.4554568827"><ele>125.11</ele><time>2016-12-25T10:03:53Z</time></trkpt><trkpt lat="51.8614474777" lon="39.4552077726"><ele>125.59</ele><time>2016-12-25T10:04:02Z</time></trkpt><trkpt lat="51.8614005391" lon="39.4551839679"><ele>126.07</ele><time>2016-12-25T10:04:03Z</time></trkpt><trkpt lat="51.8607522827" lon="39.4548548106"><ele>123.19</ele><time>2016-12-25T10:04:16Z</time></trkpt><trkpt lat="51.8600837421" lon="39.4547234662"><ele>127.03</ele><time>2016-12-25T10:04:30Z</time></trkpt><trkpt lat="51.8600290921" lon="39.4547331892"><ele>127.03</ele><time>2016-12-25T10:04:31Z</time></trkpt><trkpt lat="51.8599837460" lon="39.4547499530"><ele>127.03</ele><time>2016-12-25T10:04:32Z</time></trkpt><trkpt lat="51.8599321973" lon="39.4547787029"><ele>127.03</ele><time>2016-12-25T10:04:33Z</time></trkpt><trkpt lat="51.8598794751" lon="39.4548159186"><ele>127.03</ele><time>2016-12-25T10:04:34Z</time></trkpt><trkpt lat="51.8598254118" lon="39.4548574928"><ele>127.03</ele><time>2016-12-25T10:04:35Z</time></trkpt><trkpt lat="51.8591157161" lon="39.4553433917"><ele>127.99</ele><time>2016-12-25T10:04:48Z</time></trkpt><trkpt lat="51.8585211877" lon="39.4556783326"><ele>128.47</ele><time>2016-12-25T10:04:59Z</time></trkpt><trkpt lat="51.8577538244" lon="39.4560236670"><ele>127.51</ele><time>2016-12-25T10:05:13Z</time></trkpt><trkpt lat="51.8570432067" lon="39.4565501343"><ele>125.11</ele><time>2016-12-25T10:05:26Z</time></trkpt><trkpt lat="51.8562866561" lon="39.4569698162"><ele>124.63</ele><time>2016-12-25T10:05:39Z</time></trkpt><trkpt lat="51.8556709215" lon="39.4572743308"><ele>124.63</ele><time>2016-12-25T10:05:49Z</time></trkpt><trkpt lat="51.8547216710" lon="39.4576614071"><ele>123.67</ele><time>2016-12-25T10:06:03Z</time></trkpt><trkpt lat="51.8542137276" lon="39.4579846971"><ele>122.22</ele><time>2016-12-25T10:06:16Z</time></trkpt><trkpt lat="51.8540473469" lon="39.4581725355"><ele>121.26</ele><time>2016-12-25T10:06:23Z</time></trkpt><trkpt lat="51.8540320080" lon="39.4583145250"><ele>119.34</ele><time>2016-12-25T10:06:34Z</time></trkpt><trkpt lat="51.8540491909" lon="39.4583590329"><ele>119.34</ele><time>2016-12-25T10:06:47Z</time></trkpt><trkpt lat="51.8540524598" lon="39.4583508186"><ele>121.74</ele><time>2016-12-25T10:07:07Z</time></trkpt><trkpt lat="51.8540258054" lon="39.4583712704"><ele>120.78</ele><time>2016-12-25T10:07:45Z</time></trkpt><trkpt lat="51.8540173396" lon="39.4583463762"><ele>122.22</ele><time>2016-12-25T10:08:31Z</time></trkpt><trkpt lat="51.8540134840" lon="39.4583669119"><ele>123.67</ele><time>2016-12-25T10:09:04Z</time></trkpt><trkpt lat="51.8540156633" lon="39.4583763834"><ele>124.15</ele><time>2016-12-25T10:09:44Z</time></trkpt><trkpt lat="51.8540158309" lon="39.4584064744"><ele>122.71</ele><time>2016-12-25T10:10:22Z</time></trkpt><trkpt lat="51.8540205248" lon="39.4583688397"><ele>121.26</ele><time>2016-12-25T10:10:55Z</time></trkpt><trkpt lat="51.8540450837" lon="39.4583674148"><ele>121.74</ele><time>2016-12-25T10:11:28Z</time></trkpt><trkpt lat="51.8540474307" lon="39.4583795685"><ele>122.22</ele><time>2016-12-25T10:12:06Z</time></trkpt><trkpt lat="51.8540620152" lon="39.4583634753"><ele>121.26</ele><time>2016-12-25T10:12:42Z</time></trkpt><trkpt lat="51.8540546391" lon="39.4583439454"><ele>120.30</ele><time>2016-12-25T10:13:27Z</time></trkpt><trkpt lat="51.8540530466" lon="39.4583640620"><ele>119.82</ele><time>2016-12-25T10:14:00Z</time></trkpt><trkpt lat="51.8540368695" lon="39.4583617151"><ele>119.34</ele><time>2016-12-25T10:14:30Z</time></trkpt><trkpt lat="51.8540389650" lon="39.4583424367"><ele>120.78</ele><time>2016-12-25T10:15:09Z</time></trkpt><trkpt lat="51.8540197704" lon="39.4583467115"><ele>120.30</ele><time>2016-12-25T10:15:41Z</time></trkpt><trkpt lat="51.8540301640" lon="39.4583793171"><ele>122.22</ele><time>2016-12-25T10:16:28Z</time></trkpt><trkpt lat="51.8540234584" lon="39.4583644811"><ele>123.67</ele><time>2016-12-25T10:16:54Z</time></trkpt><trkpt lat="51.8540336844" lon="39.4583612960"><ele>123.67</ele><time>2016-12-25T10:17:30Z</time></trkpt><trkpt lat="51.8540557288" lon="39.4583601225"><ele>121.26</ele><time>2016-12-25T10:18:08Z</time></trkpt><trkpt lat="51.8540500291" lon="39.4583819155"><ele>119.34</ele><time>2016-12-25T10:18:44Z</time></trkpt><trkpt lat="51.8540510349" lon="39.4583793171"><ele>118.38</ele><time>2016-12-25T10:19:16Z</time></trkpt><trkpt lat="51.8540623505" lon="39.4583780598"><ele>117.42</ele><time>2016-12-25T10:19:50Z</time></trkpt><trkpt lat="51.8540333491" lon="39.4583856873"><ele>118.86</ele><time>2016-12-25T10:20:28Z</time></trkpt><trkpt lat="51.8539864104" lon="39.4583444484"><ele>119.34</ele><time>2016-12-25T10:20:41Z</time></trkpt><trkpt lat="51.8538878392" lon="39.4580489863"><ele>118.86</ele><time>2016-12-25T10:20:50Z</time></trkpt><trkpt lat="51.8537499569" lon="39.4574728142"><ele>118.86</ele><time>2016-12-25T10:21:00Z</time></trkpt><trkpt lat="51.8537463527" lon="39.4574070163"><ele>118.86</ele><time>2016-12-25T10:21:01Z</time></trkpt><trkpt lat="51.8537460174" lon="39.4573433138"><ele>118.86</ele><time>2016-12-25T10:21:02Z</time></trkpt><trkpt lat="51.8537504598" lon="39.4572823774"><ele>118.86</ele><time>2016-12-25T10:21:03Z</time></trkpt><trkpt lat="51.8537597638" lon="39.4572200160"><ele>118.86</ele><time>2016-12-25T10:21:04Z</time></trkpt><trkpt lat="51.8537714984" lon="39.4571600854"><ele>119.34</ele><time>2016-12-25T10:21:05Z</time></trkpt><trkpt lat="51.8537865020" lon="39.4571042620"><ele>119.34</ele><time>2016-12-25T10:21:06Z</time></trkpt><trkpt lat="51.8538041040" lon="39.4570507854"><ele>119.34</ele><time>2016-12-25T10:21:07Z</time></trkpt><trkpt lat="51.8540273979" lon="39.4563436881"><ele>119.82</ele><time>2016-12-25T10:21:20Z</time></trkpt><trkpt lat="51.8541638553" lon="39.4555695355"><ele>116.94</ele><time>2016-12-25T10:21:34Z</time></trkpt><trkpt lat="51.8543259613" lon="39.4548149966"><ele>116.94</ele><time>2016-12-25T10:21:48Z</time></trkpt><trkpt lat="51.8544464093" lon="39.4541173708"><ele>118.86</ele><time>2016-12-25T10:22:00Z</time></trkpt><trkpt lat="51.8546561245" lon="39.4533472415"><ele>121.74</ele><time>2016-12-25T10:22:14Z</time></trkpt><trkpt lat="51.8549170531" lon="39.4529029168"><ele>123.67</ele><time>2016-12-25T10:22:25Z</time></trkpt><trkpt lat="51.8552842643" lon="39.4523297623"><ele>125.11</ele><time>2016-12-25T10:22:39Z</time></trkpt><trkpt lat="51.8556904513" lon="39.4519274309"><ele>125.59</ele><time>2016-12-25T10:22:52Z</time></trkpt><trkpt lat="51.8561160006" lon="39.4514120277"><ele>126.07</ele><time>2016-12-25T10:23:05Z</time></trkpt><trkpt lat="51.8565408792" lon="39.4507726561"><ele>126.07</ele><time>2016-12-25T10:23:19Z</time></trkpt><trkpt lat="51.8570766505" lon="39.4503177702"><ele>125.11</ele><time>2016-12-25T10:23:34Z</time></trkpt><trkpt lat="51.8575445283" lon="39.4498208910"><ele>124.63</ele><time>2016-12-25T10:23:47Z</time></trkpt><trkpt lat="51.8576511461" lon="39.4496918935"><ele>124.63</ele><time>2016-12-25T10:23:50Z</time></trkpt><trkpt lat="51.8576828297" lon="39.4496369921"><ele>124.63</ele><time>2016-12-25T10:23:51Z</time></trkpt><trkpt lat="51.8577092327" lon="39.4495763071"><ele>124.63</ele><time>2016-12-25T10:23:52Z</time></trkpt><trkpt lat="51.8577308580" lon="39.4495116826"><ele>124.63</ele><time>2016-12-25T10:23:53Z</time></trkpt><trkpt lat="51.8577477895" lon="39.4494447950"><ele>124.63</ele><time>2016-12-25T10:23:54Z</time></trkpt><trkpt lat="51.8577606976" lon="39.4493753929"><ele>124.15</ele><time>2016-12-25T10:23:55Z</time></trkpt><trkpt lat="51.8577713426" lon="39.4493048172"><ele>124.15</ele><time>2016-12-25T10:23:56Z</time></trkpt><trkpt lat="51.8577906210" lon="39.4491667673"><ele>123.67</ele><time>2016-12-25T10:23:58Z</time></trkpt><trkpt lat="51.8578187004" lon="39.4490373507"><ele>123.19</ele><time>2016-12-25T10:24:00Z</time></trkpt><trkpt lat="51.8578794692" lon="39.4488516916"><ele>123.19</ele><time>2016-12-25T10:24:03Z</time></trkpt><trkpt lat="51.8579061236" lon="39.4487972092"><ele>123.19</ele><time>2016-12-25T10:24:04Z</time></trkpt><trkpt lat="51.8579636235" lon="39.4486936089"><ele>123.67</ele><time>2016-12-25T10:24:06Z</time></trkpt><trkpt lat="51.8581248075" lon="39.4482914452"><ele>125.11</ele><time>2016-12-25T10:24:13Z</time></trkpt><trkpt lat="51.8581373803" lon="39.4482265692"><ele>125.11</ele><time>2016-12-25T10:24:14Z</time></trkpt><trkpt lat="51.8582778610" lon="39.4473893847"><ele>125.11</ele><time>2016-12-25T10:24:26Z</time></trkpt><trkpt lat="51.8584996462" lon="39.4465718977"><ele>124.63</ele><time>2016-12-25T10:24:38Z</time></trkpt><trkpt lat="51.8586934358" lon="39.4458446000"><ele>126.07</ele><time>2016-12-25T10:24:51Z</time></trkpt><trkpt lat="51.8587210961" lon="39.4457782991"><ele>125.59</ele><time>2016-12-25T10:24:52Z</time></trkpt><trkpt lat="51.8587537017" lon="39.4457144290"><ele>125.11</ele><time>2016-12-25T10:24:53Z</time></trkpt><trkpt lat="51.8592140358" lon="39.4450100139"><ele>123.67</ele><time>2016-12-25T10:25:07Z</time></trkpt><trkpt lat="51.8594124354" lon="39.4444589037"><ele>123.19</ele><time>2016-12-25T10:25:18Z</time></trkpt><trkpt lat="51.8594319653" lon="39.4443361927"><ele>123.19</ele><time>2016-12-25T10:25:20Z</time></trkpt><trkpt lat="51.8594908901" lon="39.4439686462"><ele>122.71</ele><time>2016-12-25T10:25:26Z</time></trkpt><trkpt lat="51.8596010283" lon="39.4434839208"><ele>123.19</ele><time>2016-12-25T10:25:33Z</time></trkpt><trkpt lat="51.8596831709" lon="39.4430579524"><ele>122.71</ele><time>2016-12-25T10:25:39Z</time></trkpt><trkpt lat="51.8596872780" lon="39.4429803360"><ele>122.22</ele><time>2016-12-25T10:25:40Z</time></trkpt><trkpt lat="51.8596920557" lon="39.4429111015"><ele>121.74</ele><time>2016-12-25T10:25:41Z</time></trkpt><trkpt lat="51.8597570155" lon="39.4418823905"><ele>116.94</ele><time>2016-12-25T10:25:56Z</time></trkpt><trkpt lat="51.8598342128" lon="39.4414562546"><ele>117.42</ele><time>2016-12-25T10:26:02Z</time></trkpt><trkpt lat="51.8598519824" lon="39.4413096551"><ele>117.90</ele><time>2016-12-25T10:26:04Z</time></trkpt><trkpt lat="51.8598550837" lon="39.4412389118"><ele>117.90</ele><time>2016-12-25T10:26:05Z</time></trkpt><trkpt lat="51.8598545808" lon="39.4405287970"><ele>117.90</ele><time>2016-12-25T10:26:15Z</time></trkpt><trkpt lat="51.8598615378" lon="39.4404590596"><ele>117.90</ele><time>2016-12-25T10:26:16Z</time></trkpt><trkpt lat="51.8598720152" lon="39.4403876457"><ele>117.90</ele><time>2016-12-25T10:26:17Z</time></trkpt><trkpt lat="51.8599739391" lon="39.4396184385"><ele>117.90</ele><time>2016-12-25T10:26:27Z</time></trkpt><trkpt lat="51.8599896971" lon="39.4395539816"><ele>117.90</ele><time>2016-12-25T10:26:28Z</time></trkpt><trkpt lat="51.8601673935" lon="39.4389213156"><ele>119.34</ele><time>2016-12-25T10:26:43Z</time></trkpt><trkpt lat="51.8601534795" lon="39.4389125984"><ele>119.34</ele><time>2016-12-25T10:26:45Z</time></trkpt><trkpt lat="51.8601378053" lon="39.4389047194"><ele>120.78</ele><time>2016-12-25T10:26:57Z</time></trkpt><trkpt lat="51.8599568401" lon="39.4388784841"><ele>121.74</ele><time>2016-12-25T10:27:08Z</time></trkpt><trkpt lat="51.8596146069" lon="39.4385928288"><ele>120.78</ele><time>2016-12-25T10:27:20Z</time></trkpt><trkpt lat="51.8594246730" lon="39.4380864780"><ele>120.78</ele><time>2016-12-25T10:27:30Z</time></trkpt><trkpt lat="51.8591329828" lon="39.4373242278"><ele>119.82</ele><time>2016-12-25T10:27:44Z</time></trkpt><trkpt lat="51.8589213397" lon="39.4365509134"><ele>121.26</ele><time>2016-12-25T10:27:56Z</time></trkpt><trkpt lat="51.8587226886" lon="39.4361857139"><ele>121.26</ele><time>2016-12-25T10:28:04Z</time></trkpt><trkpt lat="51.8586507719" lon="39.4360864721"><ele>121.74</ele><time>2016-12-25T10:28:06Z</time></trkpt><trkpt lat="51.8583534658" lon="39.4353980664"><ele>124.63</ele><time>2016-12-25T10:28:19Z</time></trkpt><trkpt lat="51.8581229635" lon="39.4347959943"><ele>124.63</ele><time>2016-12-25T10:28:30Z</time></trkpt><trkpt lat="51.8580223806" lon="39.4346024562"><ele>124.63</ele><time>2016-12-25T10:28:34Z</time></trkpt><trkpt lat="51.8579208758" lon="39.4344240893"><ele>125.11</ele><time>2016-12-25T10:28:37Z</time></trkpt><trkpt lat="51.8578773737" lon="39.4343675952"><ele>125.59</ele><time>2016-12-25T10:28:38Z</time></trkpt><trkpt lat="51.8577486277" lon="39.4341992028"><ele>125.11</ele><time>2016-12-25T10:28:41Z</time></trkpt><trkpt lat="51.8576320354" lon="39.4340226799"><ele>123.67</ele><time>2016-12-25T10:28:44Z</time></trkpt><trkpt lat="51.8575898744" lon="39.4339771662"><ele>123.67</ele><time>2016-12-25T10:28:45Z</time></trkpt><trkpt lat="51.8575472943" lon="39.4339432195"><ele>123.67</ele><time>2016-12-25T10:28:46Z</time></trkpt><trkpt lat="51.8572058994" lon="39.4338608254"><ele>123.19</ele><time>2016-12-25T10:28:55Z</time></trkpt><trkpt lat="51.8571662530" lon="39.4338393677"><ele>123.19</ele><time>2016-12-25T10:28:56Z</time></trkpt><trkpt lat="51.8571297918" lon="39.4338130485"><ele>123.19</ele><time>2016-12-25T10:28:57Z</time></trkpt><trkpt lat="51.8570961803" lon="39.4337827899"><ele>123.67</ele><time>2016-12-25T10:28:58Z</time></trkpt><trkpt lat="51.8570691906" lon="39.4337486755"><ele>123.67</ele><time>2016-12-25T10:28:59Z</time></trkpt><trkpt lat="51.8570434581" lon="39.4337071851"><ele>123.19</ele><time>2016-12-25T10:29:00Z</time></trkpt><trkpt lat="51.8570254371" lon="39.4336645212"><ele>123.19</ele><time>2016-12-25T10:29:01Z</time></trkpt><trkpt lat="51.8570090923" lon="39.4335686322"><ele>123.19</ele><time>2016-12-25T10:29:03Z</time></trkpt><trkpt lat="51.8568561226" lon="39.4330231380"><ele>125.11</ele><time>2016-12-25T10:29:14Z</time></trkpt><trkpt lat="51.8564282265" lon="39.4323371630"><ele>124.63</ele><time>2016-12-25T10:29:28Z</time></trkpt><trkpt lat="51.8560859095" lon="39.4318339974"><ele>121.26</ele><time>2016-12-25T10:29:39Z</time></trkpt><trkpt lat="51.8557781260" lon="39.4315221068"><ele>120.30</ele><time>2016-12-25T10:29:47Z</time></trkpt><trkpt lat="51.8553415965" lon="39.4311377965"><ele>121.26</ele><time>2016-12-25T10:29:58Z</time></trkpt><trkpt lat="51.8552582804" lon="39.4310568273"><ele>121.26</ele><time>2016-12-25T10:30:00Z</time></trkpt><trkpt lat="51.8551763892" lon="39.4309865870"><ele>121.26</ele><time>2016-12-25T10:30:02Z</time></trkpt><trkpt lat="51.8550293706" lon="39.4308347069"><ele>122.22</ele><time>2016-12-25T10:30:06Z</time></trkpt><trkpt lat="51.8545011431" lon="39.4303894602"><ele>122.22</ele><time>2016-12-25T10:30:19Z</time></trkpt><trkpt lat="51.8543776777" lon="39.4302897993"><ele>122.22</ele><time>2016-12-25T10:30:22Z</time></trkpt><trkpt lat="51.8543326668" lon="39.4302592054"><ele>122.71</ele><time>2016-12-25T10:30:23Z</time></trkpt><trkpt lat="51.8542464171" lon="39.4301934913"><ele>122.71</ele><time>2016-12-25T10:30:25Z</time></trkpt><trkpt lat="51.8538774457" lon="39.4299710356"><ele>122.22</ele><time>2016-12-25T10:30:33Z</time></trkpt><trkpt lat="51.8538261484" lon="39.4299472310"><ele>121.74</ele><time>2016-12-25T10:30:34Z</time></trkpt><trkpt lat="51.8532381579" lon="39.4296866376"><ele>118.86</ele><time>2016-12-25T10:30:46Z</time></trkpt><trkpt lat="51.8524743151" lon="39.4294021558"><ele>117.42</ele><time>2016-12-25T10:31:02Z</time></trkpt><trkpt lat="51.8517644517" lon="39.4291493576"><ele>118.38</ele><time>2016-12-25T10:31:17Z</time></trkpt><trkpt lat="51.8509762175" lon="39.4288720842"><ele>116.94</ele><time>2016-12-25T10:31:34Z</time></trkpt><trkpt lat="51.8502738141" lon="39.4286415819"><ele>116.46</ele><time>2016-12-25T10:31:49Z</time></trkpt><trkpt lat="51.8500860594" lon="39.4285741914"><ele>116.94</ele><time>2016-12-25T10:31:53Z</time></trkpt><trkpt lat="51.8494024314" lon="39.4282839261"><ele>118.86</ele><time>2016-12-25T10:32:09Z</time></trkpt><trkpt lat="51.8487648200" lon="39.4279986061"><ele>119.82</ele><time>2016-12-25T10:32:24Z</time></trkpt><trkpt lat="51.8482560385" lon="39.4277700316"><ele>121.26</ele><time>2016-12-25T10:32:37Z</time></trkpt><trkpt lat="51.8477998115" lon="39.4275386073"><ele>123.67</ele><time>2016-12-25T10:32:50Z</time></trkpt><trkpt lat="51.8473011721" lon="39.4272988848"><ele>125.11</ele><time>2016-12-25T10:33:04Z</time></trkpt><trkpt lat="51.8468390778" lon="39.4270589110"><ele>125.59</ele><time>2016-12-25T10:33:17Z</time></trkpt><trkpt lat="51.8464514147" lon="39.4266495388"><ele>125.11</ele><time>2016-12-25T10:33:31Z</time></trkpt><trkpt lat="51.8464324716" lon="39.4258472230"><ele>118.38</ele><time>2016-12-25T10:33:44Z</time></trkpt><trkpt lat="51.8464501575" lon="39.4252189156"><ele>113.57</ele><time>2016-12-25T10:33:54Z</time></trkpt><trkpt lat="51.8464689329" lon="39.4243629556"><ele>113.09</ele><time>2016-12-25T10:34:07Z</time></trkpt><trkpt lat="51.8464736268" lon="39.4240860175"><ele>112.13</ele><time>2016-12-25T10:34:11Z</time></trkpt><trkpt lat="51.8464825954" lon="39.4231502619"><ele>105.88</ele><time>2016-12-25T10:34:23Z</time></trkpt><trkpt lat="51.8465095852" lon="39.4223787915"><ele>107.81</ele><time>2016-12-25T10:34:36Z</time></trkpt><trkpt lat="51.8465141114" lon="39.4216992706"><ele>107.32</ele><time>2016-12-25T10:34:49Z</time></trkpt><trkpt lat="51.8465263490" lon="39.4210109487"><ele>107.32</ele><time>2016-12-25T10:35:01Z</time></trkpt><trkpt lat="51.8465227447" lon="39.4204405602"><ele>109.73</ele><time>2016-12-25T10:35:12Z</time></trkpt><trkpt lat="51.8465007842" lon="39.4198188744"><ele>113.09</ele><time>2016-12-25T10:35:26Z</time></trkpt><trkpt lat="51.8465162069" lon="39.4191224221"><ele>112.13</ele><time>2016-12-25T10:35:38Z</time></trkpt><trkpt lat="51.8465172965" lon="39.4184544683"><ele>111.65</ele><time>2016-12-25T10:35:50Z</time></trkpt><trkpt lat="51.8464953359" lon="39.4178871810"><ele>115.50</ele><time>2016-12-25T10:36:03Z</time></trkpt><trkpt lat="51.8465331383" lon="39.4172328059"><ele>113.57</ele><time>2016-12-25T10:36:14Z</time></trkpt><trkpt lat="51.8465224095" lon="39.4165770058"><ele>112.13</ele><time>2016-12-25T10:36:26Z</time></trkpt><trkpt lat="51.8465276062" lon="39.4162609242"><ele>110.69</ele><time>2016-12-25T10:36:31Z</time></trkpt><trkpt lat="51.8465554342" lon="39.4152991008"><ele>107.32</ele><time>2016-12-25T10:36:44Z</time></trkpt><trkpt lat="51.8465651572" lon="39.4144208450"><ele>108.29</ele><time>2016-12-25T10:36:58Z</time></trkpt><trkpt lat="51.8465711083" lon="39.4139926974"><ele>108.29</ele><time>2016-12-25T10:37:05Z</time></trkpt><trkpt lat="51.8466017861" lon="39.4132101629"><ele>109.25</ele><time>2016-12-25T10:37:18Z</time></trkpt><trkpt lat="51.8465815857" lon="39.4124333281"><ele>109.73</ele><time>2016-12-25T10:37:31Z</time></trkpt><trkpt lat="51.8465301208" lon="39.4118495286"><ele>107.81</ele><time>2016-12-25T10:37:41Z</time></trkpt><trkpt lat="51.8465944100" lon="39.4110392500"><ele>111.17</ele><time>2016-12-25T10:37:56Z</time></trkpt><trkpt lat="51.8466177117" lon="39.4104642514"><ele>112.61</ele><time>2016-12-25T10:38:05Z</time></trkpt><trkpt lat="51.8465914764" lon="39.4097123947"><ele>116.94</ele><time>2016-12-25T10:38:18Z</time></trkpt><trkpt lat="51.8465251755" lon="39.4091973267"><ele>116.94</ele><time>2016-12-25T10:38:29Z</time></trkpt><trkpt lat="51.8464821763" lon="39.4090067223"><ele>117.90</ele><time>2016-12-25T10:38:34Z</time></trkpt><trkpt lat="51.8466138560" lon="39.4085276127"><ele>118.86</ele><time>2016-12-25T10:38:48Z</time></trkpt><trkpt lat="51.8466560170" lon="39.4081365969"><ele>120.78</ele><time>2016-12-25T10:39:00Z</time></trkpt><trkpt lat="51.8466614652" lon="39.4075094629"><ele>117.42</ele><time>2016-12-25T10:39:12Z</time></trkpt><trkpt lat="51.8466879521" lon="39.4068969134"><ele>118.86</ele><time>2016-12-25T10:39:22Z</time></trkpt><trkpt lat="51.8466913048" lon="39.4063952565"><ele>117.42</ele><time>2016-12-25T10:39:31Z</time></trkpt><trkpt lat="51.8467121758" lon="39.4055940304"><ele>120.30</ele><time>2016-12-25T10:39:44Z</time></trkpt><trkpt lat="51.8466939870" lon="39.4046774693"><ele>116.94</ele><time>2016-12-25T10:39:59Z</time></trkpt><trkpt lat="51.8467034586" lon="39.4044183847"><ele>116.94</ele><time>2016-12-25T10:40:03Z</time></trkpt><trkpt lat="51.8467359804" lon="39.4035547972"><ele>112.13</ele><time>2016-12-25T10:40:13Z</time></trkpt><trkpt lat="51.8467573542" lon="39.4027655572"><ele>111.17</ele><time>2016-12-25T10:40:24Z</time></trkpt><trkpt lat="51.8467451166" lon="39.4020343199"><ele>114.05</ele><time>2016-12-25T10:40:35Z</time></trkpt><trkpt lat="51.8466871977" lon="39.4017541967"><ele>117.42</ele><time>2016-12-25T10:40:45Z</time></trkpt><trkpt lat="51.8466412649" lon="39.4013316650"><ele>118.86</ele><time>2016-12-25T10:40:55Z</time></trkpt><trkpt lat="51.8467261735" lon="39.4008673914"><ele>121.74</ele><time>2016-12-25T10:41:05Z</time></trkpt><trkpt lat="51.8467959110" lon="39.4002554286"><ele>124.15</ele><time>2016-12-25T10:41:17Z</time></trkpt><trkpt lat="51.8467882834" lon="39.3995908275"><ele>120.78</ele><time>2016-12-25T10:41:27Z</time></trkpt><trkpt lat="51.8467953242" lon="39.3984969053"><ele>113.09</ele><time>2016-12-25T10:41:39Z</time></trkpt><trkpt lat="51.8468165305" lon="39.3980111741"><ele>112.61</ele><time>2016-12-25T10:41:47Z</time></trkpt><trkpt lat="51.8468307797" lon="39.3976662587"><ele>111.65</ele><time>2016-12-25T10:41:52Z</time></trkpt><trkpt lat="51.8468490522" lon="39.3973672763"><ele>110.21</ele><time>2016-12-25T10:41:56Z</time></trkpt><trkpt lat="51.8468472082" lon="39.3963481206"><ele>110.21</ele><time>2016-12-25T10:42:10Z</time></trkpt><trkpt lat="51.8468467053" lon="39.3962552492"><ele>110.21</ele><time>2016-12-25T10:42:11Z</time></trkpt><trkpt lat="51.8468607869" lon="39.3958458770"><ele>108.29</ele><time>2016-12-25T10:42:15Z</time></trkpt><trkpt lat="51.8468632177" lon="39.3953411188"><ele>105.88</ele><time>2016-12-25T10:42:21Z</time></trkpt><trkpt lat="51.8468829151" lon="39.3949595746"><ele>107.81</ele><time>2016-12-25T10:42:26Z</time></trkpt><trkpt lat="51.8468869384" lon="39.3944449257"><ele>109.73</ele><time>2016-12-25T10:42:33Z</time></trkpt><trkpt lat="51.8468943145" lon="39.3941756990"><ele>110.21</ele><time>2016-12-25T10:42:36Z</time></trkpt><trkpt lat="51.8469200470" lon="39.3935920671"><ele>108.77</ele><time>2016-12-25T10:42:44Z</time></trkpt><trkpt lat="51.8469357211" lon="39.3928844668"><ele>108.29</ele><time>2016-12-25T10:42:56Z</time></trkpt><trkpt lat="51.8469312787" lon="39.3928362709"><ele>108.77</ele><time>2016-12-25T10:42:58Z</time></trkpt><trkpt lat="51.8466545921" lon="39.3926831335"><ele>110.69</ele><time>2016-12-25T10:43:09Z</time></trkpt><trkpt lat="51.8463354092" lon="39.3925264757"><ele>111.65</ele><time>2016-12-25T10:43:16Z</time></trkpt><trkpt lat="51.8462392688" lon="39.3925209437"><ele>111.65</ele><time>2016-12-25T10:43:18Z</time></trkpt><trkpt lat="51.8461898156" lon="39.3925336841"><ele>111.65</ele><time>2016-12-25T10:43:19Z</time></trkpt><trkpt lat="51.8458499294" lon="39.3927124701"><ele>114.05</ele><time>2016-12-25T10:43:26Z</time></trkpt><trkpt lat="51.8458001409" lon="39.3927290663"><ele>114.05</ele><time>2016-12-25T10:43:27Z</time></trkpt><trkpt lat="51.8457490113" lon="39.3927385379"><ele>114.05</ele><time>2016-12-25T10:43:28Z</time></trkpt><trkpt lat="51.8457004800" lon="39.3927395437"><ele>114.53</ele><time>2016-12-25T10:43:29Z</time></trkpt><trkpt lat="51.8456601631" lon="39.3927312456"><ele>114.53</ele><time>2016-12-25T10:43:30Z</time></trkpt><trkpt lat="51.8456262164" lon="39.3927138112"><ele>114.53</ele><time>2016-12-25T10:43:31Z</time></trkpt><trkpt lat="51.8455923535" lon="39.3926919345"><ele>114.53</ele><time>2016-12-25T10:43:32Z</time></trkpt><trkpt lat="51.8455522042" lon="39.3926705606"><ele>114.05</ele><time>2016-12-25T10:43:33Z</time></trkpt><trkpt lat="51.8455095403" lon="39.3926562276"><ele>114.05</ele><time>2016-12-25T10:43:34Z</time></trkpt><trkpt lat="51.8454649486" lon="39.3926486839"><ele>113.57</ele><time>2016-12-25T10:43:35Z</time></trkpt><trkpt lat="51.8449120782" lon="39.3927552179"><ele>114.53</ele><time>2016-12-25T10:43:47Z</time></trkpt><trkpt lat="51.8445114233" lon="39.3929603230"><ele>117.90</ele><time>2016-12-25T10:43:57Z</time></trkpt><trkpt lat="51.8443693500" lon="39.3930076808"><ele>119.34</ele><time>2016-12-25T10:44:00Z</time></trkpt><trkpt lat="51.8437565491" lon="39.3930877279"><ele>120.78</ele><time>2016-12-25T10:44:13Z</time></trkpt><trkpt lat="51.8432838935" lon="39.3931088503"><ele>120.30</ele><time>2016-12-25T10:44:22Z</time></trkpt><trkpt lat="51.8432332668" lon="39.3930923380"><ele>120.30</ele><time>2016-12-25T10:44:23Z</time></trkpt><trkpt lat="51.8431851547" lon="39.3930682819"><ele>120.78</ele><time>2016-12-25T10:44:24Z</time></trkpt><trkpt lat="51.8430989049" lon="39.3930115364"><ele>121.26</ele><time>2016-12-25T10:44:26Z</time></trkpt><trkpt lat="51.8425923027" lon="39.3927214388"><ele>117.90</ele><time>2016-12-25T10:44:37Z</time></trkpt><trkpt lat="51.8420923222" lon="39.3923676386"><ele>117.90</ele><time>2016-12-25T10:44:51Z</time></trkpt><trkpt lat="51.8417342473" lon="39.3917734455"><ele>115.50</ele><time>2016-12-25T10:45:03Z</time></trkpt><trkpt lat="51.8414205965" lon="39.3913686834"><ele>118.38</ele><time>2016-12-25T10:45:12Z</time></trkpt><trkpt lat="51.8413751666" lon="39.3913354911"><ele>117.90</ele><time>2016-12-25T10:45:13Z</time></trkpt><trkpt lat="51.8413241208" lon="39.3913074955"><ele>117.90</ele><time>2016-12-25T10:45:14Z</time></trkpt><trkpt lat="51.8412722368" lon="39.3912889715"><ele>117.90</ele><time>2016-12-25T10:45:15Z</time></trkpt><trkpt lat="51.8412184250" lon="39.3912815955"><ele>117.90</ele><time>2016-12-25T10:45:16Z</time></trkpt><trkpt lat="51.8411651161" lon="39.3912787456"><ele>117.90</ele><time>2016-12-25T10:45:17Z</time></trkpt><trkpt lat="51.8411144894" lon="39.3912789971"><ele>117.90</ele><time>2016-12-25T10:45:18Z</time></trkpt><trkpt lat="51.8410648685" lon="39.3912833557"><ele>117.90</ele><time>2016-12-25T10:45:19Z</time></trkpt><trkpt lat="51.8410139903" lon="39.3912964314"><ele>118.38</ele><time>2016-12-25T10:45:20Z</time></trkpt><trkpt lat="51.8409652077" lon="39.3913162965"><ele>118.38</ele><time>2016-12-25T10:45:21Z</time></trkpt><trkpt lat="51.8408616912" lon="39.3913635705"><ele>119.34</ele><time>2016-12-25T10:45:23Z</time></trkpt><trkpt lat="51.8402500637" lon="39.3916840944"><ele>119.82</ele><time>2016-12-25T10:45:36Z</time></trkpt><trkpt lat="51.8401972577" lon="39.3916966673"><ele>119.82</ele><time>2016-12-25T10:45:37Z</time></trkpt><trkpt lat="51.8401493970" lon="39.3916988466"><ele>119.82</ele><time>2016-12-25T10:45:38Z</time></trkpt><trkpt lat="51.8400973454" lon="39.3917006068"><ele>119.34</ele><time>2016-12-25T10:45:39Z</time></trkpt><trkpt lat="51.8400419410" lon="39.3917011935"><ele>119.34</ele><time>2016-12-25T10:45:40Z</time></trkpt><trkpt lat="51.8399911467" lon="39.3917011097"><ele>119.34</ele><time>2016-12-25T10:45:41Z</time></trkpt><trkpt lat="51.8393874820" lon="39.3918488827"><ele>115.98</ele><time>2016-12-25T10:45:53Z</time></trkpt><trkpt lat="51.8393409625" lon="39.3918755371"><ele>115.50</ele><time>2016-12-25T10:45:54Z</time></trkpt><trkpt lat="51.8390879966" lon="39.3920751102"><ele>115.50</ele><time>2016-12-25T10:45:59Z</time></trkpt><trkpt lat="51.8389937002" lon="39.3921766989"><ele>115.50</ele><time>2016-12-25T10:46:01Z</time></trkpt><trkpt lat="51.8387211207" lon="39.3924494460"><ele>116.94</ele><time>2016-12-25T10:46:07Z</time></trkpt><trkpt lat="51.8386795465" lon="39.3924732506"><ele>116.94</ele><time>2016-12-25T10:46:08Z</time></trkpt><trkpt lat="51.8384049553" lon="39.3925734982"><ele>117.42</ele><time>2016-12-25T10:46:14Z</time></trkpt><trkpt lat="51.8383068033" lon="39.3925851490"><ele>117.42</ele><time>2016-12-25T10:46:16Z</time></trkpt><trkpt lat="51.8382085674" lon="39.3925742526"><ele>117.90</ele><time>2016-12-25T10:46:18Z</time></trkpt><trkpt lat="51.8378929049" lon="39.3924693950"><ele>119.34</ele><time>2016-12-25T10:46:25Z</time></trkpt><trkpt lat="51.8373704609" lon="39.3922808859"><ele>117.90</ele><time>2016-12-25T10:46:34Z</time></trkpt><trkpt lat="51.8373246957" lon="39.3922457658"><ele>117.90</ele><time>2016-12-25T10:46:35Z</time></trkpt><trkpt lat="51.8367243838" lon="39.3919784669"><ele>118.38</ele><time>2016-12-25T10:46:47Z</time></trkpt><trkpt lat="51.8360718526" lon="39.3920350447"><ele>117.42</ele><time>2016-12-25T10:47:00Z</time></trkpt><trkpt lat="51.8359927274" lon="39.3920957297"><ele>117.42</ele><time>2016-12-25T10:47:02Z</time></trkpt><trkpt lat="51.8356981874" lon="39.3924370408"><ele>118.86</ele><time>2016-12-25T10:47:10Z</time></trkpt><trkpt lat="51.8356471416" lon="39.3925612606"><ele>118.38</ele><time>2016-12-25T10:47:12Z</time></trkpt><trkpt lat="51.8356228340" lon="39.3926263880"><ele>118.38</ele><time>2016-12-25T10:47:13Z</time></trkpt><trkpt lat="51.8356000353" lon="39.3926931918"><ele>118.38</ele><time>2016-12-25T10:47:14Z</time></trkpt><trkpt lat="51.8355782423" lon="39.3927555531"><ele>118.38</ele><time>2016-12-25T10:47:15Z</time></trkpt><trkpt lat="51.8355545215" lon="39.3928247038"><ele>118.38</ele><time>2016-12-25T10:47:16Z</time></trkpt><trkpt lat="51.8355297111" lon="39.3928931002"><ele>118.38</ele><time>2016-12-25T10:47:17Z</time></trkpt><trkpt lat="51.8355050683" lon="39.3929601554"><ele>118.38</ele><time>2016-12-25T10:47:18Z</time></trkpt><trkpt lat="51.8354787491" lon="39.3930334970"><ele>118.38</ele><time>2016-12-25T10:47:19Z</time></trkpt><trkpt lat="51.8353023939" lon="39.3934284523"><ele>118.38</ele><time>2016-12-25T10:47:25Z</time></trkpt><trkpt lat="51.8352598976" lon="39.3934904784"><ele>118.38</ele><time>2016-12-25T10:47:26Z</time></trkpt><trkpt lat="51.8347825482" lon="39.3939937279"><ele>116.46</ele><time>2016-12-25T10:47:37Z</time></trkpt><trkpt lat="51.8346889224" lon="39.3940816540"><ele>115.98</ele><time>2016-12-25T10:47:39Z</time></trkpt><trkpt lat="51.8344011717" lon="39.3944518827"><ele>115.01</ele><time>2016-12-25T10:47:46Z</time></trkpt><trkpt lat="51.8343705777" lon="39.3945118971"><ele>115.01</ele><time>2016-12-25T10:47:47Z</time></trkpt><trkpt lat="51.8343329430" lon="39.3945825566"><ele>114.53</ele><time>2016-12-25T10:47:48Z</time></trkpt><trkpt lat="51.8343011755" lon="39.3946485221"><ele>114.53</ele><time>2016-12-25T10:47:49Z</time></trkpt><trkpt lat="51.8342709169" lon="39.3947302457"><ele>114.53</ele><time>2016-12-25T10:47:50Z</time></trkpt><trkpt lat="51.8342425022" lon="39.3948067725"><ele>114.05</ele><time>2016-12-25T10:47:51Z</time></trkpt><trkpt lat="51.8342144229" lon="39.3948924355"><ele>113.57</ele><time>2016-12-25T10:47:52Z</time></trkpt><trkpt lat="51.8340738583" lon="39.3955570366"><ele>112.13</ele><time>2016-12-25T10:47:59Z</time></trkpt><trkpt lat="51.8340715114" lon="39.3956342340"><ele>112.61</ele><time>2016-12-25T10:48:00Z</time></trkpt><trkpt lat="51.8340743612" lon="39.3957126886"><ele>112.61</ele><time>2016-12-25T10:48:01Z</time></trkpt><trkpt lat="51.8340840004" lon="39.3957937416"><ele>113.09</ele><time>2016-12-25T10:48:02Z</time></trkpt><trkpt lat="51.8340999261" lon="39.3958758004"><ele>113.09</ele><time>2016-12-25T10:48:03Z</time></trkpt><trkpt lat="51.8341215514" lon="39.3959629722"><ele>112.61</ele><time>2016-12-25T10:48:04Z</time></trkpt><trkpt lat="51.8342917878" lon="39.3964224681"><ele>111.65</ele><time>2016-12-25T10:48:10Z</time></trkpt><trkpt lat="51.8343297578" lon="39.3964847457"><ele>111.65</ele><time>2016-12-25T10:48:11Z</time></trkpt><trkpt lat="51.8345414847" lon="39.3968235422"><ele>107.81</ele><time>2016-12-25T10:48:16Z</time></trkpt><trkpt lat="51.8345734198" lon="39.3969056010"><ele>107.32</ele><time>2016-12-25T10:48:17Z</time></trkpt><trkpt lat="51.8346002419" lon="39.3969931081"><ele>107.32</ele><time>2016-12-25T10:48:18Z</time></trkpt><trkpt lat="51.8348524533" lon="39.3979818374"><ele>105.40</ele><time>2016-12-25T10:48:29Z</time></trkpt><trkpt lat="51.8348610867" lon="39.3980762176"><ele>105.40</ele><time>2016-12-25T10:48:30Z</time></trkpt><trkpt lat="51.8348657805" lon="39.3981736153"><ele>104.92</ele><time>2016-12-25T10:48:31Z</time></trkpt><trkpt lat="51.8348646909" lon="39.3982717674"><ele>104.92</ele><time>2016-12-25T10:48:32Z</time></trkpt><trkpt lat="51.8348566443" lon="39.3983659800"><ele>104.44</ele><time>2016-12-25T10:48:33Z</time></trkpt><trkpt lat="51.8348428141" lon="39.3984603602"><ele>104.44</ele><time>2016-12-25T10:48:34Z</time></trkpt><trkpt lat="51.8348038383" lon="39.3986385595"><ele>104.44</ele><time>2016-12-25T10:48:36Z</time></trkpt><trkpt lat="51.8347714841" lon="39.3987169303"><ele>104.44</ele><time>2016-12-25T10:48:37Z</time></trkpt><trkpt lat="51.8347273953" lon="39.3987908587"><ele>104.92</ele><time>2016-12-25T10:48:38Z</time></trkpt><trkpt lat="51.8346807081" lon="39.3988547288"><ele>104.92</ele><time>2016-12-25T10:48:39Z</time></trkpt><trkpt lat="51.8346273154" lon="39.3989131507"><ele>104.92</ele><time>2016-12-25T10:48:40Z</time></trkpt><trkpt lat="51.8345731683" lon="39.3989655375"><ele>104.92</ele><time>2016-12-25T10:48:41Z</time></trkpt><trkpt lat="51.8343440071" lon="39.3991984706"><ele>104.92</ele><time>2016-12-25T10:48:45Z</time></trkpt><trkpt lat="51.8342791311" lon="39.3992357701"><ele>105.40</ele><time>2016-12-25T10:48:46Z</time></trkpt><trkpt lat="51.8342177756" lon="39.3992471695"><ele>105.40</ele><time>2016-12-25T10:48:47Z</time></trkpt><trkpt lat="51.8341648858" lon="39.3992438167"><ele>105.40</ele><time>2016-12-25T10:48:48Z</time></trkpt><trkpt lat="51.8341246527" lon="39.3992397934"><ele>105.88</ele><time>2016-12-25T10:48:49Z</time></trkpt><trkpt lat="51.8340918794" lon="39.3992332555"><ele>105.88</ele><time>2016-12-25T10:48:50Z</time></trkpt><trkpt lat="51.8340622913" lon="39.3992166594"><ele>105.88</ele><time>2016-12-25T10:48:51Z</time></trkpt><trkpt lat="51.8340340443" lon="39.3991910946"><ele>106.36</ele><time>2016-12-25T10:48:52Z</time></trkpt><trkpt lat="51.8340017740" lon="39.3991604168"><ele>106.84</ele><time>2016-12-25T10:48:53Z</time></trkpt><trkpt lat="51.8339666538" lon="39.3991340976"><ele>107.32</ele><time>2016-12-25T10:48:54Z</time></trkpt><trkpt lat="51.8339253310" lon="39.3991081975"><ele>107.81</ele><time>2016-12-25T10:48:55Z</time></trkpt><trkpt lat="51.8338802364" lon="39.3990923557"><ele>108.29</ele><time>2016-12-25T10:48:56Z</time></trkpt><trkpt lat="51.8338326272" lon="39.3990918528"><ele>108.77</ele><time>2016-12-25T10:48:57Z</time></trkpt><trkpt lat="51.8337830901" lon="39.3991008215"><ele>109.25</ele><time>2016-12-25T10:48:58Z</time></trkpt><trkpt lat="51.8332173117" lon="39.3995363452"><ele>108.77</ele><time>2016-12-25T10:49:11Z</time></trkpt><trkpt lat="51.8329177424" lon="39.4000896346"><ele>110.69</ele><time>2016-12-25T10:49:21Z</time></trkpt><trkpt lat="51.8326309137" lon="39.4005328696"><ele>112.61</ele><time>2016-12-25T10:49:30Z</time></trkpt><trkpt lat="51.8324765190" lon="39.4006802235"><ele>113.09</ele><time>2016-12-25T10:49:34Z</time></trkpt><trkpt lat="51.8322264031" lon="39.4008445926"><ele>113.57</ele><time>2016-12-25T10:49:40Z</time></trkpt><trkpt lat="51.8316848483" lon="39.4010641985"><ele>113.09</ele><time>2016-12-25T10:49:53Z</time></trkpt><trkpt lat="51.8312156294" lon="39.4013469201"><ele>112.13</ele><time>2016-12-25T10:50:06Z</time></trkpt><trkpt lat="51.8305942789" lon="39.4016640075"><ele>112.13</ele><time>2016-12-25T10:50:20Z</time></trkpt><trkpt lat="51.8301246408" lon="39.4017924182"><ele>113.57</ele><time>2016-12-25T10:50:31Z</time></trkpt><trkpt lat="51.8296987563" lon="39.4019578770"><ele>113.57</ele><time>2016-12-25T10:50:41Z</time></trkpt><trkpt lat="51.8294528313" lon="39.4021338131"><ele>113.09</ele><time>2016-12-25T10:50:46Z</time></trkpt><trkpt lat="51.8294108380" lon="39.4021826796"><ele>113.09</ele><time>2016-12-25T10:50:47Z</time></trkpt><trkpt lat="51.8293311261" lon="39.4022888783"><ele>113.57</ele><time>2016-12-25T10:50:49Z</time></trkpt><trkpt lat="51.8292304594" lon="39.4024773873"><ele>114.05</ele><time>2016-12-25T10:50:52Z</time></trkpt><trkpt lat="51.8288856279" lon="39.4033537991"><ele>117.90</ele><time>2016-12-25T10:51:05Z</time></trkpt><trkpt lat="51.8288065027" lon="39.4035508577"><ele>117.90</ele><time>2016-12-25T10:51:08Z</time></trkpt><trkpt lat="51.8284755852" lon="39.4040008821"><ele>118.86</ele><time>2016-12-25T10:51:18Z</time></trkpt><trkpt lat="51.8284380343" lon="39.4040285423"><ele>118.86</ele><time>2016-12-25T10:51:19Z</time></trkpt><trkpt lat="51.8279497884" lon="39.4041247666"><ele>118.38</ele><time>2016-12-25T10:51:31Z</time></trkpt><trkpt lat="51.8274655659" lon="39.4042215776"><ele>117.42</ele><time>2016-12-25T10:51:44Z</time></trkpt><trkpt lat="51.8269963469" lon="39.4047409203"><ele>116.46</ele><time>2016-12-25T10:51:58Z</time></trkpt><trkpt lat="51.8265999667" lon="39.4051544834"><ele>117.90</ele><time>2016-12-25T10:52:09Z</time></trkpt><trkpt lat="51.8260672130" lon="39.4053825550"><ele>115.98</ele><time>2016-12-25T10:52:22Z</time></trkpt><trkpt lat="51.8253223971" lon="39.4056068547"><ele>114.53</ele><time>2016-12-25T10:52:37Z</time></trkpt><trkpt lat="51.8246502522" lon="39.4057034981"><ele>114.05</ele><time>2016-12-25T10:52:50Z</time></trkpt><trkpt lat="51.8240589928" lon="39.4055743329"><ele>114.53</ele><time>2016-12-25T10:53:01Z</time></trkpt><trkpt lat="51.8232531566" lon="39.4053403102"><ele>113.57</ele><time>2016-12-25T10:53:15Z</time></trkpt><trkpt lat="51.8228435330" lon="39.4053355325"><ele>112.13</ele><time>2016-12-25T10:53:22Z</time></trkpt><trkpt lat="51.8222660199" lon="39.4055663701"><ele>112.61</ele><time>2016-12-25T10:53:34Z</time></trkpt><trkpt lat="51.8222228531" lon="39.4055982213"><ele>112.13</ele><time>2016-12-25T10:53:35Z</time></trkpt><trkpt lat="51.8221806921" lon="39.4056361075"><ele>112.61</ele><time>2016-12-25T10:53:36Z</time></trkpt><trkpt lat="51.8221399561" lon="39.4056821242"><ele>112.61</ele><time>2016-12-25T10:53:37Z</time></trkpt><trkpt lat="51.8221059255" lon="39.4057288114"><ele>113.09</ele><time>2016-12-25T10:53:38Z</time></trkpt><trkpt lat="51.8220723979" lon="39.4057825394"><ele>113.09</ele><time>2016-12-25T10:53:39Z</time></trkpt><trkpt lat="51.8220433965" lon="39.4058412127"><ele>113.09</ele><time>2016-12-25T10:53:40Z</time></trkpt><trkpt lat="51.8220200110" lon="39.4059043285"><ele>113.09</ele><time>2016-12-25T10:53:41Z</time></trkpt><trkpt lat="51.8219965417" lon="39.4059677795"><ele>113.09</ele><time>2016-12-25T10:53:42Z</time></trkpt><trkpt lat="51.8219709769" lon="39.4060326554"><ele>113.09</ele><time>2016-12-25T10:53:43Z</time></trkpt><trkpt lat="51.8219489325" lon="39.4060974475"><ele>113.57</ele><time>2016-12-25T10:53:44Z</time></trkpt><trkpt lat="51.8217993155" lon="39.4067618810"><ele>115.01</ele><time>2016-12-25T10:53:54Z</time></trkpt><trkpt lat="51.8217921909" lon="39.4068384077"><ele>115.01</ele><time>2016-12-25T10:53:55Z</time></trkpt><trkpt lat="51.8217845634" lon="39.4069127552"><ele>115.01</ele><time>2016-12-25T10:53:56Z</time></trkpt><trkpt lat="51.8217634410" lon="39.4072067924"><ele>115.01</ele><time>2016-12-25T10:54:00Z</time></trkpt><trkpt lat="51.8218177557" lon="39.4083059113"><ele>115.98</ele><time>2016-12-25T10:54:15Z</time></trkpt><trkpt lat="51.8218344357" lon="39.4086275250"><ele>115.50</ele><time>2016-12-25T10:54:19Z</time></trkpt><trkpt lat="51.8218276463" lon="39.4087858591"><ele>115.50</ele><time>2016-12-25T10:54:21Z</time></trkpt><trkpt lat="51.8218078651" lon="39.4089439418"><ele>115.50</ele><time>2016-12-25T10:54:23Z</time></trkpt><trkpt lat="51.8217906822" lon="39.4090235699"><ele>115.50</ele><time>2016-12-25T10:54:24Z</time></trkpt><trkpt lat="51.8214631174" lon="39.4097434077"><ele>114.53</ele><time>2016-12-25T10:54:35Z</time></trkpt><trkpt lat="51.8214175198" lon="39.4097878318"><ele>114.53</ele><time>2016-12-25T10:54:36Z</time></trkpt><trkpt lat="51.8213713355" lon="39.4098243769"><ele>114.53</ele><time>2016-12-25T10:54:37Z</time></trkpt><trkpt lat="51.8213223852" lon="39.4098575693"><ele>115.01</ele><time>2016-12-25T10:54:38Z</time></trkpt><trkpt lat="51.8212720100" lon="39.4098819606"><ele>115.01</ele><time>2016-12-25T10:54:39Z</time></trkpt><trkpt lat="51.8212174438" lon="39.4098986406"><ele>115.01</ele><time>2016-12-25T10:54:40Z</time></trkpt><trkpt lat="51.8211665656" lon="39.4099090341"><ele>115.01</ele><time>2016-12-25T10:54:41Z</time></trkpt><trkpt lat="51.8204884697" lon="39.4100709725"><ele>117.90</ele><time>2016-12-25T10:54:54Z</time></trkpt><trkpt lat="51.8200145569" lon="39.4102760777"><ele>115.98</ele><time>2016-12-25T10:55:03Z</time></trkpt><trkpt lat="51.8197392952" lon="39.4105005451"><ele>114.53</ele><time>2016-12-25T10:55:09Z</time></trkpt><trkpt lat="51.8192019314" lon="39.4109018706"><ele>114.53</ele><time>2016-12-25T10:55:20Z</time></trkpt><trkpt lat="51.8185486458" lon="39.4113135897"><ele>115.50</ele><time>2016-12-25T10:55:32Z</time></trkpt><trkpt lat="51.8183865398" lon="39.4113851711"><ele>116.46</ele><time>2016-12-25T10:55:35Z</time></trkpt><trkpt lat="51.8183344044" lon="39.4113930501"><ele>116.94</ele><time>2016-12-25T10:55:36Z</time></trkpt><trkpt lat="51.8182829395" lon="39.4113937207"><ele>117.42</ele><time>2016-12-25T10:55:37Z</time></trkpt><trkpt lat="51.8182324804" lon="39.4113887753"><ele>117.42</ele><time>2016-12-25T10:55:38Z</time></trkpt><trkpt lat="51.8181851227" lon="39.4113787170"><ele>117.90</ele><time>2016-12-25T10:55:39Z</time></trkpt><trkpt lat="51.8181401957" lon="39.4113633782"><ele>117.90</ele><time>2016-12-25T10:55:40Z</time></trkpt><trkpt lat="51.8180973642" lon="39.4113418367"><ele>118.38</ele><time>2016-12-25T10:55:41Z</time></trkpt><trkpt lat="51.8179632537" lon="39.4112430979"><ele>118.38</ele><time>2016-12-25T10:55:44Z</time></trkpt><trkpt lat="51.8179122079" lon="39.4112146832"><ele>118.38</ele><time>2016-12-25T10:55:45Z</time></trkpt><trkpt lat="51.8176866509" lon="39.4111030363"><ele>117.90</ele><time>2016-12-25T10:55:50Z</time></trkpt><trkpt lat="51.8176434841" lon="39.4110744540"><ele>117.90</ele><time>2016-12-25T10:55:51Z</time></trkpt><trkpt lat="51.8172604311" lon="39.4108182192"><ele>118.86</ele><time>2016-12-25T10:56:00Z</time></trkpt><trkpt lat="51.8171768636" lon="39.4107862003"><ele>119.34</ele><time>2016-12-25T10:56:02Z</time></trkpt><trkpt lat="51.8165321276" lon="39.4106981903"><ele>118.38</ele><time>2016-12-25T10:56:16Z</time></trkpt><trkpt lat="51.8160159700" lon="39.4107947499"><ele>115.50</ele><time>2016-12-25T10:56:29Z</time></trkpt><trkpt lat="51.8153676298" lon="39.4110114221"><ele>112.61</ele><time>2016-12-25T10:56:45Z</time></trkpt><trkpt lat="51.8146497197" lon="39.4113983307"><ele>111.65</ele><time>2016-12-25T10:57:01Z</time></trkpt><trkpt lat="51.8137726374" lon="39.4119400531"><ele>114.53</ele><time>2016-12-25T10:57:19Z</time></trkpt><trkpt lat="51.8134144787" lon="39.4121419732"><ele>115.98</ele><time>2016-12-25T10:57:26Z</time></trkpt><trkpt lat="51.8133108784" lon="39.4121823739"><ele>116.46</ele><time>2016-12-25T10:57:28Z</time></trkpt><trkpt lat="51.8125053775" lon="39.4125338271"><ele>117.90</ele><time>2016-12-25T10:57:44Z</time></trkpt><trkpt lat="51.8118561991" lon="39.4127747230"><ele>116.46</ele><time>2016-12-25T10:57:58Z</time></trkpt><trkpt lat="51.8118111044" lon="39.4127924927"><ele>116.46</ele><time>2016-12-25T10:57:59Z</time></trkpt><trkpt lat="51.8117634952" lon="39.4128105976"><ele>116.46</ele><time>2016-12-25T10:58:00Z</time></trkpt><trkpt lat="51.8109830562" lon="39.4133223128"><ele>116.46</ele><time>2016-12-25T10:58:19Z</time></trkpt><trkpt lat="51.8102589436" lon="39.4137056172"><ele>114.53</ele><time>2016-12-25T10:58:37Z</time></trkpt><trkpt lat="51.8098765612" lon="39.4139345270"><ele>112.61</ele><time>2016-12-25T10:58:49Z</time></trkpt><trkpt lat="51.8096327316" lon="39.4141938630"><ele>112.61</ele><time>2016-12-25T10:59:02Z</time></trkpt><trkpt lat="51.8092187494" lon="39.4146363437"><ele>112.13</ele><time>2016-12-25T10:59:17Z</time></trkpt><trkpt lat="51.8087768555" lon="39.4150969293"><ele>112.61</ele><time>2016-12-25T10:59:33Z</time></trkpt><trkpt lat="51.8083236460" lon="39.4155534077"><ele>112.61</ele><time>2016-12-25T10:59:50Z</time></trkpt><trkpt lat="51.8080793135" lon="39.4158416614"><ele>113.57</ele><time>2016-12-25T11:00:04Z</time></trkpt><trkpt lat="51.8080742005" lon="39.4158553239"><ele>113.09</ele><time>2016-12-25T11:00:05Z</time></trkpt><trkpt lat="51.8080545031" lon="39.4158836547"><ele>113.57</ele><time>2016-12-25T11:00:08Z</time></trkpt><trkpt lat="51.8080418464" lon="39.4158963114"><ele>113.57</ele><time>2016-12-25T11:00:09Z</time></trkpt><trkpt lat="51.8080290221" lon="39.4159067050"><ele>113.57</ele><time>2016-12-25T11:00:10Z</time></trkpt><trkpt lat="51.8080163654" lon="39.4159233011"><ele>113.57</ele><time>2016-12-25T11:00:11Z</time></trkpt><trkpt lat="51.8080030382" lon="39.4159367960"><ele>113.57</ele><time>2016-12-25T11:00:12Z</time></trkpt><trkpt lat="51.8079906330" lon="39.4159492012"><ele>113.57</ele><time>2016-12-25T11:00:13Z</time></trkpt><trkpt lat="51.8079789821" lon="39.4159612712"><ele>113.57</ele><time>2016-12-25T11:00:14Z</time></trkpt><trkpt lat="51.8079644814" lon="39.4159715809"><ele>114.05</ele><time>2016-12-25T11:00:15Z</time></trkpt><trkpt lat="51.8079467956" lon="39.4159859139"><ele>113.57</ele><time>2016-12-25T11:00:16Z</time></trkpt><trkpt lat="51.8075336516" lon="39.4162311684"><ele>113.57</ele><time>2016-12-25T11:00:33Z</time></trkpt><trkpt lat="51.8073310610" lon="39.4161442481"><ele>115.50</ele><time>2016-12-25T11:00:45Z</time></trkpt><trkpt lat="51.8073189072" lon="39.4161266461"><ele>115.01</ele><time>2016-12-25T11:00:46Z</time></trkpt><trkpt lat="51.8073179852" lon="39.4160897657"><ele>115.50</ele><time>2016-12-25T11:00:57Z</time></trkpt><trkpt lat="51.8073195778" lon="39.4160175137"><ele>115.98</ele><time>2016-12-25T11:01:13Z</time></trkpt><trkpt lat="51.8072839547" lon="39.4159990735"><ele>114.05</ele><time>2016-12-25T11:01:39Z</time></trkpt><trkpt lat="51.8073110282" lon="39.4160170108"><ele>111.65</ele><time>2016-12-25T11:02:09Z</time></trkpt><trkpt lat="51.8073662650" lon="39.4160448387"><ele>114.05</ele><time>2016-12-25T11:02:48Z</time></trkpt><trkpt lat="51.8073454779" lon="39.4160396419"><ele>113.57</ele><time>2016-12-25T11:03:17Z</time></trkpt><trkpt lat="51.8073181529" lon="39.4160163403"><ele>113.57</ele><time>2016-12-25T11:04:04Z</time></trkpt><trkpt lat="51.8073448911" lon="39.4160130713"><ele>112.13</ele><time>2016-12-25T11:04:33Z</time></trkpt><trkpt lat="51.8073215056" lon="39.4159845728"><ele>116.94</ele><time>2016-12-25T11:05:24Z</time></trkpt><trkpt lat="51.8073407002" lon="39.4160269853"><ele>116.94</ele><time>2016-12-25T11:06:05Z</time></trkpt><trkpt lat="51.8073428795" lon="39.4160352834"><ele>112.61</ele><time>2016-12-25T11:06:43Z</time></trkpt><trkpt lat="51.8073593080" lon="39.4160165917"><ele>114.05</ele><time>2016-12-25T11:07:24Z</time></trkpt><trkpt lat="51.8072909117" lon="39.4160666317"><ele>114.05</ele><time>2016-12-25T11:08:02Z</time></trkpt><trkpt lat="51.8073373474" lon="39.4161508698"><ele>115.98</ele><time>2016-12-25T11:08:17Z</time></trkpt><trkpt lat="51.8073844537" lon="39.4161961321"><ele>115.98</ele><time>2016-12-25T11:08:26Z</time></trkpt><trkpt lat="51.8073953502" lon="39.4162073638"><ele>115.98</ele><time>2016-12-25T11:08:27Z</time></trkpt><trkpt lat="51.8074085098" lon="39.4162189309"><ele>115.98</ele><time>2016-12-25T11:08:28Z</time></trkpt><trkpt lat="51.8074235972" lon="39.4162295759"><ele>115.98</ele><time>2016-12-25T11:08:29Z</time></trkpt><trkpt lat="51.8074412830" lon="39.4162387960"><ele>116.46</ele><time>2016-12-25T11:08:30Z</time></trkpt><trkpt lat="51.8077049777" lon="39.4161414821"><ele>115.01</ele><time>2016-12-25T11:08:43Z</time></trkpt><trkpt lat="51.8080247473" lon="39.4159358740"><ele>115.98</ele><time>2016-12-25T11:08:58Z</time></trkpt><trkpt lat="51.8083116598" lon="39.4155851752"><ele>114.05</ele><time>2016-12-25T11:09:13Z</time></trkpt><trkpt lat="51.8086165935" lon="39.4152444508"><ele>113.57</ele><time>2016-12-25T11:09:27Z</time></trkpt><trkpt lat="51.8090287317" lon="39.4148743059"><ele>112.61</ele><time>2016-12-25T11:09:43Z</time></trkpt><trkpt lat="51.8093939312" lon="39.4144658558"><ele>113.09</ele><time>2016-12-25T11:09:58Z</time></trkpt><trkpt lat="51.8097507488" lon="39.4139957987"><ele>112.61</ele><time>2016-12-25T11:10:13Z</time></trkpt><trkpt lat="51.8096649181" lon="39.4133657310"><ele>112.13</ele><time>2016-12-25T11:10:26Z</time></trkpt><trkpt lat="51.8093420472" lon="39.4128976855"><ele>114.53</ele><time>2016-12-25T11:10:39Z</time></trkpt><trkpt lat="51.8086357880" lon="39.4126317278"><ele>115.01</ele><time>2016-12-25T11:10:58Z</time></trkpt><trkpt lat="51.8078328017" lon="39.4124901574"><ele>115.98</ele><time>2016-12-25T11:11:18Z</time></trkpt><trkpt lat="51.8071040791" lon="39.4120537117"><ele>115.01</ele><time>2016-12-25T11:11:36Z</time></trkpt><trkpt lat="51.8062010966" lon="39.4117562380"><ele>115.01</ele><time>2016-12-25T11:11:57Z</time></trkpt><trkpt lat="51.8056090828" lon="39.4114485383"><ele>116.46</ele><time>2016-12-25T11:12:11Z</time></trkpt><trkpt lat="51.8049493432" lon="39.4112373982"><ele>115.50</ele><time>2016-12-25T11:12:23Z</time></trkpt><trkpt lat="51.8041528109" lon="39.4110100809"><ele>119.34</ele><time>2016-12-25T11:12:39Z</time></trkpt><trkpt lat="51.8035072368" lon="39.4108476397"><ele>121.74</ele><time>2016-12-25T11:12:53Z</time></trkpt><trkpt lat="51.8026843853" lon="39.4106388465"><ele>118.86</ele><time>2016-12-25T11:13:08Z</time></trkpt><trkpt lat="51.8019958958" lon="39.4104422070"><ele>121.26</ele><time>2016-12-25T11:13:22Z</time></trkpt><trkpt lat="51.8014133535" lon="39.4102898240"><ele>126.55</ele><time>2016-12-25T11:13:37Z</time></trkpt><trkpt lat="51.8007953558" lon="39.4101258740"><ele>126.55</ele><time>2016-12-25T11:13:52Z</time></trkpt><trkpt lat="51.8001373764" lon="39.4099436514"><ele>127.03</ele><time>2016-12-25T11:14:07Z</time></trkpt><trkpt lat="51.7995451950" lon="39.4097843114"><ele>130.40</ele><time>2016-12-25T11:14:21Z</time></trkpt><trkpt lat="51.7989770696" lon="39.4096351974"><ele>130.40</ele><time>2016-12-25T11:14:34Z</time></trkpt><trkpt lat="51.7983756680" lon="39.4094849098"><ele>129.43</ele><time>2016-12-25T11:14:46Z</time></trkpt><trkpt lat="51.7977609392" lon="39.4093106501"><ele>131.36</ele><time>2016-12-25T11:14:59Z</time></trkpt><trkpt lat="51.7970364075" lon="39.4091207162"><ele>131.84</ele><time>2016-12-25T11:15:14Z</time></trkpt><trkpt lat="51.7964829504" lon="39.4089630526"><ele>132.32</ele><time>2016-12-25T11:15:27Z</time></trkpt><trkpt lat="51.7957380507" lon="39.4087846857"><ele>131.36</ele><time>2016-12-25T11:15:43Z</time></trkpt><trkpt lat="51.7951721884" lon="39.4086267706"><ele>130.88</ele><time>2016-12-25T11:15:56Z</time></trkpt><trkpt lat="51.7944526859" lon="39.4084279519"><ele>131.84</ele><time>2016-12-25T11:16:12Z</time></trkpt><trkpt lat="51.7937115580" lon="39.4082423765"><ele>132.80</ele><time>2016-12-25T11:16:28Z</time></trkpt><trkpt lat="51.7931082286" lon="39.4080910832"><ele>136.16</ele><time>2016-12-25T11:16:42Z</time></trkpt><trkpt lat="51.7924205773" lon="39.4079112075"><ele>136.16</ele><time>2016-12-25T11:16:57Z</time></trkpt><trkpt lat="51.7917663697" lon="39.4077356905"><ele>137.13</ele><time>2016-12-25T11:17:11Z</time></trkpt><trkpt lat="51.7910634633" lon="39.4075608440"><ele>136.16</ele><time>2016-12-25T11:17:26Z</time></trkpt><trkpt lat="51.7903231736" lon="39.4073677249"><ele>134.24</ele><time>2016-12-25T11:17:42Z</time></trkpt><trkpt lat="51.7896908429" lon="39.4072100613"><ele>136.16</ele><time>2016-12-25T11:17:56Z</time></trkpt><trkpt lat="51.7890010960" lon="39.4070363045"><ele>135.68</ele><time>2016-12-25T11:18:11Z</time></trkpt><trkpt lat="51.7889138404" lon="39.4070131704"><ele>135.68</ele><time>2016-12-25T11:18:13Z</time></trkpt><trkpt lat="51.7880836129" lon="39.4068270922"><ele>139.05</ele><time>2016-12-25T11:18:31Z</time></trkpt><trkpt lat="51.7874268908" lon="39.4066688418"><ele>140.01</ele><time>2016-12-25T11:18:46Z</time></trkpt><trkpt lat="51.7867253255" lon="39.4064685982"><ele>140.01</ele><time>2016-12-25T11:19:01Z</time></trkpt><trkpt lat="51.7866817396" lon="39.4064554386"><ele>140.01</ele><time>2016-12-25T11:19:02Z</time></trkpt><trkpt lat="51.7866380699" lon="39.4064427819"><ele>139.53</ele><time>2016-12-25T11:19:03Z</time></trkpt><trkpt lat="51.7859868798" lon="39.4062606432"><ele>138.57</ele><time>2016-12-25T11:19:17Z</time></trkpt><trkpt lat="51.7853480950" lon="39.4060917478"><ele>137.13</ele><time>2016-12-25T11:19:31Z</time></trkpt><trkpt lat="51.7846656404" lon="39.4058974553"><ele>137.13</ele><time>2016-12-25T11:19:46Z</time></trkpt><trkpt lat="51.7840086669" lon="39.4057321642"><ele>138.57</ele><time>2016-12-25T11:20:01Z</time></trkpt><trkpt lat="51.7831548024" lon="39.4054985605"><ele>138.09</ele><time>2016-12-25T11:20:20Z</time></trkpt><trkpt lat="51.7825620342" lon="39.4053374603"><ele>138.09</ele><time>2016-12-25T11:20:35Z</time></trkpt><trkpt lat="51.7817617301" lon="39.4051839039"><ele>137.61</ele><time>2016-12-25T11:20:54Z</time></trkpt><trkpt lat="51.7813988775" lon="39.4053742569"><ele>135.20</ele><time>2016-12-25T11:21:07Z</time></trkpt><trkpt lat="51.7809072789" lon="39.4057848863"><ele>136.16</ele><time>2016-12-25T11:21:22Z</time></trkpt><trkpt lat="51.7806024291" lon="39.4064085837"><ele>133.28</ele><time>2016-12-25T11:21:35Z</time></trkpt><trkpt lat="51.7805834021" lon="39.4064652454"><ele>133.28</ele><time>2016-12-25T11:21:36Z</time></trkpt><trkpt lat="51.7802992556" lon="39.4073276594"><ele>134.24</ele><time>2016-12-25T11:21:51Z</time></trkpt><trkpt lat="51.7801529914" lon="39.4081823621"><ele>133.28</ele><time>2016-12-25T11:22:06Z</time></trkpt><trkpt lat="51.7800407577" lon="39.4087825902"><ele>130.40</ele><time>2016-12-25T11:22:14Z</time></trkpt><trkpt lat="51.7800319567" lon="39.4088591170"><ele>130.40</ele><time>2016-12-25T11:22:15Z</time></trkpt><trkpt lat="51.7799799051" lon="39.4096520450"><ele>128.47</ele><time>2016-12-25T11:22:27Z</time></trkpt><trkpt lat="51.7798963375" lon="39.4106500782"><ele>126.55</ele><time>2016-12-25T11:22:43Z</time></trkpt><trkpt lat="51.7798581999" lon="39.4110501464"><ele>126.07</ele><time>2016-12-25T11:22:49Z</time></trkpt><trkpt lat="51.7798493989" lon="39.4111233205"><ele>125.59</ele><time>2016-12-25T11:22:50Z</time></trkpt><trkpt lat="51.7797702737" lon="39.4122368563"><ele>123.67</ele><time>2016-12-25T11:23:04Z</time></trkpt><trkpt lat="51.7797345668" lon="39.4126243517"><ele>124.15</ele><time>2016-12-25T11:23:09Z</time></trkpt><trkpt lat="51.7797285318" lon="39.4127038959"><ele>124.15</ele><time>2016-12-25T11:23:10Z</time></trkpt><trkpt lat="51.7796877958" lon="39.4130778126"><ele>122.71</ele><time>2016-12-25T11:23:15Z</time></trkpt><trkpt lat="51.7796435393" lon="39.4134150166"><ele>122.71</ele><time>2016-12-25T11:23:20Z</time></trkpt><trkpt lat="51.7796226684" lon="39.4135483727"><ele>122.22</ele><time>2016-12-25T11:23:22Z</time></trkpt><trkpt lat="51.7794858757" lon="39.4147160556"><ele>123.67</ele><time>2016-12-25T11:23:39Z</time></trkpt><trkpt lat="51.7794763204" lon="39.4147879723"><ele>124.15</ele><time>2016-12-25T11:23:40Z</time></trkpt><trkpt lat="51.7794059962" lon="39.4152876176"><ele>124.15</ele><time>2016-12-25T11:23:47Z</time></trkpt><trkpt lat="51.7793857120" lon="39.4155819900"><ele>124.15</ele><time>2016-12-25T11:23:51Z</time></trkpt><trkpt lat="51.7793787550" lon="39.4156573433"><ele>124.15</ele><time>2016-12-25T11:23:52Z</time></trkpt><trkpt lat="51.7792852968" lon="39.4166525267"><ele>125.11</ele><time>2016-12-25T11:24:06Z</time></trkpt><trkpt lat="51.7792068422" lon="39.4174594525"><ele>127.51</ele><time>2016-12-25T11:24:18Z</time></trkpt><trkpt lat="51.7791522760" lon="39.4180090539"><ele>126.55</ele><time>2016-12-25T11:24:26Z</time></trkpt><trkpt lat="51.7790524475" lon="39.4190496672"><ele>124.15</ele><time>2016-12-25T11:24:41Z</time></trkpt><trkpt lat="51.7790169921" lon="39.4193484820"><ele>124.63</ele><time>2016-12-25T11:24:45Z</time></trkpt><trkpt lat="51.7789581511" lon="39.4201009255"><ele>125.59</ele><time>2016-12-25T11:24:55Z</time></trkpt><trkpt lat="51.7789375316" lon="39.4203205314"><ele>125.59</ele><time>2016-12-25T11:24:58Z</time></trkpt><trkpt lat="51.7789302394" lon="39.4203914423"><ele>126.07</ele><time>2016-12-25T11:24:59Z</time></trkpt><trkpt lat="51.7788212746" lon="39.4216002803"><ele>127.03</ele><time>2016-12-25T11:25:15Z</time></trkpt><trkpt lat="51.7788202688" lon="39.4216789026"><ele>127.51</ele><time>2016-12-25T11:25:16Z</time></trkpt><trkpt lat="51.7788032535" lon="39.4219954871"><ele>127.99</ele><time>2016-12-25T11:25:20Z</time></trkpt><trkpt lat="51.7787247151" lon="39.4225133210"><ele>129.43</ele><time>2016-12-25T11:25:27Z</time></trkpt><trkpt lat="51.7786802910" lon="39.4229956158"><ele>131.84</ele><time>2016-12-25T11:25:34Z</time></trkpt><trkpt lat="51.7786806263" lon="39.4230661914"><ele>131.84</ele><time>2016-12-25T11:25:35Z</time></trkpt><trkpt lat="51.7786807939" lon="39.4231370185"><ele>132.32</ele><time>2016-12-25T11:25:36Z</time></trkpt><trkpt lat="51.7786776926" lon="39.4232106116"><ele>132.32</ele><time>2016-12-25T11:25:37Z</time></trkpt><trkpt lat="51.7786705680" lon="39.4232854620"><ele>132.80</ele><time>2016-12-25T11:25:38Z</time></trkpt><trkpt lat="51.7785611004" lon="39.4241312798"><ele>131.84</ele><time>2016-12-25T11:25:51Z</time></trkpt><trkpt lat="51.7785424925" lon="39.4241935574"><ele>131.84</ele><time>2016-12-25T11:25:52Z</time></trkpt><trkpt lat="51.7785191908" lon="39.4242419209"><ele>131.84</ele><time>2016-12-25T11:25:53Z</time></trkpt><trkpt lat="51.7784890160" lon="39.4242856745"><ele>131.84</ele><time>2016-12-25T11:25:54Z</time></trkpt><trkpt lat="51.7784504592" lon="39.4243192021"><ele>132.32</ele><time>2016-12-25T11:25:55Z</time></trkpt><trkpt lat="51.7784202844" lon="39.4243425876"><ele>132.80</ele><time>2016-12-25T11:25:56Z</time></trkpt><trkpt lat="51.7783828173" lon="39.4243580941"><ele>132.80</ele><time>2016-12-25T11:25:57Z</time></trkpt><trkpt lat="51.7783454340" lon="39.4243668951"><ele>132.80</ele><time>2016-12-25T11:25:58Z</time></trkpt><trkpt lat="51.7776787374" lon="39.4243902806"><ele>137.13</ele><time>2016-12-25T11:26:14Z</time></trkpt><trkpt lat="51.7770003062" lon="39.4243905321"><ele>141.45</ele><time>2016-12-25T11:26:29Z</time></trkpt><trkpt lat="51.7763674725" lon="39.4243852515"><ele>142.41</ele><time>2016-12-25T11:26:43Z</time></trkpt><trkpt lat="51.7756917235" lon="39.4243519753"><ele>143.37</ele><time>2016-12-25T11:26:59Z</time></trkpt><trkpt lat="51.7751799244" lon="39.4243342895"><ele>143.37</ele><time>2016-12-25T11:27:11Z</time></trkpt><trkpt lat="51.7745523714" lon="39.4243061263"><ele>143.85</ele><time>2016-12-25T11:27:27Z</time></trkpt><trkpt lat="51.7739688233" lon="39.4242848363"><ele>143.37</ele><time>2016-12-25T11:27:41Z</time></trkpt><trkpt lat="51.7733514123" lon="39.4242908712"><ele>144.34</ele><time>2016-12-25T11:27:56Z</time></trkpt><trkpt lat="51.7729097698" lon="39.4242442679"><ele>143.85</ele><time>2016-12-25T11:28:07Z</time></trkpt><trkpt lat="51.7727072630" lon="39.4242368918"><ele>143.37</ele><time>2016-12-25T11:28:12Z</time></trkpt><trkpt lat="51.7726656888" lon="39.4242402446"><ele>143.37</ele><time>2016-12-25T11:28:13Z</time></trkpt><trkpt lat="51.7722953763" lon="39.4242102373"><ele>142.41</ele><time>2016-12-25T11:28:22Z</time></trkpt><trkpt lat="51.7722530477" lon="39.4242139254"><ele>142.89</ele><time>2016-12-25T11:28:23Z</time></trkpt><trkpt lat="51.7717702501" lon="39.4242394064"><ele>145.30</ele><time>2016-12-25T11:28:36Z</time></trkpt><trkpt lat="51.7714553420" lon="39.4242041185"><ele>144.34</ele><time>2016-12-25T11:28:44Z</time></trkpt><trkpt lat="51.7708453070" lon="39.4241514802"><ele>144.34</ele><time>2016-12-25T11:28:58Z</time></trkpt><trkpt lat="51.7703739088" lon="39.4241819903"><ele>143.37</ele><time>2016-12-25T11:29:09Z</time></trkpt><trkpt lat="51.7701000720" lon="39.4241458643"><ele>143.37</ele><time>2016-12-25T11:29:15Z</time></trkpt><trkpt lat="51.7696026061" lon="39.4241112471"><ele>141.93</ele><time>2016-12-25T11:29:25Z</time></trkpt><trkpt lat="51.7695565056" lon="39.4241168629"><ele>141.93</ele><time>2016-12-25T11:29:26Z</time></trkpt><trkpt lat="51.7695123330" lon="39.4241218921"><ele>141.45</ele><time>2016-12-25T11:29:27Z</time></trkpt><trkpt lat="51.7688475642" lon="39.4240941480"><ele>140.01</ele><time>2016-12-25T11:29:41Z</time></trkpt><trkpt lat="51.7686550319" lon="39.4240960758"><ele>139.05</ele><time>2016-12-25T11:29:45Z</time></trkpt><trkpt lat="51.7685137969" lon="39.4241171144"><ele>139.05</ele><time>2016-12-25T11:29:48Z</time></trkpt><trkpt lat="51.7678403109" lon="39.4240940642"><ele>139.05</ele><time>2016-12-25T11:30:02Z</time></trkpt><trkpt lat="51.7677948810" lon="39.4240866881"><ele>139.53</ele><time>2016-12-25T11:30:03Z</time></trkpt><trkpt lat="51.7671742011" lon="39.4240495563"><ele>138.57</ele><time>2016-12-25T11:30:17Z</time></trkpt><trkpt lat="51.7664503399" lon="39.4240459520"><ele>135.20</ele><time>2016-12-25T11:30:31Z</time></trkpt><trkpt lat="51.7657281552" lon="39.4240142684"><ele>133.76</ele><time>2016-12-25T11:30:46Z</time></trkpt><trkpt lat="51.7650709301" lon="39.4239890389"><ele>133.28</ele><time>2016-12-25T11:30:59Z</time></trkpt><trkpt lat="51.7643627431" lon="39.4239663240"><ele>132.32</ele><time>2016-12-25T11:31:13Z</time></trkpt><trkpt lat="51.7637131456" lon="39.4239517394"><ele>131.84</ele><time>2016-12-25T11:31:26Z</time></trkpt><trkpt lat="51.7636697274" lon="39.4239473809"><ele>131.84</ele><time>2016-12-25T11:31:27Z</time></trkpt><trkpt lat="51.7636290751" lon="39.4239483867"><ele>131.84</ele><time>2016-12-25T11:31:28Z</time></trkpt><trkpt lat="51.7635851540" lon="39.4239472132"><ele>131.84</ele><time>2016-12-25T11:31:29Z</time></trkpt><trkpt lat="51.7635378800" lon="39.4239437766"><ele>131.84</ele><time>2016-12-25T11:31:30Z</time></trkpt><trkpt lat="51.7634877563" lon="39.4239422679"><ele>131.36</ele><time>2016-12-25T11:31:31Z</time></trkpt><trkpt lat="51.7626524158" lon="39.4239186309"><ele>128.95</ele><time>2016-12-25T11:31:46Z</time></trkpt><trkpt lat="51.7624983564" lon="39.4239136018"><ele>128.47</ele><time>2016-12-25T11:31:49Z</time></trkpt><trkpt lat="51.7621961050" lon="39.4239251688"><ele>127.03</ele><time>2016-12-25T11:31:55Z</time></trkpt><trkpt lat="51.7621496692" lon="39.4239095785"><ele>127.03</ele><time>2016-12-25T11:31:56Z</time></trkpt><trkpt lat="51.7615374550" lon="39.4238513242"><ele>126.55</ele><time>2016-12-25T11:32:09Z</time></trkpt><trkpt lat="51.7606390826" lon="39.4238478877"><ele>124.63</ele><time>2016-12-25T11:32:26Z</time></trkpt><trkpt lat="51.7598378565" lon="39.4238051400"><ele>122.71</ele><time>2016-12-25T11:32:43Z</time></trkpt><trkpt lat="51.7597975396" lon="39.4238196407"><ele>122.71</ele><time>2016-12-25T11:32:44Z</time></trkpt><trkpt lat="51.7597568873" lon="39.4238452893"><ele>122.71</ele><time>2016-12-25T11:32:45Z</time></trkpt><trkpt lat="51.7596751638" lon="39.4239079859"><ele>122.71</ele><time>2016-12-25T11:32:47Z</time></trkpt><trkpt lat="51.7596335057" lon="39.4239305332"><ele>123.19</ele><time>2016-12-25T11:32:48Z</time></trkpt><trkpt lat="51.7595929373" lon="39.4239476323"><ele>123.19</ele><time>2016-12-25T11:32:49Z</time></trkpt><trkpt lat="51.7595552187" lon="39.4239682518"><ele>123.19</ele><time>2016-12-25T11:32:50Z</time></trkpt><trkpt lat="51.7595199309" lon="39.4240033720"><ele>123.19</ele><time>2016-12-25T11:32:51Z</time></trkpt><trkpt lat="51.7594878282" lon="39.4240494724"><ele>123.67</ele><time>2016-12-25T11:32:52Z</time></trkpt><trkpt lat="51.7594585754" lon="39.4241039548"><ele>123.19</ele><time>2016-12-25T11:32:53Z</time></trkpt><trkpt lat="51.7594286520" lon="39.4241599459"><ele>123.19</ele><time>2016-12-25T11:32:54Z</time></trkpt><trkpt lat="51.7593962140" lon="39.4242146797"><ele>123.19</ele><time>2016-12-25T11:32:55Z</time></trkpt><trkpt lat="51.7591385543" lon="39.4245335273"><ele>123.67</ele><time>2016-12-25T11:33:03Z</time></trkpt><trkpt lat="51.7591064516" lon="39.4245805498"><ele>123.67</ele><time>2016-12-25T11:33:04Z</time></trkpt><trkpt lat="51.7588482052" lon="39.4249671232"><ele>123.19</ele><time>2016-12-25T11:33:12Z</time></trkpt><trkpt lat="51.7587750312" lon="39.4251191709"><ele>122.71</ele><time>2016-12-25T11:33:15Z</time></trkpt><trkpt lat="51.7583479732" lon="39.4257856160"><ele>119.82</ele><time>2016-12-25T11:33:29Z</time></trkpt><trkpt lat="51.7579653393" lon="39.4262436032"><ele>118.38</ele><time>2016-12-25T11:33:41Z</time></trkpt><trkpt lat="51.7576944362" lon="39.4260526635"><ele>117.90</ele><time>2016-12-25T11:33:52Z</time></trkpt><trkpt lat="51.7575331684" lon="39.4256666768"><ele>117.42</ele><time>2016-12-25T11:33:59Z</time></trkpt><trkpt lat="51.7575044185" lon="39.4256165531"><ele>117.42</ele><time>2016-12-25T11:34:00Z</time></trkpt><trkpt lat="51.7574752495" lon="39.4255724642"><ele>117.42</ele><time>2016-12-25T11:34:01Z</time></trkpt><trkpt lat="51.7572205234" lon="39.4252176583"><ele>117.42</ele><time>2016-12-25T11:34:09Z</time></trkpt><trkpt lat="51.7571980599" lon="39.4251643494"><ele>117.90</ele><time>2016-12-25T11:34:10Z</time></trkpt><trkpt lat="51.7571854033" lon="39.4251112919"><ele>117.90</ele><time>2016-12-25T11:34:11Z</time></trkpt><trkpt lat="51.7571792006" lon="39.4250513613"><ele>118.38</ele><time>2016-12-25T11:34:12Z</time></trkpt><trkpt lat="51.7571790330" lon="39.4249910116"><ele>118.86</ele><time>2016-12-25T11:34:13Z</time></trkpt><trkpt lat="51.7571810447" lon="39.4249270577"><ele>118.86</ele><time>2016-12-25T11:34:14Z</time></trkpt><trkpt lat="51.7571802903" lon="39.4248580746"><ele>119.34</ele><time>2016-12-25T11:34:15Z</time></trkpt><trkpt lat="51.7571792006" lon="39.4247887563"><ele>119.34</ele><time>2016-12-25T11:34:16Z</time></trkpt><trkpt lat="51.7571879178" lon="39.4237481430"><ele>120.30</ele><time>2016-12-25T11:34:32Z</time></trkpt><trkpt lat="51.7571718246" lon="39.4230640121"><ele>120.30</ele><time>2016-12-25T11:34:43Z</time></trkpt><trkpt lat="51.7571584973" lon="39.4220467843"><ele>119.34</ele><time>2016-12-25T11:34:59Z</time></trkpt><trkpt lat="51.7571781948" lon="39.4217784796"><ele>119.34</ele><time>2016-12-25T11:35:03Z</time></trkpt><trkpt lat="51.7571883369" lon="39.4213922415"><ele>119.82</ele><time>2016-12-25T11:35:09Z</time></trkpt><trkpt lat="51.7572258878" lon="39.4207186718"><ele>121.74</ele><time>2016-12-25T11:35:21Z</time></trkpt><trkpt lat="51.7571774404" lon="39.4199817348"><ele>123.19</ele><time>2016-12-25T11:35:35Z</time></trkpt><trkpt lat="51.7570707388" lon="39.4189890660"><ele>122.22</ele><time>2016-12-25T11:35:50Z</time></trkpt><trkpt lat="51.7569082975" lon="39.4179889373"><ele>121.74</ele><time>2016-12-25T11:36:07Z</time></trkpt><trkpt lat="51.7567813117" lon="39.4167759921"><ele>121.74</ele><time>2016-12-25T11:36:27Z</time></trkpt><trkpt lat="51.7569152545" lon="39.4160320144"><ele>120.30</ele><time>2016-12-25T11:36:40Z</time></trkpt><trkpt lat="51.7569610197" lon="39.4153412618"><ele>121.74</ele><time>2016-12-25T11:36:52Z</time></trkpt><trkpt lat="51.7569486145" lon="39.4150004536"><ele>121.26</ele><time>2016-12-25T11:36:57Z</time></trkpt><trkpt lat="51.7569191940" lon="39.4147213362"><ele>121.26</ele><time>2016-12-25T11:37:01Z</time></trkpt><trkpt lat="51.7569173500" lon="39.4146534428"><ele>121.26</ele><time>2016-12-25T11:37:02Z</time></trkpt><trkpt lat="51.7568358779" lon="39.4141534623"><ele>121.74</ele><time>2016-12-25T11:37:10Z</time></trkpt><trkpt lat="51.7568096425" lon="39.4140935317"><ele>121.26</ele><time>2016-12-25T11:37:11Z</time></trkpt><trkpt lat="51.7567834072" lon="39.4140367862"><ele>121.26</ele><time>2016-12-25T11:37:12Z</time></trkpt><trkpt lat="51.7567603569" lon="39.4139725808"><ele>120.78</ele><time>2016-12-25T11:37:13Z</time></trkpt><trkpt lat="51.7567462754" lon="39.4139038492"><ele>120.78</ele><time>2016-12-25T11:37:14Z</time></trkpt><trkpt lat="51.7567409109" lon="39.4138395600"><ele>120.30</ele><time>2016-12-25T11:37:15Z</time></trkpt><trkpt lat="51.7567363009" lon="39.4137799647"><ele>119.82</ele><time>2016-12-25T11:37:16Z</time></trkpt><trkpt lat="51.7566362210" lon="39.4131054729"><ele>117.90</ele><time>2016-12-25T11:37:27Z</time></trkpt><trkpt lat="51.7565705907" lon="39.4120408036"><ele>118.38</ele><time>2016-12-25T11:37:44Z</time></trkpt><trkpt lat="51.7563988455" lon="39.4113168586"><ele>120.78</ele><time>2016-12-25T11:37:57Z</time></trkpt><trkpt lat="51.7561499029" lon="39.4105528481"><ele>122.22</ele><time>2016-12-25T11:38:11Z</time></trkpt><trkpt lat="51.7559603043" lon="39.4098012429"><ele>121.26</ele><time>2016-12-25T11:38:24Z</time></trkpt><trkpt lat="51.7558418680" lon="39.4092535693"><ele>120.78</ele><time>2016-12-25T11:38:32Z</time></trkpt><trkpt lat="51.7558195721" lon="39.4091853406"><ele>120.78</ele><time>2016-12-25T11:38:33Z</time></trkpt><trkpt lat="51.7557476554" lon="39.4089739490"><ele>120.30</ele><time>2016-12-25T11:38:36Z</time></trkpt><trkpt lat="51.7557298020" lon="39.4088970032"><ele>120.30</ele><time>2016-12-25T11:38:37Z</time></trkpt><trkpt lat="51.7556643393" lon="39.4086134434"><ele>119.82</ele><time>2016-12-25T11:38:41Z</time></trkpt><trkpt lat="51.7554873135" lon="39.4081538636"><ele>119.34</ele><time>2016-12-25T11:38:48Z</time></trkpt><trkpt lat="51.7554540373" lon="39.4080195855"><ele>119.82</ele><time>2016-12-25T11:38:50Z</time></trkpt><trkpt lat="51.7554393690" lon="39.4079511892"><ele>119.34</ele><time>2016-12-25T11:38:51Z</time></trkpt><trkpt lat="51.7553313263" lon="39.4075453375"><ele>120.30</ele><time>2016-12-25T11:38:57Z</time></trkpt><trkpt lat="51.7553210165" lon="39.4074796233"><ele>120.78</ele><time>2016-12-25T11:38:58Z</time></trkpt><trkpt lat="51.7553099524" lon="39.4074124843"><ele>120.78</ele><time>2016-12-25T11:38:59Z</time></trkpt><trkpt lat="51.7553006485" lon="39.4073446747"><ele>120.78</ele><time>2016-12-25T11:39:00Z</time></trkpt><trkpt lat="51.7552931048" lon="39.4072784577"><ele>121.26</ele><time>2016-12-25T11:39:01Z</time></trkpt><trkpt lat="51.7552851420" lon="39.4072140846"><ele>121.26</ele><time>2016-12-25T11:39:02Z</time></trkpt><trkpt lat="51.7552794423" lon="39.4071478676"><ele>121.26</ele><time>2016-12-25T11:39:03Z</time></trkpt><trkpt lat="51.7550796177" lon="39.4063675962"><ele>120.78</ele><time>2016-12-25T11:39:16Z</time></trkpt><trkpt lat="51.7547677271" lon="39.4055006560"><ele>120.30</ele><time>2016-12-25T11:39:31Z</time></trkpt><trkpt lat="51.7545838282" lon="39.4048206322"><ele>121.74</ele><time>2016-12-25T11:39:43Z</time></trkpt><trkpt lat="51.7543546669" lon="39.4040111080"><ele>122.71</ele><time>2016-12-25T11:39:57Z</time></trkpt><trkpt lat="51.7541377433" lon="39.4032008294"><ele>122.71</ele><time>2016-12-25T11:40:11Z</time></trkpt><trkpt lat="51.7539708596" lon="39.4026106596"><ele>121.74</ele><time>2016-12-25T11:40:22Z</time></trkpt><trkpt lat="51.7537984438" lon="39.4019770715"><ele>121.74</ele><time>2016-12-25T11:40:33Z</time></trkpt><trkpt lat="51.7535301391" lon="39.4009925332"><ele>121.74</ele><time>2016-12-25T11:40:49Z</time></trkpt><trkpt lat="51.7535136268" lon="39.4009280764"><ele>121.74</ele><time>2016-12-25T11:40:50Z</time></trkpt><trkpt lat="51.7532610800" lon="39.4001234975"><ele>119.82</ele><time>2016-12-25T11:41:04Z</time></trkpt><trkpt lat="51.7531475052" lon="39.3993368559"><ele>117.90</ele><time>2016-12-25T11:41:17Z</time></trkpt><trkpt lat="51.7529688030" lon="39.3984842487"><ele>120.30</ele><time>2016-12-25T11:41:32Z</time></trkpt><trkpt lat="51.7528596707" lon="39.3978273589"><ele>119.82</ele><time>2016-12-25T11:41:43Z</time></trkpt><trkpt lat="51.7528447509" lon="39.3976341560"><ele>119.82</ele><time>2016-12-25T11:41:46Z</time></trkpt><trkpt lat="51.7526677251" lon="39.3968552258"><ele>120.30</ele><time>2016-12-25T11:41:59Z</time></trkpt><trkpt lat="51.7524165194" lon="39.3961127568"><ele>122.22</ele><time>2016-12-25T11:42:12Z</time></trkpt><trkpt lat="51.7523446027" lon="39.3953251094"><ele>123.67</ele><time>2016-12-25T11:42:25Z</time></trkpt><trkpt lat="51.7520948220" lon="39.3946694769"><ele>124.15</ele><time>2016-12-25T11:42:37Z</time></trkpt><trkpt lat="51.7517403513" lon="39.3936529197"><ele>122.71</ele><time>2016-12-25T11:42:54Z</time></trkpt><trkpt lat="51.7515717074" lon="39.3927968759"><ele>123.67</ele><time>2016-12-25T11:43:08Z</time></trkpt><trkpt lat="51.7513199989" lon="39.3920989148"><ele>121.26</ele><time>2016-12-25T11:43:21Z</time></trkpt><trkpt lat="51.7512215953" lon="39.3914781511"><ele>120.78</ele><time>2016-12-25T11:43:32Z</time></trkpt><trkpt lat="51.7509636004" lon="39.3908464909"><ele>123.19</ele><time>2016-12-25T11:43:45Z</time></trkpt><trkpt lat="51.7506587505" lon="39.3902211171"><ele>125.11</ele><time>2016-12-25T11:43:59Z</time></trkpt><trkpt lat="51.7502705008" lon="39.3896296900"><ele>125.11</ele><time>2016-12-25T11:44:13Z</time></trkpt><trkpt lat="51.7499646451" lon="39.3890959304"><ele>124.15</ele><time>2016-12-25T11:44:24Z</time></trkpt><trkpt lat="51.7496872041" lon="39.3884646893"><ele>122.22</ele><time>2016-12-25T11:44:36Z</time></trkpt><trkpt lat="51.7494731303" lon="39.3879324384"><ele>122.22</ele><time>2016-12-25T11:44:46Z</time></trkpt><trkpt lat="51.7492510099" lon="39.3871900532"><ele>121.26</ele><time>2016-12-25T11:44:58Z</time></trkpt><trkpt lat="51.7491857987" lon="39.3870052323"><ele>121.26</ele><time>2016-12-25T11:45:01Z</time></trkpt><trkpt lat="51.7491666880" lon="39.3869479001"><ele>120.78</ele><time>2016-12-25T11:45:02Z</time></trkpt><trkpt lat="51.7490859702" lon="39.3866905756"><ele>120.30</ele><time>2016-12-25T11:45:06Z</time></trkpt><trkpt lat="51.7490806896" lon="39.3866244424"><ele>120.30</ele><time>2016-12-25T11:45:07Z</time></trkpt><trkpt lat="51.7490806058" lon="39.3865566328"><ele>119.82</ele><time>2016-12-25T11:45:08Z</time></trkpt><trkpt lat="51.7490007263" lon="39.3857598491"><ele>119.34</ele><time>2016-12-25T11:45:21Z</time></trkpt><trkpt lat="51.7489702161" lon="39.3856424186"><ele>118.86</ele><time>2016-12-25T11:45:23Z</time></trkpt><trkpt lat="51.7488910072" lon="39.3853428494"><ele>119.34</ele><time>2016-12-25T11:45:28Z</time></trkpt><trkpt lat="51.7485816311" lon="39.3845044915"><ele>119.34</ele><time>2016-12-25T11:45:43Z</time></trkpt><trkpt lat="51.7482730094" lon="39.3837350328"><ele>119.82</ele><time>2016-12-25T11:45:58Z</time></trkpt><trkpt lat="51.7480232287" lon="39.3831810728"><ele>120.30</ele><time>2016-12-25T11:46:12Z</time></trkpt><trkpt lat="51.7478191294" lon="39.3824696168"><ele>120.30</ele><time>2016-12-25T11:46:28Z</time></trkpt><trkpt lat="51.7476359848" lon="39.3818627670"><ele>120.78</ele><time>2016-12-25T11:46:42Z</time></trkpt><trkpt lat="51.7473468091" lon="39.3811124191"><ele>120.30</ele><time>2016-12-25T11:46:59Z</time></trkpt><trkpt lat="51.7470459826" lon="39.3809579406"><ele>120.30</ele><time>2016-12-25T11:47:10Z</time></trkpt><trkpt lat="51.7466046754" lon="39.3813171051"><ele>119.34</ele><time>2016-12-25T11:47:25Z</time></trkpt><trkpt lat="51.7463255581" lon="39.3812013511"><ele>117.90</ele><time>2016-12-25T11:47:35Z</time></trkpt><trkpt lat="51.7462586705" lon="39.3811605312"><ele>118.38</ele><time>2016-12-25T11:47:46Z</time></trkpt><trkpt lat="51.7462496180" lon="39.3811528198"><ele>118.38</ele><time>2016-12-25T11:47:47Z</time></trkpt><trkpt lat="51.7462438345" lon="39.3811368942"><ele>118.38</ele><time>2016-12-25T11:47:48Z</time></trkpt><trkpt lat="51.7462344468" lon="39.3811167777"><ele>118.38</ele><time>2016-12-25T11:47:49Z</time></trkpt><trkpt lat="51.7460217979" lon="39.3805458024"><ele>120.78</ele><time>2016-12-25T11:48:02Z</time></trkpt><trkpt lat="51.7459622864" lon="39.3803728838"><ele>120.78</ele><time>2016-12-25T11:48:05Z</time></trkpt><trkpt lat="51.7459390685" lon="39.3803114444"><ele>120.78</ele><time>2016-12-25T11:48:06Z</time></trkpt><trkpt lat="51.7456282675" lon="39.3793730065"><ele>119.34</ele><time>2016-12-25T11:48:20Z</time></trkpt><trkpt lat="51.7452594638" lon="39.3782613985"><ele>118.86</ele><time>2016-12-25T11:48:36Z</time></trkpt><trkpt lat="51.7448592279" lon="39.3770574220"><ele>117.42</ele><time>2016-12-25T11:48:52Z</time></trkpt><trkpt lat="51.7442990653" lon="39.3754040916"><ele>116.46</ele><time>2016-12-25T11:49:15Z</time></trkpt><trkpt lat="51.7438897770" lon="39.3741833512"><ele>115.50</ele><time>2016-12-25T11:49:32Z</time></trkpt><trkpt lat="51.7435293552" lon="39.3730985653"><ele>114.53</ele><time>2016-12-25T11:49:47Z</time></trkpt><trkpt lat="51.7431280296" lon="39.3718521763"><ele>114.05</ele><time>2016-12-25T11:50:04Z</time></trkpt><trkpt lat="51.7427881435" lon="39.3708521314"><ele>115.01</ele><time>2016-12-25T11:50:18Z</time></trkpt><trkpt lat="51.7424165737" lon="39.3697120249"><ele>115.01</ele><time>2016-12-25T11:50:34Z</time></trkpt><trkpt lat="51.7420924455" lon="39.3687065318"><ele>115.98</ele><time>2016-12-25T11:50:49Z</time></trkpt><trkpt lat="51.7419771105" lon="39.3683549110"><ele>116.94</ele><time>2016-12-25T11:50:54Z</time></trkpt><trkpt lat="51.7417134997" lon="39.3672452308"><ele>115.98</ele><time>2016-12-25T11:51:09Z</time></trkpt><trkpt lat="51.7415002640" lon="39.3660263345"><ele>115.01</ele><time>2016-12-25T11:51:25Z</time></trkpt><trkpt lat="51.7411214020" lon="39.3643725850"><ele>112.13</ele><time>2016-12-25T11:51:47Z</time></trkpt><trkpt lat="51.7406775802" lon="39.3628031574"><ele>111.17</ele><time>2016-12-25T11:52:08Z</time></trkpt><trkpt lat="51.7403340060" lon="39.3615664914"><ele>109.25</ele><time>2016-12-25T11:52:24Z</time></trkpt><trkpt lat="51.7399774399" lon="39.3603319209"><ele>107.81</ele><time>2016-12-25T11:52:40Z</time></trkpt><trkpt lat="51.7395463586" lon="39.3587833643"><ele>107.81</ele><time>2016-12-25T11:52:59Z</time></trkpt><trkpt lat="51.7392921355" lon="39.3578609359"><ele>107.32</ele><time>2016-12-25T11:53:10Z</time></trkpt><trkpt lat="51.7392708454" lon="39.3577748537"><ele>107.32</ele><time>2016-12-25T11:53:11Z</time></trkpt><trkpt lat="51.7388330586" lon="39.3561743293"><ele>105.88</ele><time>2016-12-25T11:53:28Z</time></trkpt><trkpt lat="51.7385184020" lon="39.3550996855"><ele>105.40</ele><time>2016-12-25T11:53:43Z</time></trkpt><trkpt lat="51.7384626623" lon="39.3549701013"><ele>105.40</ele><time>2016-12-25T11:53:46Z</time></trkpt><trkpt lat="51.7384237703" lon="39.3549553491"><ele>105.40</ele><time>2016-12-25T11:53:47Z</time></trkpt><trkpt lat="51.7383805197" lon="39.3549670000"><ele>105.40</ele><time>2016-12-25T11:53:48Z</time></trkpt><trkpt lat="51.7383409571" lon="39.3549926486"><ele>105.40</ele><time>2016-12-25T11:53:49Z</time></trkpt><trkpt lat="51.7382953595" lon="39.3550249189"><ele>105.40</ele><time>2016-12-25T11:53:50Z</time></trkpt><trkpt lat="51.7378615122" lon="39.3553561717"><ele>105.88</ele><time>2016-12-25T11:54:00Z</time></trkpt><trkpt lat="51.7378222011" lon="39.3553469516"><ele>105.88</ele><time>2016-12-25T11:54:09Z</time></trkpt><trkpt lat="51.7378045153" lon="39.3553645536"><ele>106.84</ele><time>2016-12-25T11:54:38Z</time></trkpt><trkpt lat="51.7378033418" lon="39.3553780485"><ele>107.81</ele><time>2016-12-25T11:54:58Z</time></trkpt><trkpt lat="51.7377978098" lon="39.3554017693"><ele>107.81</ele><time>2016-12-25T11:55:21Z</time></trkpt><trkpt lat="51.7377875838" lon="39.3554221373"><ele>107.81</ele><time>2016-12-25T11:55:22Z</time></trkpt><trkpt lat="51.7377742566" lon="39.3554374762"><ele>107.81</ele><time>2016-12-25T11:55:23Z</time></trkpt><trkpt lat="51.7373705003" lon="39.3557625264"><ele>107.32</ele><time>2016-12-25T11:55:38Z</time></trkpt><trkpt lat="51.7367253453" lon="39.3563098647"><ele>105.40</ele><time>2016-12-25T11:55:56Z</time></trkpt><trkpt lat="51.7357548047" lon="39.3571232446"><ele>103.96</ele><time>2016-12-25T11:56:19Z</time></trkpt><trkpt lat="51.7349242419" lon="39.3577871751"><ele>103.48</ele><time>2016-12-25T11:56:38Z</time></trkpt><trkpt lat="51.7341643386" lon="39.3585158139"><ele>103.48</ele><time>2016-12-25T11:56:56Z</time></trkpt><trkpt lat="51.7337361071" lon="39.3589536007"><ele>104.44</ele><time>2016-12-25T11:57:07Z</time></trkpt><trkpt lat="51.7336917669" lon="39.3589698616"><ele>104.44</ele><time>2016-12-25T11:57:08Z</time></trkpt><trkpt lat="51.7336449120" lon="39.3589699455"><ele>104.44</ele><time>2016-12-25T11:57:09Z</time></trkpt><trkpt lat="51.7335934471" lon="39.3589472305"><ele>104.92</ele><time>2016-12-25T11:57:10Z</time></trkpt><trkpt lat="51.7335545551" lon="39.3589082547"><ele>105.40</ele><time>2016-12-25T11:57:11Z</time></trkpt><trkpt lat="51.7335245479" lon="39.3588587176"><ele>105.40</ele><time>2016-12-25T11:57:12Z</time></trkpt><trkpt lat="51.7334961332" lon="39.3587974459"><ele>105.88</ele><time>2016-12-25T11:57:13Z</time></trkpt><trkpt lat="51.7334711552" lon="39.3587322347"><ele>106.36</ele><time>2016-12-25T11:57:14Z</time></trkpt><trkpt lat="51.7334049381" lon="39.3585272972"><ele>106.84</ele><time>2016-12-25T11:57:17Z</time></trkpt><trkpt lat="51.7333905213" lon="39.3584591523"><ele>106.84</ele><time>2016-12-25T11:57:18Z</time></trkpt><trkpt lat="51.7333315965" lon="39.3581646122"><ele>106.84</ele><time>2016-12-25T11:57:22Z</time></trkpt><trkpt lat="51.7333206162" lon="39.3580828886"><ele>106.84</ele><time>2016-12-25T11:57:23Z</time></trkpt><trkpt lat="51.7331729271" lon="39.3568706978"><ele>106.84</ele><time>2016-12-25T11:57:39Z</time></trkpt><trkpt lat="51.7329927161" lon="39.3556471076"><ele>106.84</ele><time>2016-12-25T11:57:55Z</time></trkpt><trkpt lat="51.7327871919" lon="39.3542022351"><ele>106.36</ele><time>2016-12-25T11:58:12Z</time></trkpt><trkpt lat="51.7325157858" lon="39.3525287043"><ele>106.84</ele><time>2016-12-25T11:58:31Z</time></trkpt><trkpt lat="51.7322768178" lon="39.3511104863"><ele>104.92</ele><time>2016-12-25T11:58:47Z</time></trkpt><trkpt lat="51.7320300546" lon="39.3501874711"><ele>104.92</ele><time>2016-12-25T11:59:01Z</time></trkpt><trkpt lat="51.7319843732" lon="39.3501445558"><ele>104.92</ele><time>2016-12-25T11:59:02Z</time></trkpt><trkpt lat="51.7319492530" lon="39.3501214217"><ele>104.92</ele><time>2016-12-25T11:59:03Z</time></trkpt><trkpt lat="51.7318960279" lon="39.3501043227"><ele>104.92</ele><time>2016-12-25T11:59:04Z</time></trkpt><trkpt lat="51.7318469938" lon="39.3500992935"><ele>104.44</ele><time>2016-12-25T11:59:05Z</time></trkpt><trkpt lat="51.7317922600" lon="39.3500983715"><ele>104.44</ele><time>2016-12-25T11:59:06Z</time></trkpt><trkpt lat="51.7309923749" lon="39.3498350959"><ele>104.92</ele><time>2016-12-25T11:59:22Z</time></trkpt><trkpt lat="51.7303070705" lon="39.3491500430"><ele>106.36</ele><time>2016-12-25T11:59:38Z</time></trkpt><trkpt lat="51.7298364267" lon="39.3481505010"><ele>106.36</ele><time>2016-12-25T11:59:53Z</time></trkpt><trkpt lat="51.7297917511" lon="39.3479150534"><ele>106.84</ele><time>2016-12-25T11:59:56Z</time></trkpt><trkpt lat="51.7297574691" lon="39.3475884944"><ele>106.84</ele><time>2016-12-25T12:00:00Z</time></trkpt><trkpt lat="51.7296615802" lon="39.3462409358"><ele>106.36</ele><time>2016-12-25T12:00:16Z</time></trkpt><trkpt lat="51.7295384500" lon="39.3448526412"><ele>105.88</ele><time>2016-12-25T12:00:32Z</time></trkpt><trkpt lat="51.7294022441" lon="39.3434117083"><ele>107.32</ele><time>2016-12-25T12:00:49Z</time></trkpt><trkpt lat="51.7292873282" lon="39.3418235891"><ele>106.36</ele><time>2016-12-25T12:01:07Z</time></trkpt><trkpt lat="51.7291966360" lon="39.3402316980"><ele>104.92</ele><time>2016-12-25T12:01:25Z</time></trkpt><trkpt lat="51.7290973943" lon="39.3385833129"><ele>105.88</ele><time>2016-12-25T12:01:44Z</time></trkpt><trkpt lat="51.7290772777" lon="39.3376435339"><ele>105.88</ele><time>2016-12-25T12:01:55Z</time></trkpt><trkpt lat="51.7290879227" lon="39.3375596311"><ele>105.88</ele><time>2016-12-25T12:01:56Z</time></trkpt><trkpt lat="51.7291034292" lon="39.3374717049"><ele>105.88</ele><time>2016-12-25T12:01:57Z</time></trkpt><trkpt lat="51.7291212827" lon="39.3373921607"><ele>106.36</ele><time>2016-12-25T12:01:58Z</time></trkpt><trkpt lat="51.7291416507" lon="39.3373148795"><ele>106.36</ele><time>2016-12-25T12:01:59Z</time></trkpt><trkpt lat="51.7296178266" lon="39.3360860087"><ele>103.96</ele><time>2016-12-25T12:02:15Z</time></trkpt><trkpt lat="51.7298531905" lon="39.3348265439"><ele>103.96</ele><time>2016-12-25T12:02:30Z</time></trkpt><trkpt lat="51.7297797650" lon="39.3335030414"><ele>104.92</ele><time>2016-12-25T12:02:46Z</time></trkpt><trkpt lat="51.7297698744" lon="39.3321487773"><ele>105.40</ele><time>2016-12-25T12:03:02Z</time></trkpt><trkpt lat="51.7300738860" lon="39.3307810184"><ele>103.96</ele><time>2016-12-25T12:03:19Z</time></trkpt><trkpt lat="51.7304025404" lon="39.3299570773"><ele>103.48</ele><time>2016-12-25T12:03:31Z</time></trkpt><trkpt lat="51.7311858293" lon="39.3286865484"><ele>103.96</ele><time>2016-12-25T12:03:53Z</time></trkpt><trkpt lat="51.7314445786" lon="39.3275490403"><ele>104.92</ele><time>2016-12-25T12:04:08Z</time></trkpt><trkpt lat="51.7315261345" lon="39.3265101872"><ele>105.40</ele><time>2016-12-25T12:04:21Z</time></trkpt><trkpt lat="51.7315340973" lon="39.3264307268"><ele>105.40</ele><time>2016-12-25T12:04:22Z</time></trkpt><trkpt lat="51.7316470854" lon="39.3249417655"><ele>104.44</ele><time>2016-12-25T12:04:40Z</time></trkpt><trkpt lat="51.7317825370" lon="39.3232555781"><ele>104.92</ele><time>2016-12-25T12:04:58Z</time></trkpt><trkpt lat="51.7319025658" lon="39.3217954505"><ele>104.92</ele><time>2016-12-25T12:05:16Z</time></trkpt><trkpt lat="51.7318161484" lon="39.3205509055"><ele>104.92</ele><time>2016-12-25T12:05:32Z</time></trkpt><trkpt lat="51.7312981468" lon="39.3196502700"><ele>105.40</ele><time>2016-12-25T12:05:48Z</time></trkpt><trkpt lat="51.7305082362" lon="39.3192362040"><ele>103.96</ele><time>2016-12-25T12:06:06Z</time></trkpt><trkpt lat="51.7295501009" lon="39.3190295063"><ele>104.92</ele><time>2016-12-25T12:06:26Z</time></trkpt><trkpt lat="51.7287016846" lon="39.3188602757"><ele>105.88</ele><time>2016-12-25T12:06:45Z</time></trkpt><trkpt lat="51.7277958523" lon="39.3186631333"><ele>107.81</ele><time>2016-12-25T12:07:05Z</time></trkpt><trkpt lat="51.7268564086" lon="39.3184706010"><ele>108.29</ele><time>2016-12-25T12:07:26Z</time></trkpt><trkpt lat="51.7263019457" lon="39.3183265161"><ele>108.77</ele><time>2016-12-25T12:07:39Z</time></trkpt><trkpt lat="51.7262659874" lon="39.3182966765"><ele>108.77</ele><time>2016-12-25T12:07:40Z</time></trkpt><trkpt lat="51.7262282688" lon="39.3182488997"><ele>108.29</ele><time>2016-12-25T12:07:41Z</time></trkpt><trkpt lat="51.7261994351" lon="39.3181909807"><ele>108.77</ele><time>2016-12-25T12:07:42Z</time></trkpt><trkpt lat="51.7261763010" lon="39.3181173038"><ele>108.77</ele><time>2016-12-25T12:07:43Z</time></trkpt><trkpt lat="51.7261677515" lon="39.3180675991"><ele>108.77</ele><time>2016-12-25T12:07:44Z</time></trkpt><trkpt lat="51.7261671647" lon="39.3179929163"><ele>108.77</ele><time>2016-12-25T12:07:45Z</time></trkpt><trkpt lat="51.7261699308" lon="39.3179283757"><ele>108.77</ele><time>2016-12-25T12:07:46Z</time></trkpt><trkpt lat="51.7262602039" lon="39.3169518001"><ele>109.25</ele><time>2016-12-25T12:08:00Z</time></trkpt><trkpt lat="51.7263842560" lon="39.3156539463"><ele>110.69</ele><time>2016-12-25T12:08:18Z</time></trkpt><trkpt lat="51.7265047878" lon="39.3143896200"><ele>114.05</ele><time>2016-12-25T12:08:38Z</time></trkpt><trkpt lat="51.7266522255" lon="39.3128388841"><ele>117.42</ele><time>2016-12-25T12:09:02Z</time></trkpt><trkpt lat="51.7267999984" lon="39.3113751523"><ele>119.34</ele><time>2016-12-25T12:09:23Z</time></trkpt><trkpt lat="51.7269336898" lon="39.3098978419"><ele>119.82</ele><time>2016-12-25T12:09:43Z</time></trkpt><trkpt lat="51.7271253839" lon="39.3079634663"><ele>119.82</ele><time>2016-12-25T12:10:07Z</time></trkpt><trkpt lat="51.7272635177" lon="39.3064882513"><ele>117.90</ele><time>2016-12-25T12:10:25Z</time></trkpt><trkpt lat="51.7274548765" lon="39.3045521993"><ele>115.50</ele><time>2016-12-25T12:10:48Z</time></trkpt><trkpt lat="51.7276453134" lon="39.3025697116"><ele>112.61</ele><time>2016-12-25T12:11:10Z</time></trkpt><trkpt lat="51.7278152145" lon="39.3007553648"><ele>112.13</ele><time>2016-12-25T12:11:31Z</time></trkpt><trkpt lat="51.7278935853" lon="39.2987870425"><ele>111.65</ele><time>2016-12-25T12:11:54Z</time></trkpt><trkpt lat="51.7278066650" lon="39.2970500607"><ele>111.65</ele><time>2016-12-25T12:12:15Z</time></trkpt><trkpt lat="51.7277614865" lon="39.2969299480"><ele>111.65</ele><time>2016-12-25T12:12:17Z</time></trkpt><trkpt lat="51.7277248576" lon="39.2968824226"><ele>111.65</ele><time>2016-12-25T12:12:18Z</time></trkpt><trkpt lat="51.7276972812" lon="39.2968556006"><ele>111.65</ele><time>2016-12-25T12:12:19Z</time></trkpt><trkpt lat="51.7276605684" lon="39.2968266830"><ele>111.65</ele><time>2016-12-25T12:12:20Z</time></trkpt><trkpt lat="51.7276187427" lon="39.2968022916"><ele>111.65</ele><time>2016-12-25T12:12:21Z</time></trkpt><trkpt lat="51.7275739834" lon="39.2967821751"><ele>111.65</ele><time>2016-12-25T12:12:22Z</time></trkpt><trkpt lat="51.7267005891" lon="39.2965453863"><ele>111.17</ele><time>2016-12-25T12:12:41Z</time></trkpt><trkpt lat="51.7256693635" lon="39.2962744832"><ele>110.21</ele><time>2016-12-25T12:13:03Z</time></trkpt><trkpt lat="51.7246911116" lon="39.2960121296"><ele>109.25</ele><time>2016-12-25T12:13:23Z</time></trkpt><trkpt lat="51.7235934176" lon="39.2957265582"><ele>108.29</ele><time>2016-12-25T12:13:45Z</time></trkpt><trkpt lat="51.7225589231" lon="39.2954626959"><ele>107.32</ele><time>2016-12-25T12:14:05Z</time></trkpt><trkpt lat="51.7214638274" lon="39.2951766215"><ele>106.36</ele><time>2016-12-25T12:14:26Z</time></trkpt><trkpt lat="51.7204074562" lon="39.2949146871"><ele>106.36</ele><time>2016-12-25T12:14:47Z</time></trkpt><trkpt lat="51.7193868756" lon="39.2946117651"><ele>107.32</ele><time>2016-12-25T12:15:08Z</time></trkpt><trkpt lat="51.7182803806" lon="39.2943230923"><ele>107.81</ele><time>2016-12-25T12:15:31Z</time></trkpt><trkpt lat="51.7172525916" lon="39.2940543685"><ele>108.29</ele><time>2016-12-25T12:15:52Z</time></trkpt><trkpt lat="51.7164291535" lon="39.2938453238"><ele>107.81</ele><time>2016-12-25T12:16:09Z</time></trkpt><trkpt lat="51.7159835715" lon="39.2937364429"><ele>107.81</ele><time>2016-12-25T12:16:19Z</time></trkpt><trkpt lat="51.7151585408" lon="39.2935278174"><ele>108.29</ele><time>2016-12-25T12:16:37Z</time></trkpt><trkpt lat="51.7142895889" lon="39.2933051940"><ele>108.77</ele><time>2016-12-25T12:16:56Z</time></trkpt><trkpt lat="51.7134194635" lon="39.2930803914"><ele>108.29</ele><time>2016-12-25T12:17:15Z</time></trkpt><trkpt lat="51.7126526032" lon="39.2928815726"><ele>109.73</ele><time>2016-12-25T12:17:32Z</time></trkpt><trkpt lat="51.7120619304" lon="39.2927341349"><ele>110.21</ele><time>2016-12-25T12:17:45Z</time></trkpt><trkpt lat="51.7116558272" lon="39.2926208116"><ele>111.17</ele><time>2016-12-25T12:17:54Z</time></trkpt><trkpt lat="51.7116132472" lon="39.2926079873"><ele>110.69</ele><time>2016-12-25T12:17:55Z</time></trkpt><trkpt lat="51.7109525856" lon="39.2924488150"><ele>112.13</ele><time>2016-12-25T12:18:10Z</time></trkpt><trkpt lat="51.7109061498" lon="39.2924307100"><ele>112.13</ele><time>2016-12-25T12:18:11Z</time></trkpt><trkpt lat="51.7101020738" lon="39.2922305502"><ele>113.09</ele><time>2016-12-25T12:18:29Z</time></trkpt><trkpt lat="51.7092685774" lon="39.2920261994"><ele>113.57</ele><time>2016-12-25T12:18:47Z</time></trkpt><trkpt lat="51.7084700335" lon="39.2918110359"><ele>114.05</ele><time>2016-12-25T12:19:04Z</time></trkpt><trkpt lat="51.7082319036" lon="39.2917439807"><ele>113.57</ele><time>2016-12-25T12:19:09Z</time></trkpt><trkpt lat="51.7074455135" lon="39.2915559746"><ele>113.57</ele><time>2016-12-25T12:19:26Z</time></trkpt><trkpt lat="51.7071296833" lon="39.2914732452"><ele>113.57</ele><time>2016-12-25T12:19:33Z</time></trkpt><trkpt lat="51.7070842534" lon="39.2914615106"><ele>113.57</ele><time>2016-12-25T12:19:34Z</time></trkpt><trkpt lat="51.7070396617" lon="39.2914489377"><ele>113.57</ele><time>2016-12-25T12:19:35Z</time></trkpt><trkpt lat="51.7062049918" lon="39.2912414856"><ele>113.09</ele><time>2016-12-25T12:19:53Z</time></trkpt><trkpt lat="51.7053833976" lon="39.2910328601"><ele>115.01</ele><time>2016-12-25T12:20:10Z</time></trkpt><trkpt lat="51.7045466322" lon="39.2908253241"><ele>115.50</ele><time>2016-12-25T12:20:28Z</time></trkpt><trkpt lat="51.7036180850" lon="39.2905918881"><ele>115.98</ele><time>2016-12-25T12:20:48Z</time></trkpt><trkpt lat="51.7028068006" lon="39.2902082484"><ele>116.46</ele><time>2016-12-25T12:21:06Z</time></trkpt><trkpt lat="51.7023190577" lon="39.2894801125"><ele>115.50</ele><time>2016-12-25T12:21:20Z</time></trkpt><trkpt lat="51.7022711970" lon="39.2893579043"><ele>115.50</ele><time>2016-12-25T12:21:22Z</time></trkpt><trkpt lat="51.7021701112" lon="39.2889873404"><ele>115.01</ele><time>2016-12-25T12:21:27Z</time></trkpt><trkpt lat="51.7021088395" lon="39.2878601421"><ele>113.57</ele><time>2016-12-25T12:21:42Z</time></trkpt><trkpt lat="51.7022073269" lon="39.2865972407"><ele>112.61</ele><time>2016-12-25T12:21:58Z</time></trkpt><trkpt lat="51.7023328878" lon="39.2851112131"><ele>112.61</ele><time>2016-12-25T12:22:16Z</time></trkpt><trkpt lat="51.7024132702" lon="39.2841001879"><ele>112.61</ele><time>2016-12-25T12:22:28Z</time></trkpt><trkpt lat="51.7025298625" lon="39.2826776952"><ele>112.13</ele><time>2016-12-25T12:22:45Z</time></trkpt><trkpt lat="51.7026740313" lon="39.2809725646"><ele>111.65</ele><time>2016-12-25T12:23:05Z</time></trkpt><trkpt lat="51.7028273363" lon="39.2790305614"><ele>107.32</ele><time>2016-12-25T12:23:26Z</time></trkpt><trkpt lat="51.7029908672" lon="39.2772525083"><ele>104.44</ele><time>2016-12-25T12:23:45Z</time></trkpt><trkpt lat="51.7030845769" lon="39.2758477852"><ele>107.32</ele><time>2016-12-25T12:23:59Z</time></trkpt><trkpt lat="51.7030889355" lon="39.2754452862"><ele>107.81</ele><time>2016-12-25T12:24:04Z</time></trkpt><trkpt lat="51.7030820623" lon="39.2753698491"><ele>107.81</ele><time>2016-12-25T12:24:05Z</time></trkpt><trkpt lat="51.7030684836" lon="39.2752991896"><ele>107.81</ele><time>2016-12-25T12:24:06Z</time></trkpt><trkpt lat="51.7030462716" lon="39.2752266023"><ele>108.29</ele><time>2016-12-25T12:24:07Z</time></trkpt><trkpt lat="51.7030163482" lon="39.2751596309"><ele>108.29</ele><time>2016-12-25T12:24:08Z</time></trkpt><trkpt lat="51.7029840779" lon="39.2751091719"><ele>108.29</ele><time>2016-12-25T12:24:09Z</time></trkpt><trkpt lat="51.7029544897" lon="39.2750732973"><ele>108.77</ele><time>2016-12-25T12:24:10Z</time></trkpt><trkpt lat="51.7029157653" lon="39.2750381771"><ele>108.77</ele><time>2016-12-25T12:24:11Z</time></trkpt><trkpt lat="51.7028728500" lon="39.2750083376"><ele>109.25</ele><time>2016-12-25T12:24:12Z</time></trkpt><trkpt lat="51.7028268334" lon="39.2749839462"><ele>109.25</ele><time>2016-12-25T12:24:13Z</time></trkpt><trkpt lat="51.7027777992" lon="39.2749668472"><ele>109.25</ele><time>2016-12-25T12:24:14Z</time></trkpt><trkpt lat="51.7017843761" lon="39.2745881528"><ele>109.73</ele><time>2016-12-25T12:24:36Z</time></trkpt><trkpt lat="51.7013769317" lon="39.2743256316"><ele>110.69</ele><time>2016-12-25T12:24:50Z</time></trkpt><trkpt lat="51.7012235429" lon="39.2742548045"><ele>112.13</ele><time>2016-12-25T12:25:15Z</time></trkpt><trkpt lat="51.7011640314" lon="39.2741608433"><ele>112.13</ele><time>2016-12-25T12:25:17Z</time></trkpt><trkpt lat="51.7011434119" lon="39.2741108034"><ele>112.13</ele><time>2016-12-25T12:25:18Z</time></trkpt><trkpt lat="51.7011174280" lon="39.2740559019"><ele>112.13</ele><time>2016-12-25T12:25:19Z</time></trkpt><trkpt lat="51.7010875884" lon="39.2740144953"><ele>112.13</ele><time>2016-12-25T12:25:20Z</time></trkpt><trkpt lat="51.7010530550" lon="39.2739807162"><ele>112.13</ele><time>2016-12-25T12:25:21Z</time></trkpt><trkpt lat="51.7010205332" lon="39.2739550676"><ele>112.61</ele><time>2016-12-25T12:25:22Z</time></trkpt><trkpt lat="51.7006327864" lon="39.2737255711"><ele>112.61</ele><time>2016-12-25T12:25:35Z</time></trkpt><trkpt lat="51.7001546826" lon="39.2733828351"><ele>112.13</ele><time>2016-12-25T12:25:51Z</time></trkpt><trkpt lat="51.6996589769" lon="39.2730213236"><ele>113.09</ele><time>2016-12-25T12:26:07Z</time></trkpt><trkpt lat="51.6992044263" lon="39.2727111094"><ele>113.57</ele><time>2016-12-25T12:26:21Z</time></trkpt><trkpt lat="51.6987697408" lon="39.2724580597"><ele>112.61</ele><time>2016-12-25T12:26:33Z</time></trkpt><trkpt lat="51.6987329442" lon="39.2724280525"><ele>112.61</ele><time>2016-12-25T12:26:34Z</time></trkpt><trkpt lat="51.6986974049" lon="39.2723978776"><ele>112.61</ele><time>2016-12-25T12:26:35Z</time></trkpt><trkpt lat="51.6983886156" lon="39.2721994780"><ele>112.13</ele><time>2016-12-25T12:26:43Z</time></trkpt><trkpt lat="51.6983147711" lon="39.2721402179"><ele>112.13</ele><time>2016-12-25T12:26:45Z</time></trkpt><trkpt lat="51.6978363320" lon="39.2718396429"><ele>112.13</ele><time>2016-12-25T12:27:01Z</time></trkpt><trkpt lat="51.6977088433" lon="39.2717353720"><ele>113.09</ele><time>2016-12-25T12:27:10Z</time></trkpt><trkpt lat="51.6976987850" lon="39.2717144173"><ele>113.09</ele><time>2016-12-25T12:27:11Z</time></trkpt><trkpt lat="51.6976896487" lon="39.2716846615"><ele>113.09</ele><time>2016-12-25T12:27:12Z</time></trkpt><trkpt lat="51.6976821888" lon="39.2716539837"><ele>113.57</ele><time>2016-12-25T12:27:13Z</time></trkpt><trkpt lat="51.6976764053" lon="39.2716248985"><ele>113.57</ele><time>2016-12-25T12:27:14Z</time></trkpt><trkpt lat="51.6976643354" lon="39.2714346293"><ele>112.13</ele><time>2016-12-25T12:27:20Z</time></trkpt><trkpt lat="51.6976665985" lon="39.2713961564"><ele>111.65</ele><time>2016-12-25T12:27:22Z</time></trkpt><trkpt lat="51.6976563726" lon="39.2713246588"><ele>110.69</ele><time>2016-12-25T12:27:25Z</time></trkpt><trkpt lat="51.6976504214" lon="39.2712566815"><ele>109.73</ele><time>2016-12-25T12:27:27Z</time></trkpt><trkpt lat="51.6976178158" lon="39.2711472139"><ele>110.21</ele><time>2016-12-25T12:27:30Z</time></trkpt><trkpt lat="51.6975924186" lon="39.2711141892"><ele>110.69</ele><time>2016-12-25T12:27:31Z</time></trkpt><trkpt lat="51.6975671891" lon="39.2710670829"><ele>111.65</ele><time>2016-12-25T12:27:33Z</time></trkpt><trkpt lat="51.6975251958" lon="39.2709997762"><ele>114.05</ele><time>2016-12-25T12:27:45Z</time></trkpt><trkpt lat="51.6971596610" lon="39.2707895581"><ele>113.57</ele><time>2016-12-25T12:27:57Z</time></trkpt><trkpt lat="51.6966916993" lon="39.2705028970"><ele>111.17</ele><time>2016-12-25T12:28:10Z</time></trkpt><trkpt lat="51.6963902023" lon="39.2701665312"><ele>109.73</ele><time>2016-12-25T12:28:22Z</time></trkpt><trkpt lat="51.6965026036" lon="39.2698222864"><ele>108.29</ele><time>2016-12-25T12:28:29Z</time></trkpt><trkpt lat="51.6965190321" lon="39.2697552312"><ele>108.29</ele><time>2016-12-25T12:28:30Z</time></trkpt><trkpt lat="51.6966647934" lon="39.2687893845"><ele>109.73</ele><time>2016-12-25T12:28:46Z</time></trkpt><trkpt lat="51.6966905259" lon="39.2684992868"><ele>109.73</ele><time>2016-12-25T12:28:59Z</time></trkpt><trkpt lat="51.6966902744" lon="39.2684768233"><ele>109.73</ele><time>2016-12-25T12:29:00Z</time></trkpt><trkpt lat="51.6967140790" lon="39.2683093529"><ele>109.73</ele><time>2016-12-25T12:29:08Z</time></trkpt><trkpt lat="51.6967176832" lon="39.2682873085"><ele>110.21</ele><time>2016-12-25T12:29:09Z</time></trkpt><trkpt lat="51.6967210360" lon="39.2682666890"><ele>109.73</ele><time>2016-12-25T12:29:10Z</time></trkpt><trkpt lat="51.6967231315" lon="39.2682422977"><ele>109.73</ele><time>2016-12-25T12:29:11Z</time></trkpt><trkpt lat="51.6967266519" lon="39.2682210915"><ele>109.25</ele><time>2016-12-25T12:29:12Z</time></trkpt><trkpt lat="51.6968385503" lon="39.2678008229"><ele>110.21</ele><time>2016-12-25T12:29:22Z</time></trkpt><trkpt lat="51.6968414001" lon="39.2677697260"><ele>110.21</ele><time>2016-12-25T12:29:23Z</time></trkpt><trkpt lat="51.6968382150" lon="39.2677376233"><ele>110.21</ele><time>2016-12-25T12:29:24Z</time></trkpt><trkpt lat="51.6968274862" lon="39.2677039281"><ele>110.21</ele><time>2016-12-25T12:29:25Z</time></trkpt><trkpt lat="51.6967761889" lon="39.2676548939"><ele>111.17</ele><time>2016-12-25T12:29:27Z</time></trkpt><trkpt lat="51.6967455950" lon="39.2676313408"><ele>111.17</ele><time>2016-12-25T12:29:28Z</time></trkpt><trkpt lat="51.6963331215" lon="39.2672963161"><ele>112.13</ele><time>2016-12-25T12:29:40Z</time></trkpt><trkpt lat="51.6958997771" lon="39.2669567652"><ele>110.69</ele><time>2016-12-25T12:29:53Z</time></trkpt><trkpt lat="51.6955650039" lon="39.2667581141"><ele>108.77</ele><time>2016-12-25T12:30:04Z</time></trkpt><trkpt lat="51.6951408796" lon="39.2664613947"><ele>110.21</ele><time>2016-12-25T12:30:18Z</time></trkpt><trkpt lat="51.6950482596" lon="39.2663766537"><ele>109.73</ele><time>2016-12-25T12:30:22Z</time></trkpt><trkpt lat="51.6950439848" lon="39.2663425393"><ele>109.73</ele><time>2016-12-25T12:30:23Z</time></trkpt><trkpt lat="51.6950455774" lon="39.2663153820"><ele>109.73</ele><time>2016-12-25T12:30:24Z</time></trkpt><trkpt lat="51.6950496845" lon="39.2662886437"><ele>109.73</ele><time>2016-12-25T12:30:25Z</time></trkpt><trkpt lat="51.6950551327" lon="39.2662665993"><ele>109.73</ele><time>2016-12-25T12:30:26Z</time></trkpt><trkpt lat="51.6950625088" lon="39.2662505060"><ele>109.25</ele><time>2016-12-25T12:30:27Z</time></trkpt><trkpt lat="51.6950655263" lon="39.2662243545"><ele>109.25</ele><time>2016-12-25T12:30:29Z</time></trkpt><trkpt lat="51.6950556356" lon="39.2661603168"><ele>109.25</ele><time>2016-12-25T12:30:33Z</time></trkpt><trkpt lat="51.6950393748" lon="39.2661505938"><ele>109.25</ele><time>2016-12-25T12:30:43Z</time></trkpt><trkpt lat="51.6950364411" lon="39.2661531921"><ele>110.21</ele><time>2016-12-25T12:31:00Z</time></trkpt></trkseg></trk></gpx>